GFSMW_sfc_thetae_000.txt.gz
Theta_e
301 303 303 302 303 303 303 304 308 309 315 317 317 317 318 319 320 321 322 322 321 320 317 316 317 317 316 318 318 317 315 316 315 313 314 316 316 316 316 316 315 315 315
301 302 302 301 301 302 303 304 305 306 311 316 317 319 319 319 319 318 315 315 317 317 318 318 318 318 318 318 317 317 318 319 319 314 315 311 314 315 316 316 315 315 316
300 300 301 300 301 301 301 303 303 305 306 308 312 312 312 310 309 309 307 308 309 308 307 308 309 311 314 315 317 317 318 317 319 320 315 311 310 315 317 313 314 315 315
299 302 302 301 301 301 302 303 304 304 305 304 305 303 303 302 303 304 303 305 305 306 305 305 304 304 306 305 307 309 313 314 313 317 320 320 317 311 310 317 315 313 314
300 300 301 301 301 302 301 301 303 303 303 303 302 303 301 301 301 302 301 301 302 304 303 303 302 302 303 303 303 304 305 306 308 308 311 312 312 313 310 306 310 315 317
299 300 300 300 300 300 301 301 302 302 302 302 302 300 299 299 299 299 298 299 300 301 300 301 301 301 301 302 303 303 303 304 305 305 305 305 304 305 306 304 305 306 310
298 299 299 299 299 299 300 301 301 300 300 300 299 299 298 297 296 296 296 295 296 297 297 297 298 298 299 300 302 302 301 302 302 302 303 304 304 306 305 304 303 304 307
297 298 298 297 298 299 299 299 299 298 299 298 297 296 296 296 295 294 294 294 294 294 294 295 295 296 297 298 298 298 299 300 300 300 301 302 302 303 303 303 302 299 301
297 298 297 297 297 298 298 297 297 296 296 296 295 293 293 292 291 291 291 291 291 292 292 291 292 293 293 293 293 295 295 296 298 299 298 298 299 300 302 304 304 300 295
297 297 296 296 297 297 296 295 295 294 294 293 293 291 290 289 289 288 287 287 288 288 288 288 289 289 288 289 290 293 291 292 296 294 293 296 297 298 302 302 301 300 298
297 296 295 296 296 295 293 292 292 292 291 291 290 288 287 287 286 286 286 285 286 286 286 286 287 286 286 287 287 290 289 291 291 290 290 292 294 298 296 298 295 294 296
297 295 295 295 294 292 291 290 290 290 290 290 288 286 285 284 283 283 284 284 284 285 285 285 285 285 285 285 287 285 286 289 288 288 290 292 296 291 293 293 291 292 293
295 294 295 294 293 291 289 288 288 287 288 287 285 283 283 282 281 282 283 283 283 283 283 284 284 284 284 285 284 285 286 287 288 289 287 286 289 288 288 287 289 293 292
295 295 295 293 291 289 287 286 286 286 286 284 283 282 281 281 281 281 282 282 282 282 282 282 283 283 283 284 284 286 286 287 288 287 285 285 285 286 287 287 287 291 289
294 296 294 291 289 287 286 285 285 284 284 282 282 281 282 281 281 281 281 281 281 282 282 282 282 282 283 284 285 286 286 286 286 285 285 286 288 290 290 288 287 288 287
293 295 293 290 288 285 285 285 283 282 282 281 281 281 281 281 281 281 281 280 280 280 280 280 281 281 283 287 289 289 286 285 284 284 284 285 288 288 291 291 291 290 286
292 294 291 289 286 285 285 283 281 281 282 281 280 281 281 280 280 280 280 279 279 279 279 279 280 280 280 287 289 289 285 284 284 284 284 284 286 288 286 289 290 290 291
293 292 289 286 285 284 283 282 282 282 281 279 279 280 280 279 279 279 278 278 278 278 279 279 279 279 281 286 288 288 285 284 284 284 284 284 286 286 287 286 285 286 286
292 290 288 286 283 282 282 281 281 278 278 278 278 279 279 278 278 278 277 278 278 278 278 279 279 278 279 285 287 287 284 283 283 284 285 287 285 288 289 286 284 283 285
289 287 285 284 282 280 280 278 278 277 277 278 278 279 279 278 277 277 277 278 278 278 279 279 279 281 279 284 287 286 283 282 283 284 286 287 286 289 289 284 283 281 281
287 286 284 282 280 279 281 278 277 276 277 278 278 278 278 277 277 277 277 278 278 278 277 277 278 279 280 281 287 287 284 283 283 284 282 283 288 289 287 287 282 281 284
286 284 281 280 280 282 279 277 277 277 277 277 277 277 277 278 279 277 277 277 277 276 276 277 277 279 280 284 285 287 287 287 284 282 282 284 287 285 285 284 285 285 285
284 283 281 280 279 279 278 276 276 277 277 276 276 276 277 277 277 277 277 277 277 276 276 276 277 279 281 281 285 286 287 287 284 283 285 284 284 283 282 283 283 283 279
282 281 280 279 280 279 277 276 276 277 276 275 275 276 275 277 277 276 277 277 276 276 276 277 278 279 280 280 281 282 283 285 284 286 283 282 282 282 281 280 279 278 278
282 281 281 280 278 276 276 276 277 276 275 275 275 275 276 275 276 277 276 277 278 279 279 279 279 279 279 280 284 284 282 283 284 283 280 278 277 276 276 277 277 277 278
281 280 279 277 276 275 275 276 276 276 275 275 276 276 277 276 277 276 276 281 283 284 284 284 283 282 284 285 285 285 286 286 284 279 277 276 276 275 275 275 275 276 277

GFSMW_sfc_thetae_003.txt.gz
Theta_e
305 306 306 306 308 308 309 310 314 318 323 324 324 325 322 319 317 315 314 313 314 314 314 314 314 315 316 317 318 320 320 320 323 318 317 320 323 324 325 325 323 322 322
304 304 305 306 306 306 308 308 309 311 318 323 324 324 318 315 313 312 311 311 309 308 308 308 308 309 310 309 311 311 311 313 316 316 315 312 316 322 323 324 323 324 323
303 304 304 305 306 305 306 307 308 309 309 312 313 313 313 312 310 308 308 307 307 306 306 306 306 306 307 306 308 308 308 306 309 312 310 307 305 309 314 319 323 323 322
303 304 304 305 305 305 307 307 307 308 308 310 309 308 307 305 305 305 305 304 305 304 302 303 304 304 304 304 305 306 306 306 304 308 309 310 310 304 303 309 314 316 319
304 303 303 304 304 305 305 306 306 306 306 306 306 305 303 304 303 302 301 301 301 302 299 300 301 300 301 303 303 303 304 305 304 304 305 306 308 308 305 301 305 310 311
302 302 303 303 304 305 305 305 304 303 303 303 303 302 301 299 298 297 296 297 297 297 296 296 297 297 298 298 299 301 302 302 303 304 304 304 303 302 302 301 302 302 306
302 302 302 302 303 304 304 304 303 301 301 300 299 299 298 297 295 294 293 292 292 293 293 294 293 294 295 295 295 297 299 299 299 301 302 302 300 300 301 300 300 300 304
301 301 302 302 302 302 302 301 300 299 299 297 295 295 295 293 292 291 291 290 290 291 291 291 292 292 292 291 292 293 297 294 296 299 297 297 296 299 299 300 298 296 298
300 301 300 301 301 300 299 299 298 297 297 295 292 291 290 290 289 289 289 289 289 289 289 290 290 290 290 289 290 291 292 292 292 296 294 294 295 298 300 301 301 297 293
300 299 299 300 300 298 297 297 296 295 294 292 291 289 288 288 288 288 287 287 287 288 288 288 288 288 288 288 288 289 290 289 290 292 291 293 294 296 299 298 298 298 293
299 299 299 299 297 295 295 294 294 293 292 289 288 287 287 286 286 286 286 286 286 286 286 286 286 287 286 287 287 287 288 287 289 291 291 291 292 291 293 295 294 293 291
299 298 299 296 294 293 292 292 292 291 290 288 286 286 285 285 285 285 285 285 285 286 285 285 285 285 285 286 286 285 287 287 288 289 290 288 288 288 289 291 290 290 291
297 297 297 294 292 291 290 289 289 289 287 286 285 284 284 284 284 284 284 284 284 285 285 284 284 284 285 285 285 286 287 287 288 288 288 287 287 287 288 288 289 290 290
297 296 296 294 292 290 289 288 287 287 286 285 284 284 284 284 283 284 284 284 284 284 284 284 284 284 284 284 285 287 287 287 287 287 287 286 286 286 288 289 289 289 288
296 296 295 292 290 288 288 287 286 285 285 284 283 283 283 284 284 283 283 283 283 283 283 283 283 283 283 284 286 287 287 286 286 286 286 287 288 289 289 288 288 288 287
296 297 294 291 289 288 287 286 284 284 284 283 282 283 283 283 283 283 282 282 282 282 282 282 282 282 282 286 288 288 287 286 285 285 286 286 287 288 290 290 290 289 286
295 296 294 291 288 287 287 285 283 283 283 282 282 282 282 282 282 282 282 281 281 281 281 281 281 281 282 285 287 288 286 286 285 285 285 285 286 288 288 289 290 290 289
294 295 292 289 287 287 285 284 283 283 282 281 281 282 282 281 282 281 281 281 281 281 281 281 281 281 281 285 287 287 286 285 285 285 285 285 286 288 287 287 287 286 286
295 293 291 287 286 285 284 283 282 281 281 281 281 281 281 281 280 280 280 280 281 281 280 281 280 280 280 284 286 286 285 284 284 285 285 287 287 287 289 286 284 284 284
291 289 287 285 284 282 282 281 281 280 280 280 280 281 281 280 279 280 280 280 280 280 281 280 280 281 280 283 285 286 284 283 284 285 286 287 286 288 288 284 283 281 282
287 286 285 283 282 281 281 281 280 279 280 280 280 280 280 279 280 280 280 280 280 280 279 279 280 280 281 282 286 286 284 284 284 285 284 285 287 288 286 285 282 282 284
286 285 282 281 281 282 282 279 279 279 279 280 279 279 279 279 280 280 280 280 279 278 278 278 279 281 282 284 285 286 286 286 284 283 284 285 287 286 284 283 284 284 283
285 284 282 281 281 281 280 278 279 279 279 278 278 278 278 279 279 279 279 279 279 278 278 278 278 280 282 283 285 286 286 287 284 285 287 285 284 284 282 282 283 282 279
284 283 281 280 280 280 280 278 278 278 278 277 277 278 278 280 279 279 279 278 278 278 278 278 279 280 281 282 283 283 284 285 285 286 282 282 282 282 281 280 280 279 279
283 282 280 280 280 279 278 278 278 278 277 277 277 277 278 277 278 278 278 279 280 280 280 280 280 280 280 281 284 284 283 284 284 282 280 279 279 278 278 278 278 278 278
281 280 280 280 278 277 277 277 278 277 276 276 277 277 278 278 278 277 278 281 282 283 283 283 282 282 284 285 285 285 285 285 284 279 277 277 277 276 276 276 276 277 277

GFSMW_sfc_thetae_006.txt.gz
Theta_e
311 312 313 315 316 318 320 324 327 329 330 331 328 325 320 318 317 316 315 314 313 313 313 313 312 312 312 311 311 311 310 311 312 310 311 312 316 319 318 323 321 322 325
310 311 312 313 314 314 316 318 322 326 329 329 324 320 318 316 315 314 313 312 310 310 309 310 309 310 309 309 309 309 308 308 309 306 307 303 308 311 312 313 313 315 317
308 310 311 312 313 313 314 314 316 317 318 319 318 317 317 316 313 311 310 309 308 306 306 306 306 306 306 305 306 305 305 303 305 306 304 301 299 305 308 309 310 312 313
309 310 310 311 312 313 315 315 315 315 316 317 315 314 312 309 308 308 308 306 305 302 302 302 302 302 302 302 302 302 302 302 300 302 304 304 303 300 299 305 306 308 308
309 309 310 310 311 313 313 313 312 311 312 312 312 310 308 307 306 305 304 303 302 300 298 298 299 299 299 299 299 299 300 301 299 299 300 301 302 302 299 296 298 302 303
309 309 310 310 310 312 312 311 309 308 309 308 308 307 305 303 302 300 299 298 298 298 297 296 297 297 297 296 297 297 299 299 297 298 298 299 297 296 295 294 295 296 298
308 308 308 309 309 310 310 308 307 305 305 305 303 302 301 300 298 297 296 295 295 295 294 295 295 295 295 295 295 295 297 297 295 296 297 297 295 295 293 293 295 295 298
308 308 309 309 309 308 308 307 305 303 302 301 299 299 298 297 295 294 294 293 293 293 294 294 294 294 293 293 293 294 294 295 294 293 295 295 294 295 294 295 295 293 294
308 308 309 309 308 307 306 305 304 302 300 298 297 295 295 294 293 293 293 292 292 291 292 293 292 293 292 292 292 292 292 292 293 292 294 293 294 295 295 294 295 292 288
307 307 307 308 307 305 304 303 302 300 298 296 295 293 292 292 292 292 291 291 291 291 291 291 291 291 291 291 291 291 291 290 291 292 291 292 292 293 292 291 291 291 290
307 306 307 307 304 303 302 301 300 298 295 294 293 292 291 290 290 290 290 290 290 290 290 290 290 289 289 290 289 289 289 289 290 291 290 290 291 291 290 290 290 289 289
307 306 306 304 302 301 300 299 298 296 294 292 291 290 290 290 290 289 289 289 289 290 289 289 289 289 289 289 288 288 288 288 288 289 289 289 289 289 289 289 288 289 290
306 305 305 303 301 299 298 297 296 294 292 291 290 289 289 289 289 289 289 289 288 288 289 288 288 287 288 287 288 288 288 288 289 289 288 288 288 287 288 288 288 289 289
305 304 304 302 300 298 296 295 293 292 290 289 289 288 288 288 288 288 288 288 288 288 287 287 287 287 287 287 287 287 288 288 288 288 288 288 287 287 287 287 288 288 288
303 303 303 302 299 297 295 293 292 291 289 288 288 287 287 288 288 288 287 287 287 287 287 286 287 287 286 286 286 287 287 287 287 288 287 287 288 288 289 288 288 288 287
302 303 303 301 298 296 294 292 290 288 288 287 286 286 287 287 287 287 287 287 287 287 287 286 286 286 285 287 287 288 287 287 287 286 286 287 287 288 289 290 290 289 287
302 302 302 300 297 295 294 292 289 288 287 286 286 286 286 286 286 286 286 286 286 286 286 286 286 285 285 287 287 288 286 286 286 286 285 286 286 288 288 289 289 289 290
301 303 302 299 296 294 292 290 288 287 286 285 285 286 285 285 285 285 285 286 286 285 285 285 285 284 284 286 286 287 286 286 286 286 286 285 286 287 287 287 287 287 286
301 302 301 297 294 292 291 288 286 285 285 285 285 285 285 284 284 284 285 285 285 285 285 284 284 283 283 285 285 286 285 285 285 286 286 286 286 287 288 287 285 284 284
298 297 296 294 293 290 288 287 286 284 283 284 284 285 284 284 284 284 284 285 285 284 284 283 284 284 283 285 286 286 285 284 284 285 286 288 287 288 289 285 284 282 282
295 293 293 292 290 288 287 286 283 282 284 284 284 284 284 284 284 284 284 284 284 283 283 282 283 283 284 284 286 286 285 284 285 286 286 286 288 287 286 286 283 282 283
292 292 290 289 287 287 286 283 282 284 284 284 283 283 284 283 283 284 284 283 283 282 281 281 282 283 284 285 285 286 286 286 285 284 286 286 286 285 284 284 284 284 283
291 290 289 287 286 286 284 282 283 283 283 283 283 283 283 283 284 283 282 282 282 281 280 280 281 282 283 284 286 286 287 287 285 285 287 285 284 283 283 283 283 282 281
291 289 288 287 285 284 283 284 283 283 282 282 282 282 282 282 283 283 282 281 281 280 280 280 280 281 282 283 284 285 286 286 285 286 284 283 282 282 282 281 281 280 280
291 289 288 287 285 284 283 283 283 282 282 282 282 282 282 282 282 282 281 281 282 282 281 281 281 281 280 282 285 284 283 284 285 283 282 280 279 279 279 279 279 280 280
290 287 286 286 284 283 282 282 282 282 281 280 281 281 281 282 281 280 280 283 283 283 283 283 283 282 284 285 285 284 285 285 284 280 278 277 278 278 278 277 278 278 278

GFSMW_sfc_thetae_009.txt.gz
Theta_e
313 315 317 318 320 323 326 328 328 330 332 331 327 323 319 318 316 315 314 313 312 312 311 312 311 311 310 310 309 308 307 307 308 306 307 307 311 309 311 310 310 312 314
311 313 314 315 316 318 321 323 327 329 327 324 323 320 318 316 315 314 311 310 308 308 308 307 307 306 307 306 305 305 303 304 304 301 301 298 302 305 305 307 308 307 311
310 311 313 314 315 315 316 317 318 319 320 320 319 318 317 316 312 310 309 307 306 303 303 303 302 302 304 303 302 302 301 299 302 302 298 295 293 298 303 303 305 303 303
311 312 312 313 314 315 317 316 317 317 318 318 317 315 311 308 308 308 307 306 304 301 299 300 300 299 300 299 300 299 300 300 298 299 299 299 298 294 293 299 300 301 299
311 311 312 312 314 315 315 314 313 313 314 313 313 311 308 307 307 306 304 303 302 300 298 298 298 298 298 298 297 298 298 299 297 296 296 296 298 297 292 289 292 296 297
310 311 312 312 312 314 313 313 310 309 310 310 309 308 306 305 303 302 300 300 299 298 297 297 297 297 296 296 296 297 297 297 297 296 295 294 293 292 291 289 290 291 295
310 309 309 310 311 311 310 309 308 307 307 306 305 304 303 302 300 299 297 296 296 295 295 295 295 295 296 295 295 295 295 295 295 295 293 294 294 294 292 291 290 290 293
310 309 310 311 311 310 309 308 306 304 304 303 301 301 301 299 297 296 295 295 294 294 294 294 294 294 294 293 294 294 294 294 294 294 293 293 294 294 293 291 290 288 288
309 309 310 311 310 309 308 307 305 303 302 300 299 298 297 296 295 295 294 294 293 292 293 293 292 293 292 292 292 292 292 292 292 292 292 292 292 293 293 293 292 288 283
309 310 310 310 310 308 307 307 305 302 300 298 297 296 295 294 294 294 292 292 292 292 292 291 291 291 291 291 291 291 291 290 291 291 291 291 291 291 292 291 291 289 286
309 309 310 310 308 307 306 304 302 300 298 297 296 295 293 293 293 292 291 291 291 291 290 290 290 290 290 290 290 289 290 289 289 290 290 290 290 289 289 290 289 288 288
309 309 309 308 306 305 304 302 302 299 297 295 294 293 292 292 292 291 291 290 290 290 290 289 289 289 289 289 288 288 288 288 288 288 289 288 289 288 289 288 287 287 287
308 308 308 307 305 304 303 301 300 297 295 294 293 292 291 291 290 290 290 290 289 289 289 289 288 288 289 288 288 288 287 287 288 288 288 288 288 287 287 287 286 286 287
308 307 307 306 305 303 302 300 298 296 293 292 291 291 290 289 290 289 289 289 289 288 288 288 288 288 288 288 288 287 286 287 287 288 288 288 287 286 286 286 286 287 286
306 306 306 306 304 302 300 298 296 294 292 291 290 289 289 289 289 289 289 288 288 288 288 288 288 288 288 288 287 287 286 286 286 287 287 288 289 289 288 286 286 286 285
306 306 307 306 304 301 299 296 294 292 291 289 288 288 288 288 288 288 287 287 288 288 288 288 288 288 287 289 289 288 286 286 285 285 286 287 288 288 289 290 290 289 285
306 306 306 306 304 301 298 295 293 291 289 288 288 287 287 287 287 287 287 287 287 288 287 287 287 286 286 289 288 288 285 285 285 285 285 286 286 287 287 289 289 289 289
305 305 306 305 302 299 297 294 291 290 288 287 287 287 287 286 286 286 286 286 287 287 286 286 286 285 286 288 287 287 285 285 286 285 285 285 285 287 287 286 286 286 285
304 306 306 303 299 296 294 291 289 288 287 286 286 286 286 285 285 285 285 286 286 286 285 286 285 284 284 287 287 286 285 284 284 285 285 285 285 288 289 285 283 282 282
302 302 301 298 296 294 292 290 289 287 285 285 285 286 285 285 284 285 285 286 286 285 285 284 285 285 283 286 287 286 285 283 284 285 286 287 286 289 288 284 281 279 281
299 298 297 295 294 291 291 290 286 284 284 284 285 285 285 285 285 284 285 285 284 284 284 283 284 284 285 285 287 287 285 284 283 284 284 285 287 288 286 286 281 281 283
294 295 294 292 290 290 290 286 284 285 284 285 285 285 285 284 285 285 285 285 284 283 282 282 282 284 284 286 286 287 287 287 284 283 283 284 287 285 285 283 284 284 283
293 294 292 289 289 288 288 285 284 284 284 284 284 284 284 284 285 284 284 283 282 281 281 281 281 282 283 284 286 286 287 287 284 283 285 286 285 284 282 283 283 283 279
293 292 291 289 287 286 285 285 284 284 283 283 283 283 283 284 284 284 283 282 281 281 280 280 280 281 281 282 283 283 284 285 284 285 283 283 283 282 281 280 280 279 279
293 292 291 290 287 285 285 284 284 284 282 283 282 283 283 283 283 283 282 282 282 282 281 281 281 280 279 281 284 284 282 282 284 283 281 279 278 277 277 278 278 278 278
293 291 290 288 287 285 284 284 284 283 282 281 282 282 282 283 282 282 281 285 285 285 284 284 283 282 284 285 285 284 284 285 284 280 277 276 276 276 276 276 276 277 277

GFSMW_sfc_thetae_012.txt.gz
Theta_e
309 310 312 313 317 320 321 322 324 325 326 325 318 315 311 310 309 308 306 305 304 305 303 303 302 302 301 300 299 298 297 297 298 297 296 297 299 299 299 300 302 302 303
306 308 310 309 313 315 318 321 321 319 319 317 315 314 310 308 307 306 304 302 300 300 300 298 298 297 298 297 296 295 295 296 296 293 293 290 293 295 297 299 299 298 299
305 306 307 308 309 310 311 313 314 315 315 314 313 311 310 308 305 303 301 300 298 297 296 296 295 295 295 294 294 293 293 293 294 294 291 288 287 291 294 295 295 294 296
306 307 307 307 308 309 311 312 312 313 313 313 311 307 304 301 302 301 300 298 297 295 295 295 294 293 294 292 292 294 292 293 291 293 294 291 290 288 287 291 292 292 293
305 306 307 309 309 309 308 307 308 308 308 307 306 304 301 300 300 299 297 295 295 294 294 293 292 292 292 291 291 291 290 292 291 290 290 289 289 289 287 285 287 290 291
305 306 307 309 308 308 306 305 304 304 304 303 302 301 299 298 296 294 293 293 293 293 292 293 291 291 291 290 290 290 290 290 290 290 289 288 286 286 286 286 286 286 288
305 305 305 305 306 305 304 304 302 301 301 300 299 298 296 294 292 291 291 290 290 290 289 290 289 289 289 290 290 289 288 288 288 288 288 289 288 289 289 287 286 285 287
304 304 305 305 305 305 302 301 300 298 298 296 295 294 294 293 291 290 289 289 288 288 288 289 289 288 289 289 288 288 288 287 287 286 286 288 288 289 288 287 285 283 284
304 304 305 305 305 303 302 300 298 297 296 295 293 291 291 290 289 289 289 288 288 290 288 288 287 287 287 287 287 286 286 286 286 286 286 286 288 288 288 288 287 284 280
304 305 305 305 304 303 302 300 298 296 294 293 291 290 288 288 288 288 287 287 287 287 287 286 286 286 286 286 285 286 286 285 286 287 285 286 287 287 287 287 286 286 283
304 305 305 305 303 301 300 298 296 294 292 292 290 288 288 288 287 287 286 286 286 286 286 286 286 285 285 285 285 284 285 284 284 284 285 286 286 286 286 286 286 285 284
305 305 304 303 301 300 299 297 295 293 292 290 289 288 288 287 286 286 286 286 285 285 285 285 285 285 285 285 284 284 284 283 283 284 284 285 287 285 285 285 284 284 284
303 304 303 302 300 299 297 296 295 291 290 289 288 287 287 286 285 285 286 286 285 285 285 285 285 285 285 285 284 285 283 283 284 284 284 284 284 284 284 284 283 284 285
304 303 302 300 299 298 297 295 293 290 289 288 287 286 285 285 285 285 286 286 285 284 284 284 285 285 285 285 285 284 283 283 284 284 284 284 284 284 284 284 284 285 284
303 302 301 300 299 297 295 293 291 289 288 287 286 285 285 286 285 286 285 285 284 284 284 284 284 285 285 286 285 285 284 283 283 283 284 285 287 289 288 286 285 284 283
303 302 302 300 298 295 293 292 290 288 287 286 285 286 286 285 285 285 284 284 283 283 283 283 284 284 286 289 290 288 284 283 282 282 283 284 286 286 289 289 289 288 285
302 302 302 300 297 295 293 289 288 287 286 286 286 285 286 285 284 284 283 282 282 282 282 282 282 282 281 289 289 289 284 283 282 282 283 283 285 285 284 287 289 289 289
302 301 301 299 296 294 291 288 287 286 286 285 285 285 285 283 283 282 281 281 281 281 281 281 281 280 282 288 288 288 283 282 283 283 283 282 283 284 286 285 285 284 283
301 300 299 296 293 291 288 287 286 285 285 284 284 284 283 282 281 280 280 280 280 280 280 281 280 280 280 287 288 287 283 282 282 283 283 284 284 287 288 285 283 281 280
298 297 294 293 291 288 287 286 284 284 282 282 282 283 282 281 280 279 279 280 280 281 281 281 280 283 280 285 288 286 283 281 282 283 284 286 285 287 288 284 281 279 278
294 293 292 290 288 287 287 284 283 281 282 282 282 282 282 280 280 279 280 280 279 279 279 279 279 279 280 282 287 287 283 283 282 282 281 282 286 288 287 286 280 280 282
292 292 289 287 287 287 285 282 280 281 282 282 282 281 280 281 282 280 280 280 278 277 277 278 278 279 280 285 285 287 287 286 282 281 281 282 286 285 285 283 284 284 283
291 290 287 286 285 285 283 280 280 281 281 280 280 280 280 280 280 279 279 278 277 276 277 277 277 278 280 281 285 286 286 286 283 282 284 286 284 283 281 282 283 282 277
289 288 286 284 282 281 281 281 281 281 281 279 278 278 278 280 279 279 279 278 276 277 277 277 278 278 279 279 280 282 283 284 283 284 283 282 282 282 281 279 278 277 277
289 288 286 284 282 281 281 281 281 281 279 278 277 278 279 278 278 279 278 277 278 279 279 279 279 278 278 280 284 284 282 282 283 283 279 277 276 276 276 276 276 277 277
289 287 286 283 282 281 280 281 281 280 278 277 277 277 277 278 277 277 278 283 284 285 285 285 283 282 284 285 285 285 285 285 284 279 275 275 275 274 275 275 275 276 277

GFSMW_sfc_thetae_015.txt.gz
Theta_e
306 309 311 313 316 317 319 320 322 322 320 315 311 309 306 305 304 302 301 299 300 299 297 297 296 297 296 294 295 294 294 294 294 293 292 294 295 293 293 295 296 296 297
305 307 309 311 313 313 315 315 315 316 316 314 311 309 306 303 302 300 297 296 296 296 296 294 294 294 294 292 292 291 292 293 293 290 289 287 289 291 293 293 294 293 293
304 304 305 307 308 309 311 312 312 313 312 311 310 308 306 303 301 298 296 294 294 294 294 293 292 292 292 291 290 290 290 290 291 291 288 285 284 287 290 290 291 291 291
305 305 304 305 306 307 309 311 312 311 311 309 308 305 301 299 299 298 296 294 293 292 293 292 291 291 291 289 289 291 289 289 288 290 292 288 287 284 283 288 289 290 291
305 304 305 306 307 306 304 304 305 305 305 305 303 301 299 298 297 295 293 292 291 291 292 291 290 289 290 288 288 288 287 288 287 287 288 286 286 285 283 282 284 288 289
304 305 306 306 304 303 302 301 302 301 301 301 300 298 296 294 292 291 290 290 290 290 290 290 289 288 288 288 288 287 287 286 286 286 286 285 284 285 284 282 283 284 286
304 304 304 304 303 301 300 300 299 298 297 296 295 294 292 291 290 289 288 288 288 287 287 288 287 287 287 288 287 286 286 286 285 285 285 285 286 286 286 285 283 282 285
304 304 304 303 302 301 299 298 297 295 295 293 292 291 291 290 289 288 287 287 286 286 286 286 286 286 286 286 286 286 285 285 284 283 284 285 285 286 286 285 283 281 282
303 303 304 303 301 299 298 297 295 294 293 291 290 288 288 288 287 286 286 286 286 288 286 286 285 285 285 285 285 284 284 284 283 283 283 283 285 286 286 286 285 282 278
302 303 304 303 301 299 297 296 294 293 291 290 288 287 286 286 286 286 285 285 285 285 285 285 284 284 284 284 283 283 284 283 283 285 282 283 284 285 285 285 284 284 282
302 303 303 303 301 298 296 294 293 291 289 289 287 286 286 286 285 285 284 284 284 284 284 285 284 284 284 283 283 283 283 282 282 282 283 283 284 284 284 285 284 284 283
303 303 303 301 299 298 295 293 291 290 289 288 286 286 286 285 284 284 284 284 284 284 284 284 284 284 284 283 282 282 282 281 281 282 282 283 285 283 283 284 283 283 283
302 302 301 299 298 297 294 293 290 289 288 287 286 286 285 284 283 283 284 285 284 284 284 284 283 284 284 283 283 283 282 282 282 282 282 282 282 282 283 283 282 283 284
303 301 300 298 298 296 295 292 289 288 287 286 285 284 284 283 283 284 284 284 284 283 283 283 284 284 284 284 284 283 282 281 282 283 283 282 282 282 283 283 283 284 283
301 301 299 298 297 295 293 290 288 287 286 285 285 284 284 284 284 284 284 284 284 283 283 283 283 283 283 285 285 284 283 281 281 281 282 283 285 288 287 285 283 283 282
301 301 300 298 296 294 292 289 287 286 286 285 284 285 284 284 284 284 283 283 282 282 281 281 282 282 284 289 289 288 283 281 281 281 282 283 285 285 288 288 289 288 284
300 300 300 298 295 293 290 287 285 285 284 284 284 285 284 284 284 283 282 281 280 280 280 280 280 280 280 288 289 289 284 281 281 281 281 282 284 285 283 286 288 288 289
300 301 300 296 293 290 288 286 285 284 284 284 284 284 284 283 282 281 280 279 279 279 279 279 279 279 281 287 288 288 283 281 281 281 281 281 282 284 284 284 283 284 283
298 297 295 293 291 288 286 285 284 284 283 283 283 283 282 282 281 279 278 278 278 279 279 279 278 277 278 286 287 286 282 281 281 282 282 284 283 286 287 284 283 281 280
295 292 291 289 286 285 286 284 282 283 282 282 282 282 282 281 279 278 278 278 279 279 279 279 278 280 278 284 286 286 282 281 281 282 283 285 284 286 288 283 281 277 278
291 290 289 286 285 285 285 283 281 281 282 282 282 282 281 280 278 278 278 279 278 278 276 276 276 277 278 280 286 286 282 281 281 281 281 281 285 288 286 285 279 279 282
290 288 287 285 285 285 284 280 279 281 281 281 281 280 279 280 281 279 279 278 277 275 275 275 276 277 278 283 284 286 286 286 282 281 281 281 286 284 284 282 283 283 282
287 287 286 284 283 282 282 279 279 281 281 280 279 278 278 279 279 278 278 277 276 275 276 276 276 278 279 278 284 286 286 286 283 282 284 285 283 282 280 281 282 282 276
287 286 284 282 280 280 280 280 280 280 279 278 277 277 277 279 278 278 278 277 275 275 276 276 277 277 278 279 280 282 282 284 283 284 280 281 280 280 280 278 278 277 277
286 285 283 281 280 279 279 279 280 279 277 277 277 277 277 277 277 277 277 277 277 279 279 278 278 277 278 280 284 283 281 282 283 281 277 276 276 275 275 276 276 277 277
286 285 283 280 279 279 279 279 280 279 277 276 276 276 277 276 276 275 276 282 283 284 284 284 282 281 284 285 284 284 285 284 283 278 275 274 274 274 274 275 275 276 276

GFSMW_sfc_thetae_018.txt.gz
Theta_e
305 307 309 311 314 316 317 317 320 314 313 311 307 305 304 303 301 299 298 297 296 296 295 294 294 295 293 291 291 291 291 291 291 290 290 291 292 289 290 291 289 292 291
303 306 310 311 314 315 316 317 317 313 312 311 307 304 302 302 298 296 294 294 294 294 294 292 292 292 291 290 289 289 289 290 290 287 287 285 287 288 290 289 290 288 290
303 304 307 308 310 311 311 312 311 311 310 308 306 303 302 299 296 294 292 292 293 293 292 291 291 290 290 288 288 288 288 287 289 288 286 282 281 285 287 288 287 289 288
304 304 306 306 307 307 309 310 310 309 308 307 304 302 299 296 296 294 292 291 291 291 292 291 290 289 289 287 288 289 287 286 285 287 290 287 285 281 281 286 288 286 287
304 305 306 307 306 306 306 307 308 307 306 305 303 301 297 296 295 292 290 289 289 290 290 289 288 288 288 287 286 286 285 286 285 285 285 284 284 284 282 280 281 285 287
303 304 305 305 303 302 302 302 304 302 303 302 299 298 295 293 291 290 289 289 288 288 288 289 287 286 286 286 286 285 285 284 284 284 284 283 282 282 281 281 281 281 284
302 303 303 303 301 300 299 299 300 297 298 297 296 294 292 290 288 288 287 287 286 286 286 286 285 285 285 286 285 284 284 284 283 282 282 283 283 284 283 282 280 280 283
303 304 303 302 300 299 297 297 296 294 294 293 291 290 289 289 288 287 286 286 285 285 285 285 285 284 285 284 284 284 283 284 282 281 282 282 283 283 283 282 281 279 280
303 303 302 301 300 298 296 295 294 292 291 290 289 287 287 287 286 286 285 285 285 287 284 284 284 284 284 284 283 282 282 282 282 282 281 281 282 283 283 283 283 280 277
302 302 302 301 299 297 295 293 293 291 289 288 287 287 286 285 285 285 284 284 284 284 284 283 283 283 283 283 282 282 283 282 282 283 281 281 282 283 283 283 283 282 280
301 302 302 300 298 296 294 292 291 289 287 286 285 285 285 285 284 284 283 283 283 283 283 283 283 283 283 283 282 282 282 281 281 281 281 281 282 282 282 283 283 282 282
302 302 301 299 296 295 293 291 289 288 287 286 285 285 284 284 283 283 283 283 283 283 283 283 283 283 283 282 282 281 281 281 280 281 281 281 283 281 282 282 281 282 282
301 301 300 298 296 294 292 290 288 287 286 286 285 284 284 283 282 283 283 283 283 283 283 283 282 282 283 282 282 281 281 281 281 281 280 281 281 280 281 281 281 282 284
301 300 299 297 296 294 291 289 287 287 286 285 284 283 283 283 283 283 283 283 283 282 282 282 282 282 282 282 282 282 281 281 281 281 281 281 281 281 281 282 282 283 281
300 300 298 297 295 292 290 288 286 286 285 285 284 283 283 283 283 283 283 283 282 282 282 281 282 281 282 284 284 284 282 281 280 280 281 282 284 287 286 284 283 283 282
300 300 299 296 294 293 290 288 285 285 285 284 284 284 283 283 283 283 282 282 281 280 280 280 280 280 282 287 289 287 283 281 280 280 281 281 284 284 288 287 288 287 283
300 299 298 297 295 292 289 286 285 285 284 284 284 284 283 283 283 282 281 280 279 279 279 279 279 278 278 287 288 289 283 280 279 279 280 281 283 284 282 285 287 286 288
300 299 298 296 293 289 287 285 284 284 283 283 283 283 283 282 281 280 279 278 279 279 279 278 278 277 279 286 287 288 281 280 280 280 280 280 282 282 283 283 283 284 281
300 299 297 292 289 287 285 284 283 283 283 282 282 282 282 281 280 279 278 278 278 278 278 277 277 276 276 285 286 285 281 281 280 281 280 282 281 285 287 284 281 280 279
294 291 290 288 286 285 285 284 282 282 281 282 282 281 281 280 279 278 277 278 277 277 277 277 276 280 276 283 286 285 282 280 280 281 282 285 283 287 287 282 279 276 277
288 288 288 285 284 284 284 282 281 280 281 281 281 281 280 279 278 277 277 277 277 276 275 275 275 275 277 278 285 286 283 281 281 281 280 281 286 286 285 284 278 278 282
287 287 285 283 283 283 283 281 280 280 280 280 280 279 278 279 280 278 278 278 276 274 274 274 274 276 277 283 284 286 286 286 281 280 280 282 285 284 283 281 283 284 282
286 286 284 282 281 281 281 279 278 279 280 279 277 277 278 278 278 278 277 276 275 274 274 274 275 277 279 277 284 285 286 285 282 282 284 284 282 281 279 281 282 281 276
284 284 283 281 279 279 280 279 279 279 278 277 276 276 276 278 276 277 277 276 275 274 275 276 277 276 278 278 279 281 280 283 282 283 279 280 280 280 279 278 278 277 277
283 283 281 280 278 279 278 279 279 278 277 276 276 276 276 276 276 276 275 276 276 278 278 277 277 277 277 279 283 283 281 282 282 281 277 275 275 274 275 275 276 276 276
283 282 280 279 278 278 278 278 278 277 276 276 276 276 276 275 275 275 275 281 282 283 283 283 281 280 283 284 284 284 284 283 282 277 274 273 274 274 274 274 275 275 276

GFSMW_sfc_thetae_021.txt.gz
Theta_e
303 305 306 308 311 313 314 311 316 312 312 309 307 307 303 301 300 299 298 297 295 294 293 293 293 292 291 289 289 289 289 289 289 288 288 289 290 288 287 289 287 288 288
302 304 306 309 313 314 314 315 311 311 311 310 304 302 300 299 298 296 294 293 293 293 293 292 291 290 289 288 287 287 287 288 289 286 285 283 285 287 289 287 288 286 287
302 303 306 309 311 312 313 312 310 309 308 305 303 300 299 297 296 294 291 291 292 292 291 290 290 289 288 287 286 286 286 285 286 287 284 280 280 283 285 285 286 287 286
303 304 306 308 309 310 310 309 309 307 305 305 302 301 298 295 295 291 289 289 290 290 291 290 289 288 288 286 286 287 285 285 284 286 288 285 284 280 279 284 285 285 286
303 304 308 310 309 308 308 307 306 305 304 303 302 299 297 295 292 289 288 288 288 289 289 288 287 287 287 285 285 284 284 284 283 283 284 283 283 282 280 279 280 284 284
303 304 305 306 304 304 305 305 305 303 302 301 299 298 295 292 290 288 287 287 287 287 287 287 286 285 285 285 285 284 283 283 282 282 282 282 280 280 279 279 279 279 282
301 303 304 304 302 302 302 303 304 300 299 298 296 295 293 292 289 288 287 286 286 285 285 285 284 284 284 284 284 283 282 282 281 281 281 282 281 282 281 280 279 278 281
302 304 305 305 302 301 301 301 300 297 296 294 292 290 289 289 288 287 286 285 285 285 284 284 284 283 284 283 283 283 282 282 281 280 280 281 281 282 281 280 279 277 278
302 304 304 302 300 298 297 298 296 293 292 290 289 287 287 287 286 285 285 284 284 286 284 283 283 283 283 283 282 281 281 281 281 281 280 280 281 281 281 282 281 279 275
302 303 302 300 298 295 293 293 294 292 289 288 287 286 285 285 284 284 283 283 283 283 283 283 282 282 282 282 281 281 282 281 281 282 280 280 281 281 281 281 281 281 279
301 301 300 299 296 294 292 291 290 289 287 286 285 285 284 284 283 283 283 283 283 283 283 282 282 282 282 282 281 281 281 281 280 280 280 280 281 280 281 281 281 280 280
301 301 299 296 295 293 291 289 288 287 286 285 284 284 283 283 282 282 282 283 282 282 282 282 282 282 282 281 281 280 280 280 280 280 280 280 283 280 280 280 280 280 281
299 298 297 296 294 292 290 288 287 285 285 285 284 283 283 282 282 282 282 283 282 282 282 282 281 281 282 281 281 280 280 280 280 280 279 280 280 279 280 280 280 281 283
299 298 296 295 293 291 289 287 285 285 285 284 283 283 282 282 282 282 282 282 282 281 281 281 281 281 281 281 281 281 281 280 281 281 280 280 280 280 280 281 282 283 281
298 298 296 294 292 289 288 286 285 285 285 284 283 283 282 282 282 282 282 282 281 280 280 280 280 280 280 282 283 283 281 280 279 279 280 281 283 287 286 284 282 281 281
299 298 297 294 291 289 287 286 285 284 285 284 283 283 283 283 282 281 281 280 280 279 279 279 279 279 281 286 288 287 282 280 279 279 280 280 283 283 287 287 287 286 282
299 298 297 295 292 289 287 285 284 284 284 283 283 283 283 282 281 281 280 279 278 278 278 278 278 277 277 286 288 288 282 279 279 279 280 280 282 283 281 285 287 287 287
299 298 297 294 291 289 286 284 284 284 283 283 282 283 282 281 280 279 278 277 277 278 277 278 277 276 278 286 287 287 280 279 279 279 279 279 279 282 283 283 283 280 280
299 298 296 292 289 287 285 284 283 283 283 282 282 282 281 280 279 277 277 277 277 277 277 276 276 275 276 284 286 285 280 279 279 280 280 281 282 285 287 284 279 279 278
295 292 290 288 286 284 285 284 282 281 281 281 281 280 280 279 277 277 277 277 277 277 276 276 276 279 276 282 286 285 281 279 280 280 282 285 283 286 287 281 279 276 276
289 288 288 286 284 284 284 282 281 280 281 281 280 279 279 277 277 277 277 277 275 275 274 275 275 275 277 278 285 286 282 281 281 280 280 280 285 286 285 284 278 278 282
286 285 284 282 282 283 283 281 280 280 280 280 279 278 277 279 279 278 277 277 275 274 274 274 275 276 276 282 284 286 286 286 280 280 280 281 285 284 283 281 283 284 282
284 284 283 281 280 281 282 280 278 279 279 278 276 276 277 277 277 277 276 276 274 273 274 274 274 276 279 277 283 285 285 285 283 281 283 283 282 281 279 281 282 281 276
283 283 282 280 278 279 279 279 278 278 277 275 275 276 277 276 276 276 277 276 274 274 275 275 276 276 277 278 279 280 280 283 282 282 278 280 279 279 279 277 277 276 276
283 283 281 279 278 278 277 278 278 277 276 275 276 276 276 275 275 275 275 276 276 277 277 276 277 276 276 278 283 282 281 281 281 280 276 274 274 274 274 275 275 276 276
281 280 279 278 277 277 277 277 277 277 276 275 276 276 275 274 275 274 274 280 282 283 283 283 281 280 282 283 283 284 284 283 282 276 273 273 273 273 273 273 274 274 275

GFSMW_sfc_thetae_024.txt.gz
Theta_e
306 304 305 306 308 310 310 315 317 313 313 310 307 307 304 302 300 299 298 297 296 294 293 292 291 290 289 287 288 287 287 287 288 286 287 287 288 288 287 287 286 287 287
301 303 304 305 309 311 311 313 312 311 312 312 304 308 302 299 297 297 295 295 293 292 292 290 289 289 288 287 286 286 285 285 286 284 284 281 283 286 287 286 287 285 286
302 302 303 306 309 310 311 311 309 309 307 304 302 299 298 296 295 294 293 293 291 291 290 289 288 288 288 286 286 285 285 284 285 286 282 279 278 281 284 285 285 284 285
301 302 302 306 309 310 311 309 308 306 304 304 302 300 299 296 295 293 292 289 289 289 289 289 288 287 287 285 286 286 284 284 282 284 286 283 283 279 278 282 284 283 285
303 302 303 308 309 309 308 306 305 304 302 302 303 300 297 295 293 291 289 287 287 288 288 287 287 286 286 285 284 283 283 283 282 282 282 281 282 280 279 278 279 283 284
301 303 304 307 307 306 305 304 304 301 301 300 298 300 296 292 290 288 287 286 286 286 286 286 285 285 285 284 284 283 282 282 281 281 280 280 279 279 278 277 279 279 281
299 301 304 306 305 305 304 304 303 300 299 300 300 297 294 292 289 287 287 285 285 284 284 284 284 283 284 284 283 282 282 281 280 280 280 281 280 281 280 279 278 278 280
299 302 305 308 306 305 304 305 302 298 298 298 294 292 291 290 289 287 286 285 284 284 283 283 283 283 283 283 282 282 282 281 280 280 280 280 281 281 280 279 278 276 276
299 302 305 307 305 304 303 302 300 296 294 292 291 289 289 288 286 285 284 284 284 285 283 282 282 282 282 282 281 281 281 280 280 280 280 279 280 281 281 280 280 278 274
299 302 305 304 302 302 298 298 298 294 290 289 288 287 285 285 284 284 283 283 283 283 282 282 282 282 282 281 281 280 281 280 280 281 280 279 280 280 280 280 280 280 278
300 302 302 299 296 295 296 293 292 289 288 287 285 285 284 284 283 283 282 282 282 282 282 282 282 282 281 281 280 280 280 280 280 280 280 280 280 279 280 280 280 279 279
300 301 298 295 295 293 292 291 290 288 286 285 284 283 283 283 282 281 281 282 281 282 282 282 281 281 281 280 279 279 280 279 279 279 279 279 282 279 279 280 279 279 280
297 295 295 294 292 291 289 289 288 285 285 285 284 283 282 282 281 281 281 282 281 281 281 281 281 280 281 280 279 280 280 280 279 279 279 279 279 278 279 279 279 280 282
297 296 295 293 291 290 288 286 284 285 284 284 283 282 281 281 281 281 281 281 281 280 280 280 280 280 280 280 280 281 281 280 280 280 279 279 279 279 279 280 280 282 280
296 295 294 291 289 287 286 285 284 284 284 283 283 282 281 282 281 281 281 281 281 280 280 280 279 279 279 282 282 283 281 280 278 279 279 280 282 286 285 283 282 281 280
298 296 294 291 289 287 285 285 284 283 284 283 282 282 282 282 281 280 280 280 280 279 279 278 278 278 280 285 288 287 281 280 279 278 279 279 283 282 287 287 287 286 283
298 296 293 291 289 287 286 284 284 283 283 283 282 282 282 281 280 280 280 279 278 278 277 277 277 276 276 285 288 288 282 280 278 278 279 280 282 283 280 284 286 287 286
298 297 294 291 288 286 285 283 284 283 283 282 282 282 281 280 280 279 278 278 277 277 276 276 276 275 277 285 287 287 280 279 278 279 278 278 279 280 283 283 284 280 280
299 297 295 291 287 285 284 284 283 283 282 281 281 281 280 279 279 278 277 276 276 276 276 276 275 274 275 284 286 285 280 279 278 279 279 279 281 285 287 284 280 279 278
297 293 290 288 285 284 284 283 282 282 281 281 280 280 280 279 277 277 276 276 276 276 275 276 275 278 275 282 285 285 280 277 280 279 280 284 283 286 287 281 279 276 276
290 289 288 286 284 284 284 282 281 280 280 280 280 279 278 277 276 276 276 275 275 274 274 275 274 275 276 278 285 286 282 280 281 279 280 281 285 286 285 284 278 278 282
287 286 284 283 283 284 283 281 280 279 280 279 278 277 277 279 279 277 276 276 274 273 273 274 275 276 276 282 283 285 286 285 280 280 280 280 285 284 283 281 283 284 282
284 284 282 281 281 282 283 280 278 279 279 277 276 276 277 277 277 277 276 275 274 273 273 274 274 276 278 277 283 285 285 285 282 281 283 284 282 281 279 280 282 281 275
282 283 282 280 278 279 280 279 279 278 277 275 275 276 276 275 275 276 277 275 274 273 274 275 276 275 277 277 278 279 279 283 281 282 279 280 279 279 278 277 277 276 275
282 283 281 279 277 278 278 278 277 277 275 275 275 275 275 275 274 275 274 275 275 276 276 276 276 276 276 278 283 282 281 281 281 281 276 274 274 273 274 274 275 275 275
281 280 279 278 277 277 276 276 276 276 275 275 276 275 275 274 274 274 274 280 281 283 283 282 281 279 282 283 283 284 284 283 282 276 273 272 273 272 273 273 273 274 274

GFSMW_sfc_thetae_027.txt.gz
Theta_e
309 311 311 311 311 313 315 318 325 329 323 318 316 313 311 308 306 302 300 299 300 297 297 297 296 296 295 294 294 295 293 293 294 293 294 295 295 297 297 294 295 294 293
307 308 309 310 310 313 315 319 324 321 321 321 317 314 311 307 301 299 299 299 298 296 296 296 295 295 294 293 293 293 293 292 292 290 290 289 292 294 293 294 293 293 293
304 307 308 309 311 313 315 318 318 317 316 311 306 303 304 302 296 296 297 296 295 294 295 295 294 294 294 293 292 292 292 290 291 291 289 287 286 287 292 292 292 291 291
303 306 308 308 310 314 316 316 314 313 310 310 308 307 306 303 298 296 294 294 294 294 294 294 294 293 293 292 291 291 291 291 289 291 290 290 289 285 284 289 290 290 288
303 305 307 309 311 314 315 314 312 310 308 310 310 310 308 301 294 293 291 291 292 293 293 293 292 292 291 291 290 290 290 290 289 289 288 288 288 287 284 282 285 287 289
303 306 308 309 311 313 313 311 310 307 307 308 309 307 301 293 292 291 290 291 291 291 291 291 291 291 290 290 290 289 289 288 288 288 287 287 285 284 284 282 283 283 286
302 304 305 307 310 311 310 309 308 304 304 304 305 302 296 294 292 291 290 290 290 290 289 290 289 289 289 289 289 289 288 288 288 287 287 287 286 286 285 284 283 282 284
301 302 305 308 310 311 309 308 306 302 303 304 301 297 295 294 292 292 290 291 290 289 289 288 289 288 288 288 288 289 288 288 288 286 286 286 286 286 286 284 282 281 282
301 302 305 308 310 310 308 307 305 302 302 299 295 293 292 293 292 290 290 290 289 288 288 288 288 288 288 287 287 287 287 287 287 287 286 286 286 286 286 286 285 282 278
299 302 305 308 309 310 307 306 303 301 298 295 294 292 291 291 290 289 288 288 288 287 287 287 287 287 287 287 286 286 286 286 286 287 286 286 286 286 286 286 285 284 282
299 302 306 307 306 304 304 301 298 295 293 292 290 290 289 288 288 288 287 287 287 287 287 287 286 286 286 286 286 285 285 285 285 286 285 285 285 285 285 285 285 284 283
299 303 302 299 300 300 298 297 295 293 291 290 289 288 287 287 287 286 286 286 286 286 286 286 285 285 285 285 284 284 285 285 284 284 284 284 284 284 284 284 283 283 284
297 296 297 298 298 297 295 294 293 289 288 288 287 287 286 286 285 285 285 286 285 285 285 285 285 284 284 284 284 284 285 285 285 284 283 283 283 283 283 283 283 284 284
295 296 295 294 294 293 292 291 288 288 287 287 287 286 285 285 285 285 285 285 285 284 284 284 284 283 283 283 284 285 286 285 285 284 284 283 283 283 283 284 284 284 284
296 295 293 292 290 290 289 288 287 286 287 286 286 285 285 285 285 284 284 284 284 284 284 283 283 283 283 283 286 287 286 285 284 284 284 284 285 287 287 285 284 284 283
297 295 293 291 289 288 288 287 285 286 287 286 285 285 285 284 284 284 283 283 283 283 283 282 282 282 282 285 288 288 286 285 284 283 284 284 284 284 286 287 287 286 284
297 294 292 291 289 288 287 287 286 286 286 285 284 284 284 283 283 283 283 282 282 282 282 281 281 280 281 286 287 288 286 284 284 283 283 283 283 285 284 285 287 287 288
297 294 293 290 288 287 286 285 286 285 285 284 284 284 283 282 282 282 282 281 281 281 281 280 280 280 281 285 287 287 285 284 284 283 283 283 283 283 284 285 285 284 283
298 295 292 289 288 286 286 285 285 285 284 284 283 283 282 281 281 281 281 281 281 280 280 280 279 279 281 284 286 286 284 283 283 283 283 283 283 285 287 285 282 281 281
295 292 290 288 286 285 286 285 284 284 283 283 282 282 282 281 280 280 280 280 280 279 279 279 280 280 280 282 285 285 284 282 282 283 283 284 284 286 287 283 281 279 279
291 290 289 287 285 286 286 284 284 283 282 282 282 281 281 280 280 280 280 279 279 279 278 279 279 280 280 281 285 285 284 283 282 282 282 283 285 286 285 284 280 279 283
287 287 286 285 285 286 285 283 281 281 281 281 280 279 280 281 281 280 279 278 278 278 278 278 279 280 280 282 283 285 285 285 282 282 282 282 285 284 283 282 282 284 282
285 285 284 283 283 285 284 280 280 281 280 279 279 279 279 280 280 280 279 278 278 277 278 278 278 279 280 280 283 284 285 285 283 283 283 284 283 281 280 280 282 281 277
283 284 283 281 280 281 281 281 280 280 279 278 278 278 278 278 278 279 279 278 278 278 278 278 278 278 279 280 281 282 283 284 283 283 282 281 280 279 279 278 278 277 277
283 283 281 280 279 280 279 280 279 279 278 278 278 278 278 278 278 278 278 279 279 279 280 279 279 278 278 280 283 283 282 282 282 282 278 276 275 275 275 275 276 276 276
281 280 280 279 278 278 278 278 278 279 278 277 278 278 277 277 277 277 277 280 281 282 282 282 281 281 282 283 283 284 284 283 282 278 274 274 274 274 274 274 274 275 276

GFSMW_sfc_thetae_030.txt.gz
Theta_e
313 315 317 320 320 321 321 322 323 327 332 334 335 335 328 325 321 317 314 308 309 304 301 304 303 303 302 300 300 299 299 298 298 298 300 301 300 300 301 301 299 298 297
309 312 314 317 318 319 321 322 324 329 332 333 331 331 327 319 314 310 311 307 302 300 301 303 302 301 300 299 298 299 298 297 297 295 296 295 297 298 299 299 298 297 297
305 308 311 314 317 318 320 321 325 330 331 330 328 320 311 305 303 302 303 302 300 299 301 300 301 301 300 298 298 298 297 296 296 295 293 293 292 292 297 296 295 296 295
305 306 308 311 314 317 322 322 326 328 329 327 319 316 315 307 309 305 300 299 298 298 298 300 300 300 299 298 296 296 296 296 294 296 293 294 292 289 289 294 294 294 292
305 305 307 309 312 318 321 323 325 325 324 321 322 321 318 314 308 302 299 296 296 299 298 299 299 298 298 297 296 295 295 295 294 294 293 292 292 291 288 287 290 292 293
305 307 308 311 311 317 321 322 322 322 321 322 321 322 317 306 300 296 294 293 295 298 298 298 298 297 296 295 295 294 294 294 294 293 292 290 289 288 288 287 288 288 290
304 304 307 310 312 314 319 320 320 318 319 320 320 319 310 308 302 298 294 293 295 297 296 296 296 295 295 294 294 294 294 293 293 292 291 291 290 290 289 287 287 286 289
308 305 306 309 312 315 318 319 318 316 317 318 317 310 305 305 299 294 293 295 296 296 296 295 295 294 293 293 293 294 294 293 292 291 291 290 290 290 289 287 286 284 286
307 306 307 310 312 315 318 318 317 315 315 315 309 302 298 297 294 295 296 294 295 294 294 294 293 293 293 292 292 293 292 291 291 291 291 290 290 290 290 289 288 285 281
307 307 307 310 313 316 318 319 317 313 313 311 308 300 296 294 295 293 292 295 294 294 293 293 292 292 292 291 292 292 291 290 291 290 290 289 290 289 289 289 288 287 285
306 307 307 311 314 316 317 315 313 311 308 306 301 298 294 292 295 294 294 294 294 293 292 292 291 291 290 291 291 290 289 288 289 290 289 288 289 288 288 288 287 286 286
305 306 308 311 313 314 313 312 309 307 304 299 298 293 292 292 294 292 294 293 292 292 292 291 290 290 289 289 289 288 289 288 288 288 288 287 287 287 287 287 286 285 286
304 304 304 306 309 310 309 308 306 301 297 296 292 291 291 293 293 293 292 292 291 291 290 290 289 288 288 288 288 288 288 289 288 288 287 287 286 285 286 286 286 286 286
303 303 303 305 307 308 306 303 297 295 294 291 291 291 293 293 292 291 291 291 291 290 289 289 288 287 287 287 287 288 289 289 288 288 287 287 286 285 286 286 286 286 285
302 299 301 302 303 301 297 294 291 291 291 290 290 292 291 291 290 290 290 289 289 289 289 288 287 287 287 286 288 289 289 288 288 288 287 287 287 287 287 286 285 285 284
303 300 299 300 298 295 291 290 288 288 291 291 289 290 290 289 289 289 288 289 288 288 287 287 286 286 285 285 288 289 288 288 287 286 286 286 287 286 287 287 287 286 284
302 301 299 298 295 292 290 288 289 290 290 289 289 289 289 288 288 288 288 288 287 287 287 286 285 285 285 285 287 288 288 287 286 286 286 285 286 286 285 286 287 288 288
303 301 299 294 292 291 290 289 290 289 290 288 288 288 288 287 287 287 287 287 287 287 286 285 285 285 285 285 286 287 287 286 286 286 286 285 285 285 285 285 286 286 285
303 300 297 291 291 291 290 290 289 289 288 288 287 287 287 286 286 286 286 286 286 285 285 285 284 284 285 284 285 286 286 285 285 286 286 285 285 286 287 285 284 283 283
299 297 295 294 293 291 292 290 289 288 287 287 287 287 287 286 286 286 286 285 285 284 285 284 284 283 283 284 285 286 285 284 284 285 285 286 285 286 287 284 282 281 281
294 293 293 291 290 290 291 289 288 286 287 286 286 286 286 286 286 285 285 285 284 284 284 283 284 283 283 284 284 285 285 284 283 284 283 284 286 286 286 285 282 281 283
291 291 289 287 288 289 289 288 286 285 286 285 285 284 285 284 285 285 284 284 284 283 283 283 283 284 284 283 284 285 285 285 283 283 284 284 285 285 284 283 283 284 283
290 291 289 288 289 290 288 284 284 285 284 284 284 284 284 285 285 285 284 284 283 282 282 282 281 282 283 283 283 284 285 285 284 284 285 285 284 283 281 281 282 282 280
287 288 288 287 286 287 285 284 284 284 284 283 284 284 284 283 284 284 284 283 283 282 282 281 281 281 281 282 283 283 284 285 284 284 284 283 282 281 281 280 280 280 280
287 287 286 285 284 285 284 284 284 285 284 284 284 284 284 283 283 283 283 283 283 282 281 281 281 280 280 281 283 283 283 284 283 283 281 279 278 278 278 278 279 279 279
285 285 284 284 283 283 283 283 285 285 284 283 283 283 283 283 283 283 282 281 281 282 281 281 281 281 282 283 283 283 284 284 283 279 277 277 277 276 276 276 277 278 278

GFSMW_sfc_thetae_033.txt.gz
Theta_e
313 315 317 319 319 321 322 323 324 325 327 331 335 337 336 335 335 337 331 325 319 313 311 308 306 308 306 305 304 302 301 300 300 301 302 303 301 300 302 303 301 301 300
309 312 314 316 318 319 321 322 323 325 328 332 336 338 334 330 328 325 323 318 312 309 306 305 304 306 304 303 302 302 300 299 299 296 299 297 298 299 300 301 298 298 299
306 308 310 314 318 318 321 322 323 326 329 333 335 336 323 315 311 311 311 309 308 307 306 305 305 305 305 302 302 301 300 298 298 297 294 294 294 293 299 298 298 297 297
306 307 309 311 314 318 323 323 324 326 331 334 332 329 318 312 311 308 307 306 303 303 303 303 302 303 303 301 300 299 299 298 296 297 294 294 293 290 289 296 296 297 294
306 306 308 310 312 316 322 324 325 326 331 332 331 325 318 317 311 306 302 302 301 300 301 302 302 302 302 299 298 298 297 296 295 294 294 293 293 292 290 287 291 293 294
305 306 308 309 311 314 318 324 324 326 329 330 325 322 323 315 306 302 299 300 300 301 301 300 302 301 299 298 298 297 296 295 294 293 292 291 289 289 288 287 288 288 291
306 308 307 307 310 313 315 322 323 324 327 326 324 323 322 311 308 303 301 298 299 299 299 300 299 298 299 297 297 296 295 294 293 293 292 292 291 290 289 288 287 286 289
307 309 310 310 310 314 315 319 321 323 323 323 324 325 316 311 306 304 301 299 299 299 297 299 298 296 296 295 295 295 294 294 293 293 292 291 291 291 290 288 287 284 286
307 308 310 311 308 311 315 318 321 321 321 323 323 321 312 308 303 303 301 297 298 298 297 297 296 295 295 294 294 293 293 292 292 292 293 291 291 291 291 290 289 286 281
306 308 309 310 310 312 315 319 320 320 319 321 320 314 307 300 299 299 297 295 296 297 296 295 294 294 293 293 293 292 292 291 291 291 290 290 290 290 290 289 289 288 285
305 306 309 310 311 313 316 318 319 317 318 317 309 303 299 298 296 296 293 296 294 294 295 294 293 293 292 292 291 291 290 289 290 291 290 289 290 289 288 288 288 286 286
305 307 308 311 312 315 317 318 318 315 316 311 304 299 296 294 295 293 295 293 293 295 294 293 292 292 291 290 290 289 289 289 289 289 289 288 288 288 287 287 286 286 286
305 306 307 308 312 314 315 315 314 312 309 304 300 296 294 293 293 292 295 293 293 293 292 292 291 290 290 289 289 289 289 289 289 289 288 288 287 286 286 286 285 286 287
303 305 305 307 309 311 312 311 309 305 303 299 296 294 293 293 291 293 293 293 292 291 291 291 290 289 288 288 288 289 289 290 289 289 289 288 287 286 286 285 285 286 284
303 304 304 305 306 308 308 304 300 299 298 296 294 293 292 293 292 292 292 291 291 290 290 289 289 288 288 287 288 289 289 289 288 288 288 288 288 288 288 286 285 285 283
301 303 302 303 304 304 300 297 295 294 293 293 292 291 291 291 291 290 290 289 289 289 289 288 288 288 286 286 287 288 287 287 287 286 286 287 288 287 288 289 288 287 284
303 303 300 301 300 295 293 291 291 292 290 290 290 289 290 289 288 289 289 289 288 288 288 287 287 286 286 285 287 288 287 286 287 286 286 286 286 287 285 286 288 287 288
303 303 300 297 294 291 290 291 291 290 289 288 288 288 288 287 289 289 288 288 288 288 287 286 286 285 286 284 286 287 286 286 286 286 286 285 285 286 285 285 284 285 285
304 302 298 292 290 289 290 290 289 289 289 287 288 288 288 288 287 287 287 287 287 286 286 285 285 285 285 284 285 286 285 285 285 286 286 286 285 287 288 284 283 283 282
300 293 291 289 289 290 290 289 289 288 288 288 289 289 289 288 287 287 287 287 287 285 285 284 285 284 283 285 285 285 284 283 284 285 285 287 286 287 287 284 282 280 280
293 292 292 290 291 292 292 291 291 289 289 289 288 287 288 287 287 286 286 286 285 285 284 284 285 284 284 284 285 285 284 283 283 283 283 284 287 287 287 286 282 281 283
293 293 292 292 293 293 292 289 287 287 287 287 286 286 286 286 286 286 286 285 285 284 284 284 284 284 284 285 285 285 285 286 283 282 283 284 286 286 286 284 284 284 284
289 290 289 289 289 290 288 285 285 286 285 284 284 285 285 286 286 286 285 284 284 283 283 282 282 282 283 283 285 285 286 286 284 284 285 286 285 285 282 283 283 283 280
291 291 290 289 287 286 285 284 284 285 284 284 285 285 284 284 285 285 285 284 283 282 282 281 281 281 282 282 283 283 283 284 284 284 283 283 283 283 282 280 280 280 279
290 290 288 287 285 284 283 284 284 285 285 284 284 284 285 284 284 284 284 283 283 282 281 281 280 279 279 281 283 283 282 282 284 283 281 279 278 278 278 278 278 279 279
288 287 286 285 284 283 283 285 287 287 285 284 284 284 284 284 283 283 282 282 282 282 282 282 281 281 282 283 283 283 284 284 284 280 277 277 277 276 276 276 276 277 278

GFSMW_sfc_thetae_036.txt.gz
Theta_e
309 309 311 312 311 311 312 318 317 317 318 320 330 333 332 333 334 334 333 325 319 315 308 305 303 302 300 299 297 296 295 293 293 293 294 295 294 294 295 295 294 294 294
305 308 308 310 311 311 312 313 316 318 320 321 325 330 328 326 324 326 325 318 312 308 304 302 301 301 301 299 296 296 294 293 292 289 290 289 291 292 293 294 292 291 291
303 305 306 307 310 312 313 313 315 316 320 322 327 323 316 314 312 315 313 311 309 307 304 302 302 301 300 298 297 295 294 292 291 290 288 286 286 286 291 291 291 290 290
302 304 304 304 305 309 313 314 315 316 319 324 327 324 323 316 309 308 309 307 308 306 304 304 304 301 299 296 295 296 293 292 290 291 292 288 287 284 283 288 289 290 289
300 300 301 303 305 305 309 314 315 315 319 325 328 323 317 310 307 305 303 303 304 303 302 302 301 300 299 295 293 292 291 290 290 289 288 287 287 286 284 282 284 287 288
298 300 302 303 303 304 306 311 314 315 321 325 326 319 314 307 304 301 300 300 300 302 301 302 301 298 296 294 293 292 291 289 289 288 287 286 285 283 282 281 281 282 285
297 300 302 305 303 303 305 307 314 314 321 323 322 317 315 307 303 301 300 298 298 299 300 299 297 295 295 294 293 291 290 289 288 288 287 287 286 286 285 283 282 281 283
299 302 304 305 306 304 305 306 313 315 320 322 319 317 309 306 303 302 300 299 299 299 299 297 295 295 293 292 292 291 290 289 288 287 287 287 286 286 285 284 282 280 280
301 301 303 305 305 304 306 307 312 315 319 319 318 315 308 306 302 300 300 299 298 299 298 296 292 293 291 291 290 289 288 288 287 287 286 286 286 286 286 285 284 281 278
300 301 302 304 307 305 305 308 313 315 316 317 316 309 306 302 301 300 298 297 297 296 295 292 291 290 290 289 289 288 288 287 286 287 285 285 286 285 284 284 284 283 280
301 301 302 304 307 305 305 309 313 314 316 315 310 301 298 299 298 297 296 296 295 295 293 292 290 289 289 288 288 287 287 286 286 286 286 285 285 284 283 283 283 282 281
301 302 303 304 305 307 307 310 313 315 311 304 298 295 295 296 294 295 294 294 295 293 291 292 291 290 288 287 286 286 286 286 285 285 285 285 287 283 283 282 281 281 281
299 301 302 303 303 308 311 313 314 312 303 297 294 294 294 294 294 292 294 293 293 293 291 291 288 288 287 286 286 286 286 286 286 285 284 284 283 282 282 281 281 281 284
298 301 301 301 303 309 310 310 304 301 297 294 293 292 293 293 292 292 293 292 292 290 288 289 288 287 287 286 286 287 287 286 286 286 285 284 283 282 281 282 281 283 281
296 301 300 300 302 306 305 300 299 296 293 292 292 292 291 292 292 291 291 290 290 289 288 287 287 287 287 287 286 287 286 285 284 284 285 284 286 289 288 285 281 281 280
297 300 300 300 303 300 296 295 293 292 292 291 291 291 291 291 290 290 289 289 288 287 286 286 287 286 286 288 288 288 285 284 283 282 283 283 287 286 289 289 289 287 283
299 301 300 301 295 294 293 290 289 290 291 290 290 290 289 289 288 288 288 287 286 286 285 284 285 284 285 287 287 288 285 283 282 282 282 282 285 285 282 286 288 287 288
299 301 299 293 291 291 290 290 290 290 289 288 288 288 288 288 288 288 287 287 285 284 284 283 284 284 285 286 286 287 283 282 282 282 282 281 281 282 284 282 278 281 282
302 298 293 290 289 290 290 289 289 289 289 288 288 288 289 288 288 287 285 284 284 284 283 284 283 282 282 285 285 285 282 281 280 282 281 282 281 286 288 283 280 281 281
292 289 289 289 289 289 290 289 289 289 289 289 289 289 289 288 285 284 283 284 284 283 283 282 281 284 279 285 285 285 281 279 279 280 281 286 285 288 288 284 282 279 279
289 289 289 289 289 291 291 289 289 288 289 289 289 287 286 284 284 283 284 284 283 282 281 280 280 280 281 280 285 286 281 280 280 280 279 280 286 287 288 287 281 280 282
292 292 290 291 292 293 291 289 288 289 288 286 285 284 284 285 285 283 282 281 280 280 279 279 278 279 279 284 284 286 286 285 280 279 279 280 286 287 286 284 284 285 284
291 292 292 291 292 291 288 284 284 284 284 284 284 284 285 284 283 281 280 279 280 278 277 277 276 277 279 278 285 285 286 285 282 281 284 286 285 285 282 283 284 283 277
287 287 286 284 283 284 284 283 284 285 284 283 283 282 281 281 281 281 280 279 278 277 277 277 276 276 277 277 278 280 279 283 282 283 279 283 282 282 281 279 278 277 277
287 286 283 282 281 283 283 284 285 285 283 282 281 281 281 280 279 279 279 278 279 279 277 276 276 275 275 277 283 282 280 280 282 283 278 276 275 275 276 276 276 277 277
285 283 282 281 282 283 284 285 285 284 282 280 279 279 278 278 278 277 277 283 282 282 282 281 280 278 281 283 283 284 284 285 284 278 274 273 274 274 275 275 275 276 276

GFSMW_sfc_thetae_039.txt.gz
Theta_e
306 306 306 307 306 307 308 313 317 331 334 335 334 333 328 332 333 333 330 324 319 314 311 307 303 301 299 297 296 294 293 291 291 292 292 293 292 293 293 293 292 293 292
302 303 305 305 307 309 308 307 313 323 330 333 334 332 327 326 330 331 327 323 316 312 309 305 301 300 298 296 296 296 295 291 290 289 290 288 290 291 291 292 292 289 290
301 301 301 302 303 306 308 309 310 314 319 321 323 318 318 317 317 317 317 314 311 310 306 302 300 298 297 296 295 295 294 293 291 288 289 286 286 285 289 290 289 288 288
298 299 300 300 300 302 306 309 310 312 315 316 323 322 323 322 315 310 309 308 306 307 307 301 300 300 299 298 296 294 293 293 290 290 291 287 286 284 283 287 287 287 288
298 300 299 301 302 301 303 307 310 311 314 317 323 324 323 314 309 307 306 305 307 307 305 303 304 301 300 298 296 292 292 292 291 290 288 286 286 285 283 282 283 285 286
295 297 299 301 300 300 300 305 309 309 312 317 323 324 314 309 307 304 303 303 304 303 304 302 302 300 298 297 296 292 290 289 289 288 287 286 284 283 282 280 280 281 283
297 299 300 302 303 303 303 302 304 309 312 317 323 319 313 311 309 304 303 301 299 301 301 301 300 300 298 297 295 292 289 289 288 287 287 286 285 285 284 282 281 280 282
297 300 301 302 302 303 304 303 302 306 312 319 318 316 310 309 307 305 302 301 301 300 300 299 298 297 297 295 291 292 289 288 287 286 287 286 286 286 285 284 281 279 279
298 299 300 301 302 303 303 303 303 308 315 319 317 310 308 306 304 302 302 300 300 299 298 297 296 296 294 293 292 288 287 287 287 286 286 286 286 285 285 284 283 280 277
297 299 300 301 303 303 305 303 303 309 316 317 312 307 306 303 302 300 298 298 298 298 296 295 295 295 293 291 290 287 286 286 285 286 285 284 285 284 284 283 283 282 279
299 299 300 302 303 303 304 304 305 311 313 309 307 305 302 300 299 299 297 298 298 296 295 294 293 292 291 289 288 286 286 285 285 285 285 285 284 283 283 282 282 281 279
298 299 300 302 302 302 305 307 307 311 309 305 303 300 299 298 296 297 296 297 294 294 293 293 291 291 289 288 287 287 285 285 285 285 284 284 286 283 282 281 281 280 280
297 298 300 301 301 303 308 309 307 300 300 298 296 297 296 295 294 293 294 295 294 293 293 293 291 289 288 286 286 286 286 286 285 285 285 284 284 282 281 280 280 280 283
298 299 299 301 302 305 302 301 298 297 297 296 295 293 293 292 293 293 294 293 294 292 291 290 289 288 288 287 287 287 287 286 286 286 286 284 283 282 281 281 280 281 279
297 299 299 299 300 299 298 296 297 297 296 295 294 292 292 292 293 292 292 292 291 290 289 289 288 287 287 287 287 287 286 285 285 285 284 284 285 289 287 284 281 280 279
298 298 298 298 293 292 294 294 295 295 294 293 291 292 291 291 290 290 290 289 289 289 288 287 287 286 287 290 290 288 286 285 284 282 282 282 286 285 288 289 289 287 281
297 298 297 292 291 292 292 291 292 293 291 290 290 289 290 289 289 289 289 288 287 287 286 286 286 284 286 289 288 288 285 283 281 281 280 281 284 285 281 285 288 287 288
297 298 291 289 289 290 290 290 290 289 289 288 288 289 289 288 289 288 287 287 287 286 285 284 284 284 286 288 287 287 281 280 280 280 280 279 279 281 284 282 280 281 281
296 290 289 288 289 289 289 288 288 288 288 288 289 289 289 289 289 288 287 287 286 284 283 283 283 282 283 287 286 284 281 280 279 281 281 282 280 285 288 283 279 279 280
289 288 289 289 289 289 290 289 288 288 288 289 289 290 290 289 288 287 285 284 283 282 283 283 281 284 279 286 285 284 280 278 279 279 280 285 284 287 288 284 281 279 278
288 289 289 288 289 290 291 289 289 287 290 290 290 289 288 286 283 283 283 282 282 282 280 279 279 279 280 279 285 286 280 280 279 279 279 280 286 287 287 287 280 280 282
290 291 289 290 291 291 290 288 287 289 289 288 286 286 285 286 285 283 282 280 279 278 277 277 277 277 278 284 285 286 286 285 280 279 278 279 286 286 285 283 284 285 283
291 292 291 290 289 290 290 287 286 286 286 285 284 284 284 284 282 280 279 278 278 277 276 275 275 276 277 277 284 285 285 284 281 280 283 286 285 283 280 282 283 282 276
289 291 289 287 285 286 286 285 284 284 284 283 283 283 281 280 280 280 279 277 276 276 275 275 274 274 275 276 277 279 278 282 281 282 279 281 281 280 280 278 278 277 276
285 285 283 282 282 283 283 284 285 285 283 282 281 280 280 279 278 278 277 277 277 277 275 275 276 275 274 277 282 282 281 280 283 282 277 275 275 275 275 275 276 276 276
283 282 282 282 282 283 283 284 285 284 283 279 279 278 277 277 276 276 276 283 283 283 282 282 279 278 281 283 283 284 284 284 283 276 274 273 274 273 274 274 274 275 275

GFSMW_sfc_thetae_042.txt.gz
Theta_e
304 304 304 304 303 304 305 308 323 330 335 333 332 330 330 330 329 330 328 325 321 317 314 310 304 301 300 297 295 293 292 291 290 291 292 293 292 292 292 292 291 292 291
300 301 303 304 304 305 304 304 310 325 332 335 335 334 331 328 329 330 328 325 319 316 315 308 304 300 297 295 295 295 292 291 289 290 290 289 291 292 291 292 291 289 290
300 301 299 300 302 302 305 307 306 313 328 334 329 321 321 319 319 321 323 323 318 317 315 307 305 299 299 296 295 294 294 291 289 289 290 288 288 286 289 289 288 288 288
298 299 300 299 299 301 302 305 307 309 316 322 325 327 325 322 323 324 319 313 313 315 310 306 303 303 299 295 295 296 296 292 289 289 290 287 287 285 284 287 288 287 287
295 297 297 298 299 299 299 301 304 307 310 314 324 325 327 327 313 310 311 309 310 312 310 305 302 302 300 300 299 298 296 293 291 290 287 286 286 285 284 282 284 286 286
294 295 297 300 301 300 300 300 302 304 307 310 316 323 325 311 310 308 306 306 306 307 306 305 303 302 301 300 298 297 296 294 291 289 286 286 285 284 283 281 281 281 284
294 297 299 301 302 302 302 303 302 303 304 307 312 320 320 314 313 310 308 304 303 302 302 303 301 299 299 298 296 294 293 292 290 288 287 285 285 285 283 282 281 280 282
293 298 298 300 300 300 301 303 303 303 303 305 313 318 318 316 313 311 309 307 305 303 302 301 301 299 298 296 296 295 294 292 288 288 287 285 285 285 284 283 281 279 279
296 297 299 300 300 301 302 303 304 303 302 305 316 315 313 312 308 305 305 304 303 302 301 301 299 298 296 295 294 293 292 290 289 287 285 285 285 284 284 284 283 280 277
297 298 299 300 301 302 302 302 304 303 302 310 314 309 309 309 306 304 302 303 301 301 300 298 296 294 294 294 293 292 289 288 287 287 284 284 284 283 283 283 282 281 279
296 298 299 300 302 301 301 302 305 305 307 309 306 305 304 303 303 303 301 300 301 300 299 297 294 293 292 292 291 289 288 287 286 285 284 284 284 283 282 282 281 280 279
302 303 300 301 301 301 301 304 307 305 308 305 304 301 300 301 300 299 299 299 297 296 296 294 293 292 292 291 289 288 287 286 286 286 285 284 286 282 282 281 280 280 279
300 301 298 301 301 302 303 304 303 302 301 300 299 298 298 299 298 298 297 294 294 293 293 292 290 289 289 288 287 287 287 286 286 286 286 285 284 284 282 281 280 279 282
299 299 299 301 301 301 298 296 294 295 296 297 297 296 297 297 297 296 294 293 293 292 292 291 290 289 288 288 288 288 288 287 287 287 286 285 284 282 282 281 281 281 279
298 299 300 299 297 294 293 293 293 294 297 296 294 293 292 294 293 293 292 292 291 291 290 289 288 288 289 289 288 289 287 286 285 285 285 284 285 288 287 284 281 280 279
299 299 299 295 292 290 290 292 293 295 298 295 293 293 292 292 290 289 289 289 289 289 289 288 288 288 289 292 291 288 286 285 284 283 282 283 285 285 289 289 289 287 281
295 299 297 291 289 289 289 290 292 293 291 291 291 290 289 289 289 290 290 289 288 288 287 287 287 287 288 290 290 289 285 283 281 280 280 280 283 283 281 285 288 287 288
295 297 289 286 286 288 289 290 290 289 289 288 288 289 289 289 289 289 288 287 288 287 287 287 286 286 287 290 289 287 281 280 279 280 280 279 279 280 283 282 279 281 281
288 287 287 286 287 288 289 288 288 289 288 288 289 290 290 289 289 288 287 288 287 286 284 285 284 284 286 288 287 284 280 279 279 280 279 281 280 285 287 283 279 279 280
289 288 289 289 289 289 289 288 288 288 288 289 290 291 291 290 288 288 287 286 285 284 283 283 282 285 280 287 286 284 280 277 279 278 280 284 283 286 287 284 280 278 278
289 289 289 289 290 291 290 289 288 287 289 291 290 289 290 289 288 286 285 283 282 282 280 279 278 278 278 278 286 286 280 280 279 279 278 279 285 287 287 286 279 279 282
290 290 289 289 290 291 290 287 285 287 288 287 286 286 286 287 285 283 282 281 280 278 276 276 276 276 276 285 285 286 285 285 279 279 278 279 285 286 285 282 283 284 283
290 291 289 289 290 290 289 286 285 287 287 286 285 284 283 282 282 280 278 277 277 276 275 275 275 275 277 276 283 284 285 284 281 280 282 285 284 282 280 281 282 282 276
291 291 289 287 286 288 288 287 287 287 285 283 282 282 280 279 278 278 278 276 276 275 275 275 274 274 275 276 277 279 278 282 282 282 278 280 280 280 279 278 277 276 276
286 284 284 284 284 285 285 285 285 285 283 281 280 279 279 277 277 277 277 277 276 276 274 275 276 274 274 277 282 282 280 280 282 278 275 274 274 274 274 275 275 275 275
283 282 282 282 282 283 283 284 284 284 281 278 278 278 277 276 276 276 276 284 283 284 283 282 279 278 281 283 283 284 284 283 282 275 273 272 272 272 273 273 273 274 275

GFSMW_sfc_thetae_045.txt.gz
Theta_e
304 302 303 304 303 303 303 305 318 329 335 334 333 332 330 331 329 329 329 326 322 319 318 314 308 305 302 299 296 293 292 290 290 291 291 292 291 291 291 291 291 292 291
299 300 301 302 303 304 304 302 307 324 332 334 334 333 332 332 332 330 328 326 322 320 317 313 308 305 299 296 294 294 292 290 290 290 290 289 289 290 290 290 291 290 291
299 301 299 299 301 301 303 305 304 309 327 333 332 322 323 320 320 321 326 324 322 319 319 313 309 304 302 299 296 295 294 291 288 288 291 287 288 286 287 288 287 287 288
296 298 298 297 297 299 301 303 305 306 311 327 330 328 326 324 326 328 327 320 319 318 318 315 309 306 305 300 301 300 297 294 290 291 290 287 288 287 284 286 286 285 286
293 295 296 297 298 298 298 299 301 303 306 314 327 328 327 326 324 324 324 316 313 318 315 312 310 307 305 305 303 301 299 296 293 293 290 288 287 286 284 282 283 285 285
293 294 295 297 299 299 299 298 299 300 303 305 314 325 327 317 313 311 317 313 310 312 311 310 308 307 305 303 302 301 299 297 296 292 290 289 288 284 283 281 281 281 283
292 294 297 300 301 300 301 302 302 302 303 303 305 316 323 316 316 315 316 311 309 306 307 306 304 304 305 302 300 298 297 295 294 292 289 289 287 284 285 282 280 280 281
293 296 298 299 299 299 300 301 302 303 303 303 302 308 315 319 318 315 314 313 313 313 305 306 304 303 302 300 298 297 295 294 292 289 289 288 287 287 286 283 281 278 278
296 297 299 299 299 299 300 301 301 303 304 304 302 307 314 316 315 313 312 312 309 305 305 303 301 300 299 297 295 294 293 292 292 288 288 287 287 286 286 284 283 281 277
295 296 297 298 299 300 301 300 301 303 305 304 303 308 313 314 314 308 306 304 303 304 302 301 300 297 296 294 294 292 291 290 289 289 287 287 286 285 285 282 282 281 280
298 299 296 298 299 300 301 300 301 304 305 305 306 305 304 303 302 302 301 301 302 300 300 299 297 294 293 292 291 289 289 288 287 287 286 286 286 285 282 282 282 282 280
302 301 301 301 301 299 301 302 305 304 304 305 301 300 300 300 299 299 300 300 300 301 298 297 294 293 291 291 289 289 289 288 288 287 286 286 287 285 284 284 283 281 280
300 299 300 299 297 300 302 300 296 296 298 299 298 297 297 298 299 300 301 299 298 298 296 294 292 291 290 289 289 288 287 287 287 287 286 286 286 286 285 283 281 280 282
301 300 299 298 301 299 295 292 292 294 296 296 296 296 297 299 299 297 298 297 295 294 291 291 290 289 289 289 289 289 289 289 288 288 287 287 286 284 283 282 281 282 280
297 299 299 296 296 293 291 292 293 294 293 294 295 294 296 296 295 294 294 292 292 290 290 289 289 289 290 290 290 290 289 288 287 286 285 285 286 288 288 285 282 281 280
292 292 298 295 291 287 288 290 290 292 295 294 293 292 292 292 292 292 290 289 289 289 289 288 289 290 292 294 292 288 286 285 284 283 283 283 284 284 287 288 289 287 280
289 292 297 291 288 287 288 287 289 291 290 290 290 290 290 290 291 290 289 289 288 288 287 288 289 289 291 293 292 289 285 284 282 281 281 281 283 283 280 284 287 286 288
287 288 288 286 285 286 287 290 290 290 289 289 289 290 290 289 290 289 289 288 288 287 287 288 288 288 290 291 291 288 282 281 280 280 279 278 279 280 283 281 279 280 281
288 287 287 286 288 288 289 289 289 289 289 289 289 289 289 289 289 288 288 288 287 287 285 285 285 285 287 289 289 284 281 280 279 279 279 280 280 284 287 282 279 280 280
289 288 289 289 289 289 290 289 288 289 289 290 290 291 291 290 288 288 286 287 287 285 286 285 284 286 283 288 287 284 280 277 279 278 280 283 283 286 287 283 280 276 277
289 290 290 289 290 290 290 288 287 287 290 290 289 289 289 288 288 287 287 286 284 283 281 280 279 278 280 279 286 287 280 279 280 279 278 279 285 286 287 286 278 278 281
290 290 289 289 290 290 288 286 285 287 288 288 288 288 288 288 286 284 282 281 280 279 277 276 275 276 276 285 285 285 285 284 280 279 278 279 285 285 284 282 283 284 282
290 291 290 289 290 289 288 286 286 288 287 286 285 284 283 282 281 279 277 276 275 275 274 275 274 275 277 276 283 284 284 284 281 280 283 284 283 282 279 281 282 282 275
290 290 289 288 287 288 288 287 287 287 285 283 281 280 278 277 277 277 278 276 275 275 275 275 274 273 275 276 277 279 278 282 281 281 277 279 279 279 279 277 277 276 276
287 287 286 287 286 287 287 287 285 283 280 279 279 277 277 276 276 277 276 275 274 275 274 274 275 274 274 277 282 282 280 279 281 278 275 274 273 273 273 274 275 275 275
282 282 283 283 283 283 283 283 283 282 280 278 277 277 276 276 276 276 276 285 284 284 283 282 279 278 281 283 283 283 283 282 282 275 272 271 272 271 272 272 273 273 274

GFSMW_sfc_thetae_048.txt.gz
Theta_e
303 302 302 303 303 303 302 303 307 325 336 337 335 333 331 332 330 330 329 324 322 322 321 320 316 312 309 304 298 294 292 291 291 291 291 291 290 289 290 290 291 291 291
299 299 300 300 301 302 302 301 304 312 327 335 335 334 334 333 332 330 329 327 322 321 320 319 315 311 306 299 297 295 292 291 291 291 290 288 289 289 289 289 290 289 290
296 298 297 298 298 299 301 303 302 306 320 331 333 323 324 323 328 325 327 327 323 321 321 317 315 310 307 302 299 297 297 293 289 289 292 287 288 286 286 287 287 286 287
292 294 295 296 296 298 299 301 303 303 308 324 329 328 328 326 327 328 328 326 323 320 320 318 315 311 308 306 302 302 303 304 296 291 290 287 290 290 285 285 286 285 286
291 293 293 294 296 297 297 297 299 302 305 310 328 327 326 327 322 325 323 322 319 321 320 318 314 309 306 306 304 302 301 302 298 296 293 291 288 286 287 284 285 285 285
292 294 297 299 300 300 300 299 297 298 300 304 312 324 325 325 316 317 322 317 315 317 318 317 313 310 306 304 306 304 301 300 298 296 294 292 289 287 286 285 284 283 283
294 296 297 298 299 299 299 299 301 301 301 301 302 310 322 323 317 319 321 318 314 314 314 313 311 308 307 306 305 303 302 300 297 295 294 292 290 288 287 285 283 281 283
294 295 297 297 298 299 299 299 299 300 302 302 301 302 307 315 318 318 319 318 315 315 315 313 310 307 306 304 302 302 300 297 295 293 292 290 289 288 287 286 285 282 280
293 295 297 298 297 298 299 299 299 300 301 302 302 301 302 307 314 316 317 317 314 313 311 309 307 308 305 302 301 298 294 293 292 290 289 288 288 288 287 287 286 283 278
295 296 298 298 297 299 301 300 300 300 301 303 304 304 303 307 311 311 310 308 305 305 305 305 305 303 301 300 298 294 292 291 290 289 288 288 287 287 286 286 285 284 282
299 299 299 299 300 301 300 299 299 301 303 303 304 304 303 305 304 304 301 300 301 301 302 300 300 299 297 296 293 291 290 289 288 288 288 287 287 286 285 285 284 284 283
300 298 297 298 300 297 297 299 297 298 298 299 300 300 303 303 302 299 298 300 299 300 300 299 297 296 294 292 291 289 289 288 287 288 288 287 288 286 285 285 285 284 283
298 298 298 298 297 296 294 294 294 294 296 298 297 298 300 301 301 301 301 300 300 299 298 296 294 292 292 291 290 290 289 288 288 288 287 287 287 287 287 285 284 283 283
296 296 294 296 295 294 294 293 294 294 295 295 296 297 299 299 299 299 298 297 296 295 293 293 291 291 290 289 289 289 289 289 289 289 288 287 286 286 285 285 284 283 281
291 290 290 295 293 291 291 290 291 292 292 291 292 294 295 295 295 294 293 292 292 291 291 290 290 290 290 291 290 291 290 289 287 287 287 286 286 288 287 286 283 282 281
289 289 290 293 290 288 287 287 287 289 291 291 290 291 291 291 291 291 291 291 291 291 291 291 291 291 293 295 294 289 287 286 286 285 284 283 285 286 286 287 288 286 280
288 287 287 287 288 286 287 286 289 291 290 290 290 290 290 290 289 289 289 289 290 290 290 290 291 291 292 294 293 291 286 285 283 282 282 282 283 283 281 284 287 286 288
287 286 286 286 284 286 289 290 291 290 290 290 290 290 290 290 289 289 288 288 289 289 288 289 289 290 292 293 290 287 283 282 281 281 280 280 279 280 282 281 279 281 281
288 288 288 286 287 289 290 290 289 290 290 289 289 290 290 289 288 286 286 285 287 286 286 286 286 287 288 291 288 283 282 281 280 281 279 280 279 283 286 282 279 280 280
289 289 289 290 289 289 290 290 289 289 289 290 290 290 290 289 288 287 287 287 287 285 286 285 285 288 286 289 288 283 280 277 279 278 280 283 282 286 287 284 281 276 276
290 290 290 289 289 290 289 287 287 288 289 290 290 289 289 287 286 285 286 285 284 283 281 280 279 280 281 283 288 286 280 280 280 279 278 279 285 286 286 286 277 278 280
289 290 289 289 290 289 288 287 286 288 289 288 288 287 288 289 287 284 283 282 281 278 276 275 276 276 276 285 285 285 285 284 280 279 278 279 285 284 284 281 282 283 281
290 291 290 289 289 289 289 287 287 288 287 286 284 284 284 283 281 279 277 276 275 274 274 275 274 275 277 276 284 284 284 284 281 281 282 283 282 281 278 280 281 280 275
290 290 289 288 287 288 288 287 288 287 284 281 279 278 277 276 276 276 277 275 274 274 274 274 273 273 275 276 277 279 278 282 281 280 276 279 278 278 277 276 276 275 275
288 289 288 287 287 288 287 286 285 282 279 278 278 276 276 276 276 276 275 274 273 275 273 273 275 274 274 278 282 282 280 279 280 277 274 273 272 272 273 273 274 274 274
285 285 285 286 286 286 284 282 281 280 279 277 277 277 276 276 276 276 276 285 284 284 283 282 279 278 282 283 283 282 282 281 281 274 271 270 270 271 271 272 272 273 273

GFSMW_sfc_thetae_051.txt.gz
Theta_e
303 305 307 307 308 308 307 308 310 323 338 336 335 334 332 332 333 334 333 331 330 330 330 330 329 328 326 322 315 307 302 300 300 299 299 299 299 299 300 302 302 301 300
300 301 302 303 304 306 307 307 307 311 324 336 336 336 335 334 335 334 333 332 328 328 329 328 327 325 323 320 313 306 301 300 299 300 299 298 298 298 297 298 299 299 299
295 297 298 299 301 302 304 305 307 308 313 329 336 334 333 331 333 332 331 331 330 327 328 327 327 323 322 317 312 306 305 300 297 298 302 296 299 296 295 296 297 297 297
295 297 300 301 300 302 302 302 304 306 309 318 331 332 328 327 330 332 332 331 331 326 326 325 325 322 321 318 312 307 307 305 300 297 294 293 297 296 294 292 293 294 294
296 299 301 303 304 305 305 304 302 302 306 309 322 331 329 330 332 332 331 331 329 328 325 325 323 320 319 318 312 307 307 308 304 302 293 293 293 291 293 290 290 291 291
298 300 301 302 304 305 305 305 305 305 304 305 309 325 329 329 328 327 328 329 327 326 324 324 323 321 318 316 311 310 308 307 307 304 298 297 294 292 290 290 289 290 288
298 300 301 302 304 304 304 305 305 305 306 307 306 307 319 328 327 327 326 327 321 321 322 323 321 320 317 315 313 310 309 307 305 302 297 296 295 293 292 291 289 287 288
297 299 301 302 303 303 303 304 305 305 305 305 307 307 307 311 322 326 326 326 325 323 324 321 322 320 316 314 313 310 309 307 305 300 295 293 291 291 290 289 288 284 284
298 300 301 302 303 303 304 304 304 304 304 305 307 308 308 308 309 315 322 324 324 322 320 319 318 316 313 312 310 309 306 304 299 295 293 292 290 290 289 290 289 290 284
301 302 302 302 303 303 303 303 302 302 304 307 307 308 308 309 309 311 314 318 319 317 316 314 312 309 308 307 307 304 301 297 294 292 290 290 289 289 289 288 288 287 286
301 301 301 302 302 301 300 300 300 301 302 303 305 305 305 307 308 309 311 312 310 310 310 310 308 305 304 304 301 298 296 292 291 290 289 288 288 287 287 287 287 286 286
301 300 300 300 300 298 297 296 297 298 299 301 302 303 305 305 306 305 305 305 305 306 306 305 303 301 299 297 295 293 292 290 289 288 288 287 288 287 287 287 286 286 285
298 296 295 294 297 295 295 296 296 296 297 298 300 301 302 303 303 303 303 303 302 302 302 300 298 295 294 293 292 291 290 290 290 289 288 287 287 287 287 287 286 285 286
293 292 291 292 295 293 293 294 294 294 294 295 295 297 298 298 298 298 298 298 298 296 296 294 293 292 291 291 290 290 290 289 289 290 289 289 289 287 286 286 286 285 284
291 290 290 292 292 291 291 290 291 292 293 292 292 292 293 293 294 292 292 292 292 291 291 291 291 291 291 291 291 290 290 289 288 288 288 287 287 287 287 286 285 285 284
289 289 288 289 289 289 289 289 290 291 292 291 291 291 291 291 291 291 291 291 291 292 292 292 292 292 293 295 294 291 289 288 286 285 285 285 287 287 289 289 289 288 285
288 287 287 287 288 288 289 290 291 292 291 291 291 291 290 289 290 290 290 290 290 292 292 292 293 292 293 295 294 291 287 285 284 284 283 284 285 285 283 285 286 286 287
288 287 287 287 288 289 291 291 292 291 291 290 290 291 290 289 289 289 288 289 289 289 290 290 291 291 291 292 290 287 284 283 283 283 283 283 283 283 284 284 284 285 285
288 289 289 289 289 290 290 290 291 290 290 289 289 290 289 288 288 286 286 286 287 286 285 286 286 287 287 289 287 284 283 283 282 282 282 283 283 284 286 285 283 284 283
290 290 290 290 290 290 291 290 289 289 289 289 290 290 290 289 288 287 286 285 286 285 285 285 287 289 287 288 287 283 282 281 282 282 282 283 284 286 287 286 283 280 281
290 290 290 289 289 290 290 288 288 288 289 290 289 289 288 287 287 286 286 285 284 283 282 282 282 283 284 287 288 286 283 282 282 281 281 282 285 286 285 285 281 280 283
290 290 289 289 290 290 288 287 286 289 289 289 287 288 288 288 286 285 284 283 281 279 278 279 279 279 280 286 286 286 285 285 282 281 282 282 284 283 282 281 282 283 282
290 290 289 289 289 289 289 287 287 288 287 286 286 285 284 282 281 280 279 278 278 278 277 277 277 277 279 281 285 285 285 284 282 283 283 282 281 280 279 280 281 280 278
289 290 289 288 287 288 288 288 288 286 284 281 280 279 279 278 279 279 279 278 278 277 277 277 276 277 278 280 281 282 281 283 282 280 279 279 278 278 278 277 278 278 278
289 290 289 288 287 288 287 287 285 283 280 280 279 279 278 278 278 278 277 277 277 278 277 277 277 277 278 280 283 283 282 281 281 278 276 275 275 275 275 276 276 277 277
288 287 288 289 288 288 285 284 283 281 280 279 278 279 279 279 280 280 280 285 285 284 283 282 280 280 282 283 283 282 282 281 280 275 273 273 274 274 274 274 275 275 275

GFSMW_sfc_thetae_054.txt.gz
Theta_e
310 310 311 311 312 314 315 316 317 320 327 336 337 337 335 336 336 338 342 340 338 337 336 334 333 333 333 332 331 325 318 313 313 307 306 305 305 305 305 308 308 308 307
305 305 306 306 307 309 312 314 315 317 319 327 335 339 338 338 339 338 337 337 338 337 336 335 334 333 332 332 330 326 317 316 311 310 310 305 303 303 304 305 305 306 306
303 307 308 308 308 308 309 310 311 314 315 318 325 334 337 340 337 336 335 335 336 338 337 335 335 334 333 331 331 327 318 314 309 311 313 307 307 303 302 302 302 304 304
306 307 308 309 310 311 313 311 310 310 312 314 317 325 329 330 332 333 336 336 335 333 333 334 334 334 333 330 330 326 321 320 309 306 305 304 306 302 298 297 300 300 299
307 308 309 310 312 313 313 313 312 311 310 311 313 317 326 329 330 332 333 335 335 333 330 330 332 331 331 330 328 324 320 320 317 309 304 302 302 299 302 299 294 294 297
308 309 311 311 312 313 313 314 313 313 313 312 311 313 317 325 328 330 331 334 335 331 330 329 329 329 329 327 327 324 320 320 319 312 307 304 303 302 300 301 297 295 292
307 308 308 309 310 311 312 312 312 312 313 312 312 312 312 317 325 327 329 330 330 329 327 327 327 327 328 328 327 323 319 318 317 313 309 307 305 300 300 302 295 292 291
307 308 308 308 309 309 310 310 310 310 311 312 312 313 314 314 314 319 324 326 328 330 330 326 326 326 326 325 324 322 319 317 313 312 311 304 299 296 294 295 292 290 287
307 307 307 307 308 308 308 308 308 309 310 311 313 314 315 315 315 316 316 319 323 325 328 327 324 324 324 322 320 317 315 315 314 314 309 302 296 294 294 294 294 293 285
307 306 306 306 307 308 307 307 308 308 309 310 312 312 314 314 315 316 317 317 318 321 324 323 322 321 319 316 314 312 312 309 307 301 296 292 291 292 291 292 289 291 288
305 304 305 304 307 307 305 305 305 305 306 307 309 311 312 312 312 311 312 313 316 317 318 318 317 314 312 311 309 306 304 302 298 297 294 293 291 289 289 289 290 288 289
304 302 302 302 305 303 303 303 303 303 303 304 306 308 309 310 311 311 311 310 311 312 312 313 311 309 308 307 304 300 300 294 294 291 292 288 289 288 289 289 288 287 288
301 300 300 300 302 300 300 300 301 301 301 301 303 304 304 305 304 303 305 306 305 305 305 305 304 303 302 299 297 295 292 291 290 290 289 288 288 288 288 288 287 286 287
297 297 298 299 299 298 298 297 298 299 299 299 299 299 299 299 298 296 296 295 296 296 297 296 296 295 293 293 292 291 290 290 290 290 290 290 290 288 287 287 286 287 287
295 295 295 296 297 296 296 297 297 298 298 297 296 295 295 294 294 293 293 293 293 293 293 292 292 292 292 292 291 291 291 290 289 289 289 289 289 290 289 288 286 286 286
294 293 292 293 294 295 295 296 296 296 296 296 294 294 293 292 292 292 292 293 293 293 293 293 293 293 293 295 294 291 289 288 287 285 285 286 288 289 290 290 290 289 287
292 291 291 292 293 294 295 295 295 294 295 294 294 294 293 290 290 291 291 291 292 293 293 293 294 294 294 295 294 292 287 285 285 284 284 285 287 286 285 285 286 287 287
292 292 292 292 293 294 295 295 293 294 294 292 292 292 290 289 289 288 288 288 289 289 288 287 288 288 290 292 292 289 285 284 284 284 285 285 285 285 285 285 285 286 286
293 293 292 291 292 293 293 293 292 292 292 291 290 290 290 289 289 287 287 286 286 286 285 286 286 286 287 289 288 286 285 284 285 285 285 284 283 284 286 286 285 285 286
293 293 293 291 292 292 294 292 290 290 289 290 290 290 290 289 288 288 287 286 287 285 286 285 287 288 287 288 287 286 285 284 283 284 283 284 285 286 287 286 285 282 283
293 293 293 292 291 293 293 290 290 289 290 290 290 289 289 288 288 287 287 287 286 286 286 285 286 288 289 288 287 286 285 284 283 283 283 284 285 285 285 285 284 282 283
292 293 292 291 291 292 291 288 288 290 290 289 289 289 289 289 289 287 285 285 285 284 284 283 283 284 286 287 287 287 286 285 283 283 284 284 284 283 282 282 282 283 283
293 293 292 290 290 290 291 288 289 289 289 288 287 286 286 286 286 285 284 284 284 283 283 282 282 281 283 284 285 285 285 285 283 284 283 282 281 280 280 280 281 281 281
292 293 292 291 290 291 290 290 289 288 288 288 286 285 284 284 284 284 284 284 284 283 282 281 281 281 282 284 285 284 284 283 283 282 282 279 279 278 279 279 280 281 281
291 293 293 292 290 290 290 289 287 289 287 285 284 284 284 283 283 283 283 282 282 282 281 281 281 281 282 283 284 283 283 283 282 281 279 278 278 278 279 279 280 280 280
291 291 293 293 292 292 291 290 288 287 285 283 283 283 284 284 285 285 285 286 285 284 284 282 282 283 283 283 282 282 282 281 281 278 276 276 277 277 278 278 278 279 279

GFSMW_sfc_thetae_057.txt.gz
Theta_e
311 313 313 314 314 316 317 318 318 320 321 327 334 340 337 337 337 342 343 342 341 340 339 337 335 334 333 333 331 331 326 322 321 315 311 311 310 308 309 311 310 310 310
308 309 309 309 309 311 313 315 317 318 319 321 326 338 338 337 337 338 340 342 342 341 339 337 336 335 333 333 332 331 326 321 320 312 311 307 306 306 306 307 307 308 308
305 308 309 310 310 311 312 311 312 315 318 320 321 326 336 338 338 339 339 337 337 340 340 338 337 336 334 332 332 330 327 319 316 315 314 310 307 303 305 304 305 305 305
307 308 309 310 311 312 315 314 313 312 313 316 316 317 321 327 333 334 336 337 337 334 335 336 336 335 335 333 332 331 328 322 315 312 313 315 310 305 297 301 302 303 303
308 309 310 311 313 315 315 316 315 313 314 313 313 315 316 322 329 331 331 332 335 336 335 333 333 332 333 331 332 331 329 323 319 311 311 309 306 306 306 297 296 299 301
309 310 312 313 313 315 315 315 314 314 315 314 314 313 314 315 320 326 327 329 332 335 335 332 330 330 329 330 329 330 329 324 322 315 313 308 306 302 302 304 300 297 297
308 309 309 310 311 311 312 313 313 313 314 315 314 313 314 314 315 319 324 326 328 331 333 330 329 327 328 328 328 326 326 324 321 320 314 312 310 312 307 305 297 296 292
308 309 309 309 310 310 311 311 310 310 312 313 313 314 315 314 314 315 317 321 325 327 330 331 328 327 326 326 326 325 324 322 321 320 320 314 312 305 302 302 295 291 288
308 308 308 309 309 309 309 309 309 310 311 312 313 314 315 315 315 316 316 316 317 319 322 326 328 325 325 325 324 322 321 319 318 318 318 312 308 301 298 298 297 297 289
307 307 307 307 308 309 308 308 308 308 309 310 311 312 314 314 314 314 314 316 317 318 319 320 323 323 321 322 320 318 316 314 313 312 311 297 295 295 295 293 292 293 291
306 305 305 305 307 308 307 307 306 306 306 307 308 310 311 312 313 313 313 313 313 314 315 316 317 317 317 316 315 313 311 310 304 300 297 295 293 293 291 292 291 291 292
305 303 303 304 305 304 305 304 304 304 304 304 305 306 307 308 307 306 308 310 310 311 311 311 312 312 312 311 309 305 303 301 299 297 295 291 291 290 291 290 289 289 289
302 301 302 302 303 302 302 302 302 302 302 302 302 302 302 302 301 301 301 301 301 303 303 302 300 301 301 300 300 297 293 292 292 291 290 290 289 289 289 290 288 288 288
299 299 301 302 301 300 300 300 301 301 301 301 300 299 298 298 297 297 296 296 295 294 295 294 293 294 293 292 292 291 290 290 290 290 290 290 290 289 288 287 287 287 286
298 297 298 299 300 299 299 300 300 300 300 299 298 296 296 296 295 294 294 294 294 294 294 293 293 293 293 292 291 291 291 290 289 289 290 290 291 291 290 287 285 285 286
297 296 296 296 297 298 298 299 298 298 298 297 296 296 295 294 293 293 294 294 294 294 294 294 293 293 294 295 294 291 289 288 287 285 285 287 289 291 291 291 290 289 287
296 295 295 295 296 296 297 297 297 297 297 296 295 294 293 292 291 291 291 291 290 290 289 289 292 292 293 295 294 291 287 285 285 285 285 286 287 287 286 287 287 287 288
296 295 295 295 295 296 296 296 296 295 294 293 293 293 291 290 290 289 289 289 288 288 287 287 287 287 289 291 290 289 285 284 285 285 285 285 285 285 285 285 285 286 286
296 296 295 294 294 295 295 295 293 293 292 291 290 290 290 290 289 288 287 286 287 286 285 286 285 285 287 289 288 286 285 285 285 285 285 285 284 284 286 286 285 284 285
296 295 295 294 294 294 295 293 292 291 290 290 290 291 290 289 288 288 288 287 287 286 286 286 288 288 287 288 287 287 286 284 283 283 283 285 285 286 287 285 284 282 282
295 296 295 294 293 294 294 291 290 288 290 290 290 290 290 289 289 288 288 287 286 287 287 287 289 289 288 287 288 287 285 284 283 283 282 284 286 286 285 285 282 281 283
294 295 294 293 294 293 291 289 289 290 290 290 290 290 290 290 290 289 288 288 286 285 284 284 284 285 286 287 287 287 286 286 283 282 283 283 284 283 282 282 282 283 283
294 295 294 292 292 291 292 289 289 290 290 290 289 289 289 288 287 286 286 285 285 284 283 282 282 281 283 284 285 285 285 285 283 283 283 282 281 281 281 280 281 282 280
294 294 293 291 290 292 292 291 290 291 290 290 289 287 285 285 285 285 286 285 284 283 282 281 281 281 282 283 284 284 284 284 283 282 282 280 280 280 279 280 280 280 280
294 294 294 293 292 292 292 291 290 291 290 287 285 285 285 284 283 284 284 282 282 283 281 281 281 281 281 283 283 283 282 282 282 281 279 278 277 277 278 279 279 279 279
293 292 294 294 293 292 292 291 291 292 287 285 284 284 284 285 285 285 284 286 285 285 284 284 283 283 283 283 283 283 283 282 281 278 276 276 277 277 277 278 278 279 279

GFSMW_sfc_thetae_060.txt.gz
Theta_e
305 306 307 307 307 307 308 310 311 313 314 315 322 335 334 333 335 338 338 339 336 333 331 330 328 327 326 327 326 325 321 316 314 308 304 303 303 303 304 304 304 306 307
301 304 305 304 304 304 306 307 309 311 313 314 315 325 334 335 335 334 337 337 335 335 332 330 329 328 325 324 326 326 322 317 315 306 302 298 300 301 302 302 304 304 305
300 303 304 305 306 307 308 308 308 307 308 311 313 313 324 331 330 330 332 334 336 334 335 334 331 328 329 326 324 326 323 319 314 309 306 302 300 297 300 300 301 302 302
303 305 305 306 307 309 311 311 310 308 308 308 308 308 308 313 326 330 333 335 334 331 332 329 332 332 332 330 328 328 325 321 313 310 311 309 304 298 294 297 299 300 300
303 305 306 308 309 310 309 310 311 310 309 309 307 306 307 309 312 319 324 326 327 331 329 330 329 331 330 331 330 328 326 326 320 313 308 309 302 299 298 292 294 298 298
304 305 307 308 308 309 309 309 309 309 310 309 308 307 306 306 306 309 316 321 323 325 329 329 331 330 329 329 328 329 327 326 324 317 312 309 308 305 301 301 295 295 296
303 304 304 305 306 306 306 307 307 307 308 308 308 308 307 307 306 307 310 314 318 321 324 326 326 327 328 328 327 327 327 327 322 319 313 311 311 310 306 305 299 295 291
303 303 303 304 304 305 305 305 305 305 307 307 307 308 308 308 308 308 308 309 310 312 316 324 323 323 325 325 326 325 325 324 323 321 319 313 312 310 308 306 302 292 291
303 302 302 303 303 304 303 303 303 304 305 305 306 307 308 308 308 309 309 310 311 314 313 313 316 321 324 324 323 323 323 322 321 320 318 317 309 303 303 302 302 301 291
303 302 302 302 303 303 303 303 302 302 302 303 303 305 306 307 307 308 307 308 308 309 310 311 312 312 316 319 320 319 318 316 314 313 312 303 299 298 297 296 296 298 296
302 300 300 301 303 302 301 301 300 300 300 300 301 302 302 303 302 301 302 303 305 307 307 308 309 309 311 314 313 314 313 311 305 302 300 295 296 294 294 294 295 295 294
301 299 299 299 300 300 299 298 298 298 298 299 299 298 299 299 297 296 296 297 297 300 302 302 302 302 305 304 305 304 302 301 298 297 294 293 293 292 292 292 292 291 291
298 298 298 298 298 298 297 297 297 296 297 297 296 296 295 294 293 293 294 294 294 294 295 295 294 294 294 294 294 294 293 293 292 292 291 290 291 290 290 290 289 288 288
298 296 297 298 297 296 296 296 296 296 296 296 294 293 293 293 292 292 293 294 294 294 294 293 293 293 293 293 292 292 291 291 290 291 291 291 290 289 288 288 287 287 286
296 295 294 294 295 295 295 295 295 295 295 294 293 292 292 293 294 294 293 294 294 294 294 293 293 293 293 293 291 291 290 290 289 290 290 291 291 292 291 288 286 286 285
296 295 294 293 294 293 294 295 294 294 295 293 292 292 292 292 292 293 292 291 291 290 293 293 293 293 294 295 294 290 287 287 286 285 285 286 290 292 293 292 290 289 286
295 294 292 292 292 292 294 292 293 294 293 294 293 291 291 290 290 291 290 289 289 289 288 288 289 289 291 294 292 290 286 285 285 285 285 286 286 286 286 288 288 288 289
294 294 292 292 292 292 292 292 292 294 293 292 291 290 290 289 289 289 288 288 288 287 287 287 287 288 290 291 291 289 285 285 284 285 285 285 285 285 286 284 284 283 284
293 292 291 290 291 291 292 291 290 291 291 290 289 289 290 289 289 287 287 286 286 286 285 285 285 285 285 290 289 286 283 283 283 284 283 283 282 286 287 284 283 282 282
293 292 291 291 290 290 291 290 291 290 290 290 289 290 290 289 288 288 286 286 286 285 286 283 282 287 282 289 288 285 282 280 281 280 281 286 285 287 287 282 280 278 278
293 293 292 290 290 291 291 289 289 288 290 290 290 290 289 289 289 287 287 286 281 278 277 282 282 282 284 284 289 288 281 280 280 279 278 281 286 285 284 284 278 278 280
292 293 290 290 290 290 291 289 288 290 291 290 290 289 289 289 288 285 284 283 282 280 279 279 279 279 281 287 287 287 286 285 279 279 278 279 284 283 283 281 282 283 282
292 293 291 290 291 291 291 289 289 290 290 289 289 287 287 286 285 281 280 279 279 278 277 277 276 276 279 280 285 285 285 284 280 280 281 283 282 282 279 282 282 282 277
291 292 291 290 289 290 291 290 290 291 290 288 286 283 281 281 280 281 280 279 278 277 276 276 276 276 277 279 279 280 278 283 281 281 278 281 280 280 279 279 278 278 277
292 293 292 290 290 291 291 291 291 290 287 284 281 281 281 280 279 280 281 277 279 280 276 276 277 276 276 280 282 281 280 279 280 280 276 274 274 274 275 276 277 277 277
291 292 293 292 291 291 291 291 290 288 284 281 280 280 280 280 280 280 280 286 285 285 285 284 281 280 282 283 283 283 283 283 282 277 274 272 273 273 275 275 276 276 277

GFSMW_sfc_thetae_063.txt.gz
Theta_e
303 303 303 302 303 303 303 304 307 308 311 318 331 330 332 330 330 335 337 335 335 332 328 328 326 325 326 325 324 322 319 316 313 308 304 302 302 302 303 303 304 309 312
300 302 303 302 304 305 306 306 305 305 307 310 311 326 332 333 335 335 334 334 334 332 333 328 326 325 323 322 323 323 319 317 314 308 301 299 300 301 301 301 303 303 306
300 301 304 305 306 307 307 308 307 306 306 306 308 310 316 328 328 328 329 332 333 332 331 331 330 326 326 323 322 323 321 319 314 310 306 299 297 297 299 301 301 302 303
301 304 305 306 307 307 308 309 310 308 308 306 305 304 305 306 316 326 329 330 330 330 330 329 329 327 326 326 328 326 325 322 317 313 313 309 304 298 296 299 301 303 302
301 303 305 307 308 308 308 308 309 309 308 307 306 303 303 304 307 308 312 321 328 330 329 329 326 325 325 326 327 325 325 325 324 317 314 311 308 304 299 296 298 301 302
302 304 305 306 306 306 306 306 306 307 308 307 306 305 303 303 304 304 305 308 316 321 325 326 326 326 328 327 325 326 324 324 325 323 318 313 311 309 303 299 297 299 299
301 302 303 303 304 304 304 306 305 305 306 306 306 306 305 304 304 304 305 306 309 313 314 320 323 323 324 324 326 326 326 325 323 323 317 316 313 313 310 305 300 297 295
301 302 303 302 302 302 302 302 302 303 304 305 305 306 307 307 307 307 307 307 307 309 310 311 313 318 321 322 324 324 324 324 323 320 320 315 314 313 309 308 305 294 292
301 301 301 301 302 301 301 301 301 301 301 302 302 304 304 305 305 305 306 306 306 310 308 309 309 311 316 319 319 321 320 321 321 321 319 318 313 310 310 308 307 305 298
301 300 300 300 301 301 300 300 300 299 299 299 301 301 301 300 300 299 298 300 302 305 305 305 306 307 309 310 311 314 315 316 314 313 313 306 302 301 300 300 299 299 299
299 298 298 299 301 300 299 298 298 297 297 298 298 297 297 297 296 295 294 294 296 298 299 299 301 301 302 303 305 306 308 310 306 302 300 296 297 296 295 296 296 296 296
298 297 297 298 298 297 296 296 296 296 296 296 295 295 294 294 293 292 293 293 292 293 293 294 294 294 296 296 297 297 298 299 298 297 296 294 294 293 294 294 293 293 293
297 296 296 296 296 294 295 295 295 295 295 295 293 293 292 292 291 291 292 292 292 292 294 294 293 293 294 293 293 293 292 292 292 292 292 292 292 291 291 291 289 289 289
297 295 296 295 294 294 295 294 294 294 294 293 292 291 291 291 291 291 292 292 293 293 294 294 293 293 293 293 292 292 291 291 291 291 291 291 290 289 288 288 288 288 287
295 294 294 293 293 293 293 293 293 294 293 292 291 290 291 293 294 294 292 292 292 294 294 294 294 292 292 292 289 289 289 289 288 288 291 292 293 293 292 288 287 287 286
295 294 294 293 292 291 292 293 293 293 293 291 290 290 291 292 292 291 291 291 290 290 291 291 292 292 293 294 293 288 287 287 287 286 286 287 288 291 294 293 291 289 286
294 293 292 291 291 292 292 291 291 292 292 292 291 291 291 290 290 290 290 289 289 289 288 289 290 291 292 294 292 290 286 286 285 285 285 285 287 286 285 287 287 288 289
293 292 291 291 291 291 291 291 291 293 292 291 290 291 290 289 289 289 288 287 287 287 286 286 288 289 291 292 291 289 281 279 280 281 282 282 282 284 285 283 283 283 283
292 291 290 290 290 290 290 290 289 291 290 289 289 290 290 289 289 287 286 286 286 285 285 284 280 280 283 289 289 284 280 279 280 281 281 281 280 287 288 282 281 281 280
292 290 290 290 289 289 290 288 290 290 289 289 289 290 290 289 288 287 286 287 286 284 280 278 279 287 281 290 289 283 279 277 279 278 280 287 284 287 287 280 278 276 277
292 291 290 289 288 289 289 289 289 289 290 290 290 290 290 289 288 287 287 280 275 275 275 280 279 281 282 283 288 288 281 279 279 279 278 280 285 285 284 283 277 278 279
292 291 289 288 288 289 289 289 288 290 291 290 289 288 289 289 288 285 282 281 280 278 278 278 277 279 280 286 286 287 286 284 279 279 278 279 283 283 283 281 282 283 282
291 292 289 288 288 289 291 289 289 290 290 289 289 288 287 286 286 282 281 279 278 277 276 276 275 276 278 279 286 286 285 285 280 280 282 284 283 282 279 281 282 282 276
291 291 290 290 288 290 291 290 290 291 290 289 286 285 282 280 280 280 280 278 277 275 275 275 275 275 277 278 278 279 278 282 280 281 278 280 280 280 279 278 278 277 276
291 291 290 290 289 290 291 291 291 291 289 286 282 279 279 279 279 281 279 278 279 279 276 276 277 276 276 279 282 281 280 278 281 279 276 274 274 274 275 276 276 276 277
291 290 292 290 290 290 291 291 291 291 286 281 279 278 278 277 278 279 280 285 285 285 285 284 280 280 283 283 283 283 283 283 283 277 274 272 272 273 274 275 275 275 276

GFSMW_sfc_thetae_066.txt.gz
Theta_e
300 301 300 300 301 303 303 303 305 306 318 328 329 328 329 330 329 331 334 334 334 332 328 327 325 325 324 325 323 320 318 318 312 310 307 303 304 302 303 302 305 316 316
298 300 300 303 304 304 304 304 304 304 305 308 310 326 329 329 331 331 332 332 331 332 330 327 326 325 324 322 322 321 318 317 313 311 306 306 305 302 303 301 302 304 314
299 300 302 304 305 305 306 307 307 305 304 305 306 308 311 325 326 326 327 330 331 330 330 330 328 325 323 323 321 320 319 321 313 312 314 302 302 298 300 300 302 302 303
299 302 304 305 306 306 307 308 308 307 307 305 304 303 304 305 314 317 323 326 328 328 328 328 328 327 324 323 323 322 321 319 317 312 316 310 305 301 300 298 301 303 303
300 302 304 306 307 307 305 305 306 307 306 306 305 303 302 303 304 305 306 308 314 323 327 326 325 324 324 323 323 322 320 321 321 315 313 314 311 307 301 307 300 302 304
300 302 304 305 304 304 304 304 305 305 305 305 305 304 303 302 302 303 303 305 309 314 313 317 322 323 322 323 322 322 321 322 322 321 320 316 311 310 307 302 300 301 303
300 301 302 302 302 302 302 304 304 303 304 305 305 305 305 304 305 304 305 305 306 307 308 310 312 316 320 321 321 320 320 320 321 320 319 319 317 317 313 310 308 300 298
300 301 301 301 301 301 301 301 301 301 301 302 303 304 304 305 305 304 305 304 305 306 307 308 308 310 315 317 317 317 320 322 321 319 316 318 318 316 313 311 307 296 295
300 300 301 301 301 300 300 299 299 298 299 300 301 300 299 299 299 299 300 301 302 306 304 305 306 307 308 312 314 317 315 313 312 312 315 316 316 312 312 311 308 306 299
300 299 299 300 300 300 298 298 298 297 297 298 298 297 296 296 295 295 294 294 296 298 299 300 301 301 301 302 305 305 305 306 308 308 308 304 301 300 300 302 301 302 303
299 298 298 299 299 298 297 296 296 296 296 296 295 294 294 293 293 292 292 292 293 293 294 294 294 294 295 296 298 298 298 302 301 299 298 296 297 296 296 297 297 298 298
298 297 297 298 297 295 295 295 295 295 295 294 293 293 292 292 291 291 291 292 291 292 292 292 292 292 292 292 292 293 293 294 294 294 294 293 295 293 294 294 293 293 293
296 295 295 295 295 294 294 294 294 294 293 293 292 291 291 290 290 290 291 292 291 291 292 292 292 292 292 291 291 291 292 292 292 292 291 291 292 290 290 290 289 289 290
296 295 294 293 293 293 293 293 292 293 292 292 290 289 289 293 293 291 291 291 292 292 292 292 292 291 290 290 290 290 290 291 291 291 291 291 290 289 288 288 288 288 288
295 295 294 293 292 292 292 292 292 292 291 290 289 289 292 293 293 292 291 292 292 293 293 292 292 292 292 291 287 288 289 289 288 288 289 292 294 294 291 288 287 287 286
295 294 294 293 292 291 292 292 291 291 291 289 289 289 292 292 291 291 291 291 290 290 291 291 292 291 292 293 293 288 286 287 286 285 286 287 289 289 294 293 293 290 287
294 293 293 292 291 291 292 291 291 291 290 290 291 291 291 290 290 290 289 289 288 289 288 289 291 291 292 294 292 290 285 285 284 283 281 284 286 286 283 287 287 287 289
294 293 291 291 291 291 291 291 291 291 292 291 291 291 290 290 290 289 288 287 287 287 287 287 287 288 289 291 290 287 275 277 279 275 276 276 279 282 283 281 281 281 281
293 292 290 290 290 290 290 290 289 290 290 289 290 290 290 289 288 287 286 286 286 284 280 278 278 279 280 289 288 283 278 278 278 280 280 280 280 288 287 280 279 278 278
291 290 290 290 289 289 289 288 288 290 289 289 289 290 290 289 287 287 287 286 282 278 277 277 278 287 281 289 287 282 279 276 278 278 280 286 284 286 286 279 277 276 277
291 290 290 289 289 289 289 287 289 289 290 290 290 290 290 289 287 287 284 277 274 274 274 278 278 280 282 282 288 287 281 279 279 279 278 280 286 285 284 283 276 277 279
291 291 289 288 289 289 288 287 288 290 290 290 290 289 289 289 288 284 281 280 279 279 278 277 277 278 278 286 286 286 286 283 279 279 278 278 284 283 283 281 282 283 281
291 291 289 288 288 288 288 287 289 290 290 289 288 288 289 285 284 282 281 280 279 278 277 276 275 276 278 278 285 285 286 285 280 280 282 283 283 282 279 281 282 281 276
290 290 289 288 286 288 289 290 291 291 290 288 288 288 285 283 282 280 279 277 276 276 276 276 276 275 277 278 278 279 278 282 281 281 277 280 280 280 279 278 277 277 276
291 290 289 289 288 289 290 290 291 291 289 289 284 283 281 281 277 278 276 277 277 277 275 276 277 276 276 279 282 282 280 279 281 280 276 274 274 274 274 275 276 276 277
291 290 290 290 289 290 290 291 291 290 289 286 281 279 277 277 277 279 278 285 285 286 285 284 280 280 283 284 284 284 283 284 284 277 273 272 272 272 273 274 274 275 275

GFSMW_sfc_thetae_069.txt.gz
Theta_e
298 299 298 299 302 302 302 302 306 305 324 328 328 327 328 329 328 331 333 333 333 330 327 326 324 324 321 322 320 319 318 316 313 310 309 308 308 307 305 303 302 313 318
298 298 301 301 303 302 303 303 303 303 304 309 316 326 327 328 329 329 330 331 331 331 329 326 326 325 324 322 321 320 316 315 313 312 307 310 310 303 305 302 304 303 312
298 299 301 302 304 304 305 306 306 304 303 303 304 306 309 323 324 325 326 328 329 330 329 329 327 325 322 322 321 319 318 321 316 314 317 306 304 301 302 301 301 303 302
297 300 302 303 304 305 306 306 306 306 306 305 303 302 302 304 309 310 314 310 317 323 326 326 326 326 324 321 321 321 319 317 318 311 313 314 306 305 306 301 301 302 302
298 300 303 305 306 305 304 303 304 305 304 304 303 302 302 302 304 304 305 306 308 315 314 319 323 323 322 322 321 320 318 318 317 315 313 312 313 307 305 308 307 304 304
299 301 303 304 303 302 303 303 304 304 305 304 304 303 302 301 302 303 304 305 307 309 310 311 313 319 320 320 320 320 319 318 318 318 319 317 313 310 308 305 306 304 304
298 300 301 301 301 300 301 302 302 301 302 304 304 304 304 303 303 303 303 304 305 305 306 307 308 309 314 317 318 317 317 316 316 316 317 317 318 317 316 311 310 304 300
299 300 300 300 300 300 299 300 299 299 301 302 301 301 302 303 302 301 302 302 302 304 304 304 306 307 309 316 319 318 316 314 312 311 311 314 315 315 314 312 308 302 297
298 299 300 300 299 299 298 298 297 297 299 299 298 297 296 296 296 295 296 298 298 302 300 301 301 302 302 305 307 308 309 311 309 310 310 310 306 305 306 308 308 307 302
299 299 299 299 299 298 297 297 296 296 296 296 296 294 294 293 293 293 292 292 293 294 295 295 296 296 297 299 300 300 301 304 304 303 302 300 299 299 299 299 301 301 301
298 298 297 298 298 297 296 295 295 295 295 294 294 292 292 292 292 291 291 291 292 292 292 293 292 292 292 293 294 295 296 299 298 298 297 296 296 295 296 296 296 297 296
298 297 296 297 296 294 294 294 294 294 294 293 292 291 291 291 290 290 291 291 291 292 292 292 292 291 291 291 291 291 291 291 291 292 293 292 294 293 293 293 292 291 292
297 295 294 295 294 293 293 293 293 292 292 292 291 290 290 290 289 290 291 291 291 291 292 292 290 290 290 289 289 289 289 290 291 291 291 291 291 290 290 288 289 289 290
296 294 294 295 294 293 293 292 292 292 291 291 290 289 290 294 293 289 290 291 291 291 291 290 291 290 289 288 288 288 289 290 290 291 291 291 290 288 287 286 285 288 288
295 294 294 294 293 292 292 292 292 291 291 290 289 289 292 293 293 292 292 292 292 292 292 292 292 292 292 290 287 289 289 288 288 288 289 291 293 294 292 289 287 287 287
295 294 295 294 292 291 291 292 291 290 290 289 288 290 292 292 291 291 291 290 290 291 291 292 292 292 292 293 292 288 286 286 285 285 285 287 287 287 292 292 292 290 285
296 294 294 293 292 291 292 291 290 290 289 289 289 291 291 291 290 290 289 289 288 289 289 289 290 290 292 293 291 289 285 283 279 277 278 281 283 283 281 286 287 287 289
295 294 293 292 292 292 291 291 291 290 290 290 291 291 291 290 289 289 288 287 287 287 287 286 284 284 287 290 289 286 272 274 273 273 274 275 279 283 282 280 280 279 280
294 293 291 291 290 290 290 290 289 290 289 290 290 290 290 289 288 287 286 286 286 283 278 277 275 278 280 289 287 282 278 277 277 279 280 281 281 287 287 280 279 278 278
292 291 290 290 289 289 290 288 288 288 288 290 290 290 290 289 288 287 286 282 281 277 276 276 277 286 280 289 287 281 278 276 278 278 279 285 284 286 286 279 277 275 276
291 290 290 289 289 289 289 288 288 287 290 290 290 290 290 289 288 287 286 275 279 274 273 277 277 279 282 282 288 287 280 279 279 279 278 280 285 285 285 284 277 277 279
291 290 289 289 289 289 288 287 287 290 291 290 290 289 289 289 288 285 280 279 278 278 277 276 277 278 278 286 286 287 286 283 279 279 278 279 284 285 283 281 283 284 281
291 291 289 288 288 288 288 287 287 290 290 289 289 288 289 288 287 281 280 279 278 276 276 276 275 275 279 278 285 285 285 284 280 280 282 283 283 282 279 281 283 281 276
291 291 289 288 288 288 288 288 290 291 290 289 288 288 287 285 282 282 281 280 277 276 275 275 275 275 276 278 279 280 278 282 281 282 277 279 279 280 279 278 277 277 276
291 290 289 288 288 288 288 289 291 291 289 288 288 287 286 285 280 279 277 277 276 277 275 275 276 275 275 278 282 281 280 279 281 279 276 274 274 273 274 274 275 275 276
291 290 290 289 289 289 289 290 291 291 289 287 286 285 282 279 277 277 278 284 284 287 287 284 279 279 283 284 285 285 284 284 284 278 274 273 272 272 273 273 274 274 275

GFSMW_sfc_thetae_072.txt.gz
Theta_e
298 298 298 299 301 301 302 303 314 307 326 327 326 326 327 327 328 330 332 331 330 328 326 326 323 321 320 321 319 319 319 317 314 315 315 311 310 310 310 311 306 306 313
295 296 298 299 302 301 301 302 302 302 304 314 321 325 325 326 327 327 328 330 331 331 329 325 324 323 322 320 319 317 315 315 315 316 310 311 313 306 307 305 304 303 306
297 296 299 300 302 303 304 305 304 303 303 303 303 305 307 320 322 323 324 325 326 328 328 328 327 325 323 323 321 318 318 317 315 316 318 310 307 306 307 305 302 301 300
296 298 300 301 302 303 305 305 305 305 305 304 302 301 301 302 306 307 308 307 310 315 318 322 326 326 323 321 321 320 318 318 317 311 313 311 310 309 308 307 304 304 301
296 298 300 303 304 303 302 303 304 304 304 304 303 302 301 301 302 303 304 305 308 310 311 312 314 323 323 321 320 319 317 316 315 312 312 314 312 308 307 308 307 304 304
295 299 302 302 301 301 301 302 303 303 304 305 304 303 302 301 302 304 304 305 306 307 307 308 308 311 317 322 322 319 319 317 317 319 319 316 313 310 307 305 307 308 309
296 299 300 300 300 299 300 301 301 300 303 303 303 303 303 303 302 302 302 303 304 304 303 305 305 307 311 318 320 320 320 319 318 318 317 318 318 316 314 311 309 307 303
297 299 300 299 299 299 298 298 298 299 301 300 299 298 299 300 299 298 300 299 300 302 301 302 303 303 304 307 313 318 316 315 313 312 312 312 311 311 311 310 308 304 299
297 298 299 299 298 298 297 297 297 297 298 297 296 295 295 295 294 294 294 295 295 298 296 297 298 298 299 302 304 304 306 309 308 307 308 308 304 304 303 304 305 304 299
297 298 298 298 298 297 296 296 296 296 295 295 294 293 292 292 292 292 291 291 292 293 293 293 293 294 294 296 298 298 301 303 303 302 301 300 299 299 299 299 300 300 300
297 297 297 298 297 296 295 294 295 295 294 293 292 291 291 291 291 290 290 290 291 291 291 292 292 291 291 292 293 293 295 300 298 298 297 296 296 295 295 296 296 296 295
297 297 296 296 295 294 293 293 293 293 293 292 291 290 291 290 289 289 290 290 290 291 291 291 291 290 290 290 290 290 290 290 290 290 290 290 292 290 292 292 291 290 291
297 295 295 295 294 293 292 292 292 291 291 291 290 289 289 289 288 288 289 290 290 290 290 290 289 289 289 288 288 288 289 290 290 290 290 288 290 289 289 289 286 283 287
296 294 294 294 293 292 292 292 291 291 291 290 289 288 289 293 292 289 292 292 291 289 290 291 291 289 287 289 290 290 290 290 290 291 292 291 289 288 288 288 287 287 285
295 294 294 293 293 292 292 292 292 291 290 289 289 289 292 293 293 292 292 292 292 292 292 292 292 292 291 290 289 289 288 288 287 288 289 289 292 294 293 289 287 284 282
295 295 295 294 293 292 292 292 291 291 291 290 289 290 292 292 291 291 291 291 291 291 292 292 292 292 292 293 291 288 286 285 285 284 282 284 285 286 290 290 290 289 282
296 295 294 294 293 292 292 291 291 290 289 289 289 291 292 291 290 290 290 289 289 289 289 289 289 289 290 291 290 288 281 278 275 274 276 281 283 283 280 285 286 286 289
296 295 294 293 292 291 291 291 290 289 289 289 289 291 291 290 289 289 288 288 288 287 286 283 283 284 286 289 288 285 269 270 271 272 274 276 279 283 281 280 279 279 280
296 294 293 292 292 292 291 291 290 289 289 289 290 291 291 289 289 287 287 286 286 283 278 278 277 279 281 288 287 281 277 277 277 279 280 281 280 287 286 280 278 277 278
293 291 291 290 290 290 290 289 288 288 288 289 290 291 291 289 288 287 287 284 282 279 276 277 277 286 280 289 287 281 278 277 279 278 279 285 283 286 286 278 277 275 276
290 290 290 289 290 289 289 288 287 287 289 290 291 290 290 289 288 287 284 279 282 277 274 277 277 278 281 281 288 287 280 279 279 279 278 280 285 286 285 284 277 277 278
290 290 289 289 289 289 289 287 286 289 289 290 290 290 289 289 288 286 281 280 278 278 277 276 276 277 277 285 286 287 286 283 279 278 279 280 284 284 284 281 283 284 280
290 290 289 288 288 289 289 287 287 289 289 289 289 289 289 288 287 283 280 279 278 277 276 276 275 275 278 277 285 285 285 284 280 280 282 282 282 282 279 282 283 281 276
290 290 289 288 287 288 288 288 288 289 289 289 288 288 287 286 285 282 281 279 277 276 276 275 275 274 275 277 278 279 278 282 281 282 277 279 279 280 278 277 277 276 276
293 292 291 289 289 289 289 289 290 290 289 289 288 287 287 287 284 281 279 279 278 278 276 275 275 274 274 277 281 281 280 278 281 279 276 274 273 274 274 274 274 275 275
292 291 291 289 289 289 289 289 290 290 289 288 287 287 286 285 284 279 278 284 284 285 286 285 279 278 282 284 285 286 285 285 284 277 274 272 272 272 273 273 273 273 274

GFSMW_sfc_thetae_075.txt.gz
Theta_e
305 304 304 304 306 307 311 318 330 329 335 334 334 334 333 335 335 336 336 335 334 333 335 334 333 331 329 330 329 328 326 326 326 323 324 325 325 322 322 326 324 321 318
302 303 303 305 306 306 306 307 311 311 321 331 333 334 334 335 336 336 336 336 337 336 335 333 332 331 328 327 327 326 324 323 323 323 320 318 322 321 320 319 317 317 315
302 301 303 304 306 306 308 308 307 307 308 308 311 312 315 325 329 330 331 322 324 329 332 333 333 332 329 330 329 327 324 324 323 323 321 316 313 312 318 316 314 313 312
299 301 302 304 305 307 309 308 308 308 308 308 307 307 308 309 311 312 311 311 315 316 317 319 325 329 329 327 328 328 326 324 322 319 319 320 315 312 312 315 314 310 313
300 300 303 305 306 307 307 307 308 308 308 308 308 307 306 306 307 308 309 310 313 313 313 314 315 320 325 326 327 326 324 324 323 321 319 318 316 315 311 309 314 317 316
299 300 304 305 304 305 305 307 307 307 308 309 308 308 307 306 307 309 309 310 311 310 309 310 312 314 317 320 323 323 322 323 322 322 320 319 316 314 311 309 309 313 316
298 300 303 303 303 303 304 304 305 305 306 306 307 307 307 307 307 307 307 307 308 307 305 307 308 309 311 315 320 322 321 321 321 320 320 320 319 318 316 314 312 312 312
298 301 304 303 302 302 303 303 303 303 303 303 302 302 303 303 302 302 303 302 303 304 302 303 304 304 306 309 313 318 317 316 316 314 314 313 310 310 309 310 309 306 306
298 301 302 302 302 301 302 302 302 302 301 301 300 299 299 299 298 297 298 298 298 299 299 299 300 300 301 304 307 309 311 311 310 309 310 308 305 305 305 306 306 305 300
299 301 301 301 301 301 300 300 301 300 299 299 298 297 296 296 296 296 295 295 296 296 297 297 297 297 298 300 302 304 305 305 305 305 304 303 302 301 302 302 302 302 302
299 300 300 301 300 299 299 298 299 298 297 297 296 295 294 294 294 294 294 294 295 295 295 295 295 295 295 296 298 298 300 301 300 300 299 297 297 296 297 299 299 297 297
299 299 300 299 298 298 297 297 297 297 296 295 295 294 294 293 293 293 293 294 294 294 294 294 293 293 293 294 294 294 294 294 294 294 294 294 294 294 294 294 292 292 294
298 298 298 298 298 297 296 296 296 296 295 294 294 293 293 293 292 292 293 293 293 293 293 293 292 292 292 292 293 293 293 293 293 293 292 292 292 291 291 291 291 292 292
298 298 297 297 297 296 296 295 295 295 294 293 293 293 294 294 293 293 293 293 293 293 293 293 292 290 291 291 292 292 291 292 292 292 293 292 292 291 291 290 290 290 291
297 297 296 297 296 295 295 294 294 293 293 292 292 292 294 294 294 293 293 293 293 293 293 293 293 293 291 291 290 290 290 290 289 289 289 291 293 294 293 291 290 289 288
298 297 296 296 296 295 295 294 293 293 293 292 291 292 293 293 293 292 292 292 292 292 293 293 293 292 292 292 292 289 288 288 287 285 285 287 286 288 290 290 290 290 287
298 297 297 297 296 295 295 294 293 292 292 291 291 292 293 292 292 291 291 290 290 290 290 290 291 290 291 292 290 286 284 283 282 283 285 285 286 285 285 286 287 288 289
298 298 297 296 296 295 294 294 293 292 291 291 291 292 292 291 290 290 289 289 289 288 287 287 287 288 289 289 288 285 281 281 281 282 283 284 285 286 283 283 283 283 284
298 298 297 295 294 294 293 293 291 291 290 290 291 292 292 290 289 288 288 287 287 285 283 283 284 285 287 288 286 283 282 282 282 283 285 285 285 287 285 282 280 280 281
296 295 293 293 293 293 293 292 290 290 290 290 291 292 292 290 289 288 287 286 285 283 283 282 283 286 285 288 286 283 282 281 282 282 282 285 286 286 286 282 280 279 280
292 291 292 292 292 292 292 291 290 290 291 291 292 291 291 290 289 288 286 284 283 281 281 282 282 283 284 286 289 286 282 282 281 281 281 283 285 286 285 283 281 281 282
291 291 290 290 290 291 291 290 289 291 291 291 291 290 290 290 289 287 283 283 282 282 281 281 281 281 282 286 287 288 286 285 282 281 282 283 284 284 283 282 284 285 281
291 292 291 290 290 291 291 289 290 290 290 290 290 290 289 289 288 286 283 282 281 281 280 280 279 279 280 281 286 286 286 285 283 282 283 283 282 281 280 282 283 281 280
291 291 290 290 289 290 290 291 290 291 290 289 289 289 288 287 287 286 285 283 281 280 280 279 279 279 278 279 281 282 283 283 283 283 282 281 280 280 280 279 279 279 279
293 292 291 291 290 290 290 290 290 291 289 289 289 288 288 288 286 285 283 283 282 282 280 280 279 278 278 279 282 282 281 282 283 282 280 278 277 277 277 277 277 278 278
294 293 293 292 292 290 290 290 291 291 290 289 288 288 288 288 287 285 284 287 286 286 287 286 281 280 283 284 286 286 286 286 286 281 279 277 276 276 276 276 276 277 277

GFSMW_sfc_thetae_078.txt.gz
Theta_e
312 311 310 311 323 327 330 337 338 341 342 341 340 340 340 342 343 343 344 343 341 339 339 340 340 340 338 337 337 336 334 334 335 330 330 331 332 331 331 332 331 331 329
311 311 311 310 312 320 321 326 333 337 340 341 341 342 341 342 342 344 343 343 342 342 342 341 340 340 338 337 336 334 332 331 333 328 326 321 323 326 328 328 327 326 326
311 309 310 310 312 312 314 316 319 322 326 332 332 331 332 336 337 339 339 331 331 332 334 335 335 335 335 333 334 334 331 329 331 330 327 320 315 321 325 324 324 323 322
311 307 306 309 311 313 315 314 314 314 314 314 316 319 323 323 323 323 322 319 320 321 322 323 325 330 332 331 332 332 330 329 326 326 326 327 321 316 313 321 323 322 322
313 308 306 308 311 313 314 314 314 314 314 314 314 314 313 314 314 314 314 316 318 317 317 318 319 321 325 325 327 328 328 326 324 325 324 322 323 319 316 312 318 321 321
310 309 309 309 310 312 312 314 313 313 314 315 315 314 314 312 313 314 315 316 317 316 314 314 316 318 320 321 323 325 327 326 326 327 325 323 319 317 316 312 313 314 317
311 310 307 308 309 309 311 312 312 312 313 313 314 314 314 313 313 313 314 313 314 314 311 311 312 313 314 316 320 323 324 324 324 323 322 322 321 320 317 316 314 311 314
310 309 308 309 309 309 310 310 311 310 311 311 310 311 311 312 310 310 310 310 310 309 307 307 308 308 309 312 316 320 321 320 319 319 319 315 312 312 312 312 310 306 308
302 302 306 309 309 309 309 309 309 309 309 308 308 307 307 307 306 305 306 306 305 304 304 305 305 305 306 308 311 315 315 315 314 312 312 309 308 309 310 310 310 306 302
301 303 306 308 308 309 308 308 309 307 307 307 306 305 304 303 303 304 303 302 303 302 302 302 303 303 304 305 307 310 308 309 309 309 309 309 308 308 308 308 307 307 304
302 304 306 307 307 308 307 307 307 306 305 304 303 303 302 301 301 301 301 301 301 301 300 300 300 300 301 302 304 305 305 306 304 304 304 302 302 302 303 304 304 304 302
303 306 307 306 304 305 305 305 305 305 304 303 302 301 300 300 300 300 299 300 299 299 299 299 299 299 299 300 300 300 301 301 300 300 300 299 299 299 300 299 298 298 297
304 305 306 306 306 305 304 304 304 304 303 302 301 300 299 299 299 298 298 298 298 298 298 297 297 296 296 297 297 298 298 298 298 298 297 297 297 296 296 296 297 298 297
304 305 306 306 306 305 304 304 303 303 301 300 300 300 300 299 299 298 297 297 297 297 297 297 295 294 294 294 294 295 295 295 295 295 296 295 295 295 295 295 294 295 297
304 305 305 306 306 305 304 303 303 301 301 299 299 299 300 299 298 298 297 296 295 295 295 295 294 294 293 293 292 293 293 293 292 292 293 293 293 293 293 294 293 293 293
304 305 305 306 306 305 303 302 301 300 299 299 298 298 298 298 297 296 295 294 293 294 294 294 293 293 293 293 293 293 292 292 291 288 289 289 289 290 290 290 291 291 289
303 306 306 306 306 305 304 302 301 300 298 298 297 297 297 296 295 294 293 292 292 293 293 293 293 292 292 292 290 289 289 287 287 288 289 288 288 287 287 287 288 289 289
302 305 307 307 306 306 304 303 301 298 298 297 296 296 296 295 293 292 291 291 291 290 290 291 291 291 290 289 288 287 286 286 286 287 288 288 288 288 286 285 286 286 287
303 306 307 306 305 303 302 300 298 298 297 296 296 296 296 294 292 290 290 289 289 288 289 289 290 289 288 288 288 287 287 286 286 287 288 287 287 287 285 285 283 282 284
304 304 304 302 302 301 300 299 297 297 296 296 296 296 296 294 291 290 289 289 288 286 288 287 288 288 288 288 287 285 286 284 284 285 285 285 287 286 286 285 283 282 284
299 300 300 300 301 299 299 297 297 296 297 296 296 295 295 293 291 290 289 287 286 287 287 287 288 288 289 289 287 286 285 284 284 284 284 285 286 286 286 284 283 284 285
296 298 298 297 297 298 298 297 296 297 296 295 294 294 293 291 290 289 286 286 286 287 286 286 285 286 287 288 289 289 287 286 284 283 284 285 284 284 283 283 284 285 284
296 297 297 296 296 297 297 295 295 296 295 294 293 293 291 290 290 288 286 286 287 286 285 284 284 284 284 286 288 289 288 287 284 284 285 283 282 282 281 282 283 283 282
297 297 296 295 294 295 295 296 294 295 294 293 293 292 290 289 289 289 288 287 286 285 284 284 283 283 283 283 285 286 287 286 285 284 285 283 282 280 281 280 281 281 282
296 296 295 293 293 294 293 293 292 293 292 293 293 291 290 290 288 288 288 288 288 287 286 285 284 283 283 283 285 285 284 284 284 284 284 282 281 280 280 280 280 280 280
299 298 297 295 294 292 292 292 292 292 292 292 292 291 289 290 289 288 287 289 289 288 288 287 286 284 285 284 286 286 286 286 285 284 282 282 280 280 279 279 279 280 279

GFSMW_sfc_thetae_081.txt.gz
Theta_e
316 314 313 315 327 338 340 341 341 342 342 342 341 341 339 342 343 344 344 344 343 342 340 340 340 340 338 338 337 336 335 335 336 331 331 331 333 332 332 332 331 330 331
314 313 313 313 315 328 331 336 339 341 341 342 342 343 342 343 343 345 343 343 342 342 340 340 339 340 339 336 336 335 333 332 334 328 327 321 324 325 326 330 328 327 328
313 314 312 313 313 318 322 324 331 338 338 341 341 337 338 339 339 340 339 337 334 335 334 334 335 335 335 333 333 333 331 328 330 330 326 320 316 321 325 326 326 325 325
313 315 311 310 313 314 318 317 319 322 323 327 331 332 332 331 330 330 330 325 323 323 323 324 326 328 332 331 331 331 331 330 326 330 327 326 324 318 316 323 323 324 322
313 314 311 311 312 316 317 317 316 316 316 317 318 318 316 317 316 315 315 316 318 318 318 318 320 321 323 326 325 326 326 329 326 326 325 324 322 321 316 313 316 323 321
312 315 313 311 312 315 316 316 315 314 315 316 316 316 318 315 314 315 315 316 317 316 315 315 316 318 319 320 322 322 323 324 325 325 325 322 319 317 315 314 314 314 317
312 315 312 309 311 312 313 314 314 313 315 316 315 315 316 315 315 315 315 314 314 314 313 312 313 313 313 315 317 320 322 322 321 322 322 324 321 320 318 315 314 312 313
312 314 313 311 311 312 312 312 313 312 313 314 313 314 314 313 312 312 312 311 311 311 309 309 309 309 309 311 313 317 319 320 318 318 318 315 312 313 312 313 311 308 310
308 308 311 310 311 311 311 311 312 311 311 311 311 310 310 310 309 308 308 308 307 306 305 306 306 307 307 308 310 313 314 315 315 313 312 310 309 309 310 311 311 309 303
305 305 306 309 311 311 311 312 311 310 309 309 309 308 307 306 306 306 305 304 304 304 304 304 304 304 305 305 307 309 309 310 309 310 310 309 308 308 309 309 308 308 306
304 305 306 309 310 310 310 309 309 308 307 307 306 305 304 304 303 303 302 302 302 302 302 302 302 302 302 303 304 305 306 307 305 305 304 303 304 304 304 306 305 304 303
304 305 307 308 308 308 308 308 308 307 306 306 305 304 303 302 302 301 301 301 301 301 300 300 300 300 300 301 301 301 302 302 301 302 302 300 301 301 301 300 299 299 299
305 306 307 306 306 306 306 306 307 306 305 304 304 303 302 302 301 300 300 300 299 299 299 299 298 298 298 298 299 299 299 299 299 299 298 298 299 297 297 298 297 297 298
305 306 307 307 307 307 307 306 305 306 304 303 303 302 302 302 301 300 299 299 299 298 298 298 297 296 296 296 296 297 296 296 296 296 296 296 295 295 295 295 294 295 296
305 306 306 307 308 307 307 306 306 305 303 302 302 302 302 302 301 300 299 298 297 297 297 296 295 295 294 294 294 294 294 293 293 293 292 292 293 293 293 293 293 292 293
304 306 307 308 308 307 307 306 305 304 303 302 301 301 301 300 299 299 297 296 295 295 295 295 294 293 294 294 294 294 293 293 291 289 289 289 289 290 291 291 291 290 288
304 306 307 308 309 308 308 306 305 304 301 301 301 300 300 299 298 297 296 294 294 294 294 294 294 293 292 293 292 293 291 289 288 288 288 288 287 287 287 288 289 289 289
304 305 307 309 310 310 309 307 305 303 301 300 300 299 299 298 297 295 294 293 293 292 292 292 293 292 291 290 289 288 285 286 287 288 288 288 288 287 286 285 285 285 286
304 304 306 309 310 309 308 306 303 301 300 299 299 298 298 296 295 293 292 291 291 290 290 291 290 289 288 289 288 287 287 286 286 287 287 287 287 287 286 285 283 282 283
303 305 307 309 308 307 306 303 301 300 299 299 299 299 298 296 294 293 291 290 289 287 288 288 289 289 288 288 287 286 285 284 284 284 285 286 287 286 286 285 282 281 282
302 305 306 305 305 305 303 301 301 299 300 300 299 298 297 296 295 292 291 288 287 287 288 287 288 288 289 288 288 286 284 283 283 283 283 284 286 286 286 285 282 283 284
299 301 302 301 301 302 301 300 299 300 300 298 297 297 296 294 292 290 288 287 286 286 287 287 286 287 288 289 290 288 287 286 283 282 282 284 284 284 284 283 283 285 285
298 300 299 298 299 300 300 299 299 298 297 296 295 295 294 292 291 288 286 286 286 287 287 285 284 284 285 286 289 290 290 288 284 283 284 284 283 283 282 282 283 284 282
298 299 298 298 297 298 298 299 298 296 295 294 295 294 292 290 290 288 287 287 286 287 286 284 283 284 283 283 285 287 287 288 286 285 284 284 283 282 281 280 281 280 280
298 298 298 297 297 296 296 297 296 295 293 293 294 293 292 291 288 288 288 288 290 289 286 285 284 283 282 283 285 285 284 285 285 284 283 281 280 279 279 279 279 279 279
299 299 299 297 295 293 292 292 293 293 292 291 292 292 291 290 289 288 288 291 292 291 291 291 287 285 287 286 287 287 287 287 286 283 281 281 280 279 279 278 278 279 279

GFSMW_sfc_thetae_084.txt.gz
Theta_e
312 311 311 310 325 333 335 334 335 336 338 337 336 335 336 337 338 339 338 339 339 339 336 334 336 335 334 333 333 331 331 328 329 326 325 326 327 327 327 327 325 324 325
307 309 309 309 311 328 331 332 335 335 335 337 336 336 337 336 339 339 338 339 340 338 338 336 336 335 335 334 333 332 329 329 329 326 323 319 318 322 321 322 321 319 319
308 307 308 308 308 314 324 326 331 334 334 335 334 332 332 334 333 334 334 326 329 329 328 330 331 332 332 331 331 330 328 326 328 327 323 313 310 314 318 319 319 317 316
310 310 308 308 308 310 314 314 318 323 322 325 329 327 326 327 321 323 324 318 319 318 319 319 320 320 326 329 328 329 328 327 320 322 325 322 320 312 311 317 316 316 317
307 310 307 307 309 312 313 312 312 314 313 314 317 319 313 311 311 311 311 313 314 314 314 314 315 316 317 318 319 318 318 319 320 321 321 318 318 318 316 311 314 316 317
306 308 308 307 310 312 312 312 310 310 311 311 311 310 309 308 308 309 309 310 312 312 312 313 312 313 313 313 315 317 318 319 321 321 320 318 316 315 315 313 313 312 314
305 307 305 304 307 310 311 311 310 309 311 311 311 311 311 310 310 310 310 310 310 310 307 308 308 308 308 309 310 312 314 316 318 319 320 321 320 317 315 314 312 311 311
303 306 305 305 307 309 310 310 310 310 311 311 310 310 310 308 307 307 307 306 305 305 304 305 305 305 305 306 307 309 312 314 315 314 315 314 312 313 313 313 311 306 306
300 305 306 306 307 307 308 308 309 309 309 308 308 307 307 306 305 304 304 303 303 303 302 303 302 303 303 304 305 306 307 308 312 308 310 309 308 309 309 310 310 307 300
297 300 302 304 307 309 308 308 308 307 307 307 305 305 304 303 303 302 301 300 300 300 300 300 300 300 301 301 302 303 305 307 306 307 308 307 306 306 306 306 306 305 303
298 299 300 303 306 308 308 307 306 306 305 304 303 302 301 301 300 299 299 298 299 298 298 299 298 298 298 298 299 300 301 303 304 303 302 301 303 302 302 303 302 302 300
299 300 302 304 304 304 306 307 306 305 304 303 302 300 300 299 299 298 298 298 297 297 296 297 297 297 297 297 297 297 298 298 298 298 300 299 300 298 298 298 296 294 294
299 300 301 302 302 303 303 303 303 303 302 301 301 300 299 298 297 297 297 297 296 296 296 296 295 295 295 295 295 295 295 295 294 295 296 295 297 296 294 296 295 295 296
301 300 300 300 301 302 302 302 302 302 301 301 299 298 298 298 298 297 297 297 296 295 295 295 294 293 293 295 295 296 295 295 294 294 294 293 293 293 294 293 290 291 294
300 301 301 301 301 301 301 301 301 300 299 299 299 299 299 299 298 297 296 295 294 294 294 295 295 294 294 294 294 294 294 293 292 292 292 291 292 293 293 289 287 287 287
298 302 303 302 302 301 301 301 300 299 299 298 297 298 299 298 297 296 295 293 292 292 293 294 294 293 294 295 295 294 292 292 290 286 285 286 289 290 292 292 292 289 284
299 300 302 303 302 302 302 300 299 299 298 297 297 297 297 296 295 295 295 294 291 293 293 293 293 292 292 294 294 294 290 286 285 284 284 286 286 286 285 289 290 289 290
300 300 301 303 304 304 302 301 300 298 297 297 297 297 296 295 294 293 294 292 291 292 292 292 292 292 290 291 291 290 284 283 282 282 283 284 285 285 284 282 282 282 283
299 298 299 301 304 303 302 301 298 297 296 296 296 296 295 294 294 293 292 289 291 290 289 290 288 285 285 289 289 286 283 282 283 285 285 284 284 288 287 282 280 279 281
298 299 300 301 303 302 301 299 297 296 295 296 296 296 295 294 294 292 291 289 289 287 287 287 287 289 285 289 289 286 282 281 281 282 283 287 285 287 286 281 278 278 279
297 299 299 299 300 300 299 297 296 295 296 297 296 295 294 294 294 292 291 287 286 286 286 286 285 285 286 286 289 288 283 281 280 280 279 282 286 286 287 285 279 281 281
297 298 297 296 297 298 298 296 295 296 296 296 295 294 293 294 292 290 287 287 286 286 286 285 284 284 285 289 290 289 287 286 281 280 279 282 285 285 285 283 284 285 285
296 297 296 295 296 297 297 295 294 295 295 294 293 292 292 292 291 287 286 286 286 286 286 284 282 282 283 284 291 292 291 289 283 281 284 286 284 284 282 283 283 285 280
294 295 295 294 295 296 296 296 295 294 293 294 294 293 291 290 289 288 287 286 285 285 286 282 281 281 281 281 283 285 286 289 287 285 282 283 283 283 281 280 280 279 278
296 295 294 293 293 293 293 294 294 293 292 293 293 292 291 290 288 288 287 287 288 288 287 283 282 281 280 280 284 284 283 283 285 283 280 280 279 278 277 277 277 278 278
297 297 297 293 292 291 293 293 294 294 293 292 292 291 290 290 288 287 287 291 291 292 293 291 286 284 287 288 288 288 288 288 288 282 279 279 278 278 277 277 277 278 279

GFSMW_sfc_thetae_087.txt.gz
Theta_e
309 308 311 316 324 330 334 336 336 335 336 334 333 333 333 335 336 337 338 338 338 337 335 334 334 335 333 333 333 331 331 329 330 328 326 324 325 326 325 325 324 323 322
306 306 307 308 314 329 332 333 336 333 336 337 335 333 332 334 336 337 336 338 337 337 336 335 335 335 334 333 333 332 329 329 329 325 324 316 316 318 318 319 320 319 319
304 304 305 306 307 319 327 331 333 332 333 334 334 331 331 331 332 332 327 326 328 326 326 327 330 331 331 330 330 330 328 325 327 328 323 314 309 312 316 317 317 317 315
305 305 305 305 305 310 318 320 327 331 330 333 331 329 328 327 325 331 323 321 319 317 317 316 317 318 319 321 323 325 323 325 321 322 321 319 320 314 309 314 315 315 317
303 305 305 307 306 310 311 313 315 318 318 321 327 326 318 315 314 315 315 313 313 313 313 313 313 314 315 315 315 315 315 315 315 316 318 318 319 315 312 307 311 314 314
303 304 306 306 307 310 311 310 311 310 314 312 314 313 309 307 307 307 308 310 311 310 310 311 310 310 310 310 311 313 313 313 314 315 319 316 315 311 311 310 309 313 311
302 303 303 303 307 307 309 310 311 311 313 310 310 309 308 307 308 308 308 309 309 307 306 307 306 306 306 306 307 308 309 311 312 313 316 318 315 315 316 314 312 308 308
299 301 303 303 306 308 308 308 308 310 311 309 309 309 309 308 307 308 306 305 305 304 304 304 304 303 303 304 305 306 309 310 311 312 313 313 311 312 312 313 312 307 307
297 301 302 304 305 306 307 308 308 308 309 309 308 306 306 305 304 304 303 302 301 301 301 301 301 301 301 302 302 303 305 305 307 307 309 309 308 309 309 310 310 308 301
296 298 301 302 305 306 306 306 309 308 307 307 306 304 304 303 303 301 300 300 300 300 299 299 299 299 299 299 299 301 303 303 303 306 305 304 306 305 305 305 306 305 304
295 296 299 302 304 304 305 304 306 306 305 305 303 302 301 300 300 299 298 299 298 298 297 298 297 297 297 297 297 298 299 300 303 302 301 301 303 301 302 302 302 301 301
297 297 298 301 302 303 304 304 306 306 304 302 302 300 300 299 297 297 298 298 297 297 296 296 296 295 295 295 295 296 296 297 297 297 298 299 299 297 298 298 297 296 296
297 298 299 300 300 301 302 303 303 304 302 301 301 300 299 299 298 297 297 297 296 295 295 295 294 294 294 293 293 294 293 293 293 295 296 297 297 295 295 296 295 293 295
298 298 298 299 299 300 301 301 301 301 301 300 298 298 298 298 297 296 295 295 295 294 294 294 293 293 292 293 293 294 294 293 292 293 293 293 293 293 293 292 290 293 294
298 298 298 298 299 299 299 299 299 299 299 298 297 297 297 297 296 295 295 295 294 293 293 293 293 294 294 294 294 295 294 293 292 292 291 292 293 294 293 288 286 287 288
298 299 300 300 299 299 299 299 298 298 298 297 296 297 297 296 295 294 293 292 291 291 292 292 292 293 294 295 295 294 292 291 290 288 286 287 289 290 293 292 292 288 285
297 297 300 301 301 300 301 299 298 298 296 296 296 296 296 295 294 293 292 291 290 291 291 292 293 292 293 295 296 295 291 288 286 282 282 284 286 286 285 290 290 290 291
296 298 298 301 301 301 301 300 299 298 296 295 295 296 295 294 293 292 291 291 289 289 291 292 292 291 291 293 294 291 285 282 279 280 282 283 283 283 284 283 283 282 282
296 296 297 298 301 302 302 300 298 297 296 295 295 295 295 293 292 290 290 291 288 288 288 290 289 288 287 291 291 285 282 282 283 284 284 285 284 287 287 282 280 280 281
295 296 298 299 298 301 301 299 297 296 295 295 295 295 294 293 291 290 291 290 288 285 288 287 288 288 283 290 290 286 282 281 282 282 283 289 286 288 287 280 279 278 279
295 296 296 296 297 299 300 298 296 295 296 296 295 294 294 292 292 290 291 289 287 287 287 286 287 287 284 285 290 289 282 281 280 280 280 283 288 288 287 285 279 280 281
295 296 294 294 295 296 297 295 294 295 296 295 294 293 292 293 292 291 289 288 287 286 286 285 285 284 283 289 290 290 288 286 281 280 280 281 287 287 287 284 285 286 285
294 295 294 294 295 296 297 295 295 295 294 293 292 291 291 291 291 289 287 286 286 286 286 285 284 281 283 283 291 291 289 289 282 281 282 286 287 286 284 285 285 285 280
293 294 293 292 293 295 296 295 294 294 293 292 291 291 289 290 290 289 288 287 286 286 286 285 284 281 281 281 282 286 288 291 287 285 284 285 284 283 281 281 282 280 280
294 294 294 294 293 293 293 294 294 293 292 292 292 291 291 291 289 288 288 287 288 288 286 286 284 281 279 281 284 285 284 284 286 283 280 280 279 278 278 278 277 278 278
295 296 295 293 292 292 292 293 294 294 293 292 292 292 291 290 289 288 287 291 291 292 292 291 287 283 287 288 289 289 289 289 290 284 280 279 279 279 278 278 277 277 279

GFSMW_sfc_thetae_090.txt.gz
Theta_e
307 308 320 325 329 333 332 333 334 335 335 333 335 331 334 334 334 333 336 335 335 334 333 332 331 333 332 332 331 330 329 330 330 328 325 322 324 323 323 323 323 322 321
307 306 307 315 324 329 332 332 334 334 334 335 335 333 332 331 333 335 336 338 338 337 335 334 334 335 334 333 332 332 330 329 329 324 322 314 315 316 317 317 318 316 318
305 306 304 305 309 325 329 332 334 333 334 335 334 330 331 330 330 329 327 329 330 328 329 330 331 331 331 330 330 330 328 325 326 324 320 315 309 311 315 315 315 316 315
303 305 305 304 304 313 326 329 331 331 333 332 332 328 327 326 328 329 324 324 323 320 319 318 317 318 319 319 319 321 319 319 316 317 319 318 321 315 310 313 313 314 313
303 304 304 305 306 306 317 322 326 327 327 330 331 329 325 326 320 321 319 318 315 314 314 314 314 313 314 314 315 314 314 314 313 314 314 316 316 313 315 310 310 311 308
301 302 305 304 303 306 310 313 317 319 318 319 325 325 321 314 314 312 313 311 310 310 310 310 310 310 309 309 309 309 310 312 313 313 313 312 310 311 312 310 308 307 306
299 300 302 301 303 306 307 309 310 311 315 313 316 317 316 314 314 313 313 311 311 307 307 307 306 306 306 306 307 307 308 309 310 310 311 311 311 315 314 312 310 311 306
298 300 301 301 304 306 306 307 308 309 310 312 314 315 312 312 312 311 312 310 308 305 304 303 303 303 303 303 303 303 305 306 308 308 308 309 309 311 312 314 312 307 307
296 299 300 301 304 305 306 306 306 307 308 309 310 310 308 308 306 305 304 303 302 302 301 301 301 301 301 301 301 301 303 304 305 305 306 306 306 306 309 309 309 307 303
295 298 299 300 303 304 305 305 306 306 307 307 307 306 305 304 303 302 301 300 300 300 300 299 299 299 298 298 298 299 301 301 302 302 303 303 303 303 305 305 306 305 303
294 295 298 300 303 303 304 304 305 305 305 306 305 304 303 303 302 301 300 299 299 298 298 297 297 297 296 296 296 297 298 299 300 300 300 301 300 299 302 302 303 302 302
295 296 296 300 301 302 302 303 303 304 305 304 302 301 302 300 300 299 299 298 297 297 297 297 296 296 296 295 294 294 295 296 296 297 297 298 298 297 298 298 297 297 297
296 296 297 299 299 300 301 301 302 302 303 302 300 299 297 298 298 298 297 297 297 296 296 296 295 294 294 293 293 292 292 292 292 294 297 297 297 295 295 296 295 295 296
297 296 297 298 299 300 300 300 300 300 299 300 300 298 298 297 298 296 297 296 295 295 294 294 293 293 292 292 292 292 292 292 292 293 294 294 294 294 294 292 292 294 294
296 297 297 297 298 298 299 299 299 298 298 297 297 297 297 297 297 296 294 294 294 294 293 293 292 292 292 294 294 295 294 293 292 292 292 293 294 295 294 290 286 289 291
295 298 298 298 298 297 298 299 298 297 297 296 296 296 296 295 294 294 293 292 291 291 291 292 291 291 293 295 296 295 293 292 290 288 288 289 289 292 293 292 291 289 286
295 295 296 299 299 298 299 298 297 297 296 296 295 296 295 294 293 292 291 290 289 289 289 290 290 289 293 296 297 296 292 289 287 286 284 284 286 286 285 290 291 291 291
295 295 295 296 299 300 299 299 297 297 296 295 295 295 295 293 292 291 290 289 288 288 288 289 290 291 292 295 295 293 286 286 285 280 281 281 281 282 284 282 282 281 283
295 295 295 295 296 299 301 299 297 297 296 295 295 295 294 292 291 290 289 288 288 287 287 290 291 290 290 294 294 288 284 283 282 283 283 284 283 287 287 282 281 281 282
294 294 294 296 296 297 299 298 297 296 295 295 295 295 294 293 291 289 288 289 290 285 287 286 289 290 287 292 292 286 281 280 281 281 283 289 286 289 288 281 280 279 280
294 295 294 293 294 296 298 298 296 295 297 296 295 294 294 292 291 289 288 288 288 287 287 287 287 287 287 286 291 289 281 281 280 281 281 283 289 289 288 284 280 280 281
294 294 293 293 294 295 298 296 295 296 297 295 295 293 292 293 291 289 287 288 288 287 287 286 286 286 286 289 290 291 288 285 280 280 280 282 288 288 288 286 285 287 285
293 294 293 293 293 294 296 295 295 296 296 295 293 292 292 291 290 288 286 288 288 287 286 286 285 284 284 282 291 291 291 289 281 281 283 285 288 288 286 287 286 286 281
292 293 292 291 292 293 295 296 296 296 295 294 292 292 291 290 289 289 289 288 287 286 286 285 284 284 283 281 282 285 286 289 287 285 283 285 286 285 283 282 282 281 280
293 293 292 293 292 292 293 294 294 294 293 292 291 290 290 290 289 289 289 288 289 288 287 286 286 284 283 281 284 284 284 284 286 282 281 281 280 279 279 278 278 278 279
294 293 293 293 293 293 294 294 294 293 292 291 291 291 290 290 289 288 288 292 291 292 292 291 288 285 289 289 289 289 289 290 290 284 279 279 279 279 279 278 278 277 279

GFSMW_sfc_thetae_093.txt.gz
Theta_e
313 314 323 327 329 329 331 332 334 336 337 335 333 332 333 334 334 335 335 334 331 331 330 329 329 330 329 331 331 330 329 329 329 328 322 321 321 320 319 318 318 321 321
306 307 309 321 325 330 331 331 334 334 335 335 335 334 333 332 334 335 335 334 333 334 333 333 332 334 333 333 332 332 330 329 329 323 321 312 314 315 315 315 315 315 315
304 306 303 310 316 323 327 331 331 333 333 335 333 329 330 329 328 329 330 331 333 332 331 331 331 331 331 330 330 329 328 325 322 321 319 313 307 309 315 315 314 314 312
303 304 305 303 305 311 324 328 331 331 332 330 330 328 327 325 327 326 324 325 326 325 324 324 323 321 321 320 320 320 319 318 316 315 317 316 316 311 309 312 312 313 312
302 304 305 305 306 305 308 322 325 327 329 329 331 329 326 326 324 323 322 318 318 318 317 316 316 316 317 315 316 315 313 313 313 313 312 311 311 314 311 305 307 308 306
301 302 304 305 304 303 306 314 320 323 322 325 326 326 325 321 320 320 319 317 315 313 313 313 312 312 309 309 308 308 309 310 310 311 311 311 309 307 306 306 311 310 305
299 300 300 301 303 303 306 309 314 317 316 316 321 322 321 319 320 319 317 314 313 312 311 311 309 306 306 306 306 306 307 307 308 309 309 310 309 312 311 311 309 308 303
296 297 299 300 300 302 305 308 309 310 313 312 313 314 316 316 316 316 315 314 313 309 305 304 304 304 303 303 303 303 304 306 306 307 307 307 307 307 308 309 311 307 306
295 296 299 298 300 301 304 306 307 307 308 309 309 310 312 311 311 311 311 309 306 304 302 301 301 300 300 300 300 300 301 303 303 304 304 304 305 304 305 307 309 308 304
294 295 298 298 299 301 303 304 305 305 306 307 306 306 306 308 307 305 302 302 301 301 300 300 299 298 298 298 298 298 299 300 301 302 300 301 301 302 301 303 305 306 305
294 294 296 299 300 302 303 303 304 304 304 304 303 302 302 302 303 304 303 301 300 299 299 298 298 298 297 297 296 296 297 297 298 299 299 299 301 298 298 299 303 302 302
295 295 295 297 299 300 301 302 303 303 303 302 302 300 300 301 301 299 301 301 300 299 299 298 297 296 296 295 294 294 295 295 295 297 296 296 299 297 296 298 298 297 298
296 296 296 297 298 298 299 300 301 302 301 300 300 299 299 298 297 296 296 298 297 296 296 296 295 294 293 293 292 292 292 292 292 293 295 297 297 296 296 296 295 296 296
295 295 295 296 298 298 299 300 300 300 300 299 298 298 298 298 296 296 297 296 296 295 295 294 294 292 292 292 292 292 291 291 291 292 294 295 295 295 294 293 293 294 294
293 295 296 296 296 297 298 299 299 299 298 297 297 297 297 298 298 297 296 295 295 294 292 291 291 291 292 293 291 293 293 293 292 292 292 293 294 295 294 292 290 291 292
294 294 296 296 297 297 298 298 298 298 297 296 296 296 295 295 294 293 292 292 291 291 291 291 291 290 293 295 297 296 293 293 291 289 289 289 290 293 294 293 292 289 289
294 294 294 294 295 297 299 298 297 297 296 296 295 295 294 293 292 292 291 290 289 289 289 289 289 289 290 296 297 297 292 290 289 287 286 286 287 286 285 291 291 291 291
294 294 294 294 295 296 298 299 297 297 296 295 295 294 294 293 291 290 290 288 288 288 288 288 289 288 291 295 296 295 287 286 286 285 284 281 280 282 283 282 281 281 282
294 294 294 294 294 295 297 297 296 296 296 295 295 294 294 292 291 289 288 287 287 286 287 287 287 287 290 294 295 290 287 286 285 284 282 281 280 285 288 282 281 281 282
294 293 293 293 294 296 296 296 296 295 295 296 295 295 294 293 291 290 288 287 287 286 287 286 287 290 289 293 294 289 283 282 282 281 281 289 284 289 288 281 280 279 280
294 294 294 292 293 293 294 295 295 295 298 296 295 294 294 293 292 289 287 287 285 288 288 288 289 288 289 288 293 291 281 281 280 280 280 282 290 290 289 285 280 280 282
294 294 293 292 293 293 293 294 294 296 295 296 295 293 292 293 291 289 287 286 287 288 288 287 287 286 287 290 291 292 289 285 280 279 279 281 289 290 289 286 285 287 284
293 293 292 292 293 293 293 293 293 294 295 296 295 294 293 293 291 289 287 287 288 288 287 286 286 285 285 285 291 291 292 290 281 280 282 285 287 289 287 288 287 287 281
294 293 292 291 291 292 293 294 293 294 295 295 294 293 293 291 290 289 288 287 286 287 287 286 285 285 284 284 283 283 286 291 287 285 282 284 285 287 284 284 284 281 281
297 293 292 292 292 292 292 292 295 295 295 294 294 293 292 291 290 290 289 289 290 290 288 287 286 285 284 285 286 284 283 283 284 282 280 281 281 280 279 279 279 279 280
297 294 294 293 293 293 294 294 294 295 294 292 292 291 291 290 290 289 288 292 292 292 293 292 289 287 290 290 290 290 290 290 291 284 279 279 280 280 279 278 278 278 279

GFSMW_sfc_thetae_096.txt.gz
Theta_e
314 321 326 329 330 331 328 332 331 334 336 334 334 334 332 334 335 334 332 331 329 329 325 325 324 326 327 327 327 329 328 329 328 326 320 319 319 317 315 315 316 318 319
306 307 315 323 328 329 331 332 333 332 334 334 334 333 333 332 333 334 334 333 331 331 329 328 328 329 330 331 330 330 329 329 329 321 320 310 312 313 314 313 314 312 313
303 304 306 317 321 325 330 331 332 332 333 333 332 329 329 329 329 330 331 332 332 332 331 331 332 330 329 328 328 329 327 321 319 319 319 312 306 308 312 312 312 311 310
302 304 304 304 313 318 324 328 329 331 333 333 332 330 329 327 329 329 328 326 327 326 327 328 329 328 325 324 323 323 321 319 316 316 316 314 314 312 308 310 309 308 309
302 304 304 305 306 306 311 322 326 326 328 329 331 330 328 329 325 325 323 322 322 322 321 322 320 320 320 320 320 316 315 314 313 312 312 310 310 310 308 304 305 305 304
301 303 304 304 305 304 305 309 320 323 324 326 328 327 326 323 322 321 320 318 317 316 316 315 313 313 312 311 310 309 310 310 309 309 309 309 308 305 304 303 303 304 302
299 300 301 302 303 304 304 306 312 318 320 319 324 325 323 321 321 321 318 315 314 313 311 311 308 307 307 306 307 307 307 307 308 308 308 308 308 311 311 307 305 305 302
296 298 299 300 301 302 302 305 309 313 315 313 315 316 317 317 317 317 317 315 313 311 309 306 305 304 304 303 303 304 305 306 306 305 305 306 306 306 307 307 306 305 304
294 295 297 299 298 299 301 303 307 309 312 312 312 311 311 312 312 314 315 314 312 309 306 305 303 302 301 301 301 301 300 302 302 302 303 303 304 303 304 305 308 306 302
293 294 294 297 298 300 301 303 306 307 307 308 307 308 308 308 308 308 307 307 306 304 302 301 300 299 299 299 298 298 298 300 300 301 300 300 301 301 302 302 302 306 305
293 293 294 296 299 300 300 301 303 304 304 305 303 303 303 303 303 304 303 303 302 301 301 300 299 298 297 297 297 297 296 297 298 297 297 298 299 298 300 299 300 300 302
294 294 295 296 298 298 299 300 302 303 303 303 301 300 300 300 299 298 298 299 298 298 299 298 298 297 296 296 295 295 294 294 294 295 296 297 299 298 298 297 295 296 298
294 294 294 295 296 297 298 300 300 301 301 301 300 298 298 297 297 296 297 297 296 295 296 295 295 295 294 294 293 293 293 292 292 292 294 295 298 296 296 296 296 296 297
293 293 294 295 295 296 297 298 299 300 299 299 298 297 296 296 296 297 297 296 295 294 294 294 294 294 293 292 292 292 291 291 291 292 293 295 295 295 294 294 293 294 295
294 293 293 294 295 296 297 297 298 298 298 297 297 296 296 296 295 295 295 295 295 294 293 293 292 291 292 292 291 292 292 292 292 292 293 294 295 295 295 293 291 292 293
293 293 293 294 295 295 296 297 298 298 297 296 296 296 295 295 294 293 293 294 292 291 292 291 290 290 292 295 297 295 292 293 292 290 289 290 290 293 294 293 292 291 291
294 294 294 294 294 294 295 296 297 297 296 296 296 295 294 293 292 291 291 290 289 289 289 289 289 288 289 296 297 297 293 291 290 288 287 287 288 286 285 290 290 290 292
294 295 295 295 295 295 295 296 296 296 296 295 295 294 294 292 291 290 289 288 287 288 287 288 288 288 289 295 296 297 288 287 287 286 286 285 283 283 283 281 280 281 282
294 294 295 295 294 295 296 295 295 295 295 295 295 294 294 292 291 290 288 287 287 286 286 287 287 286 287 295 296 291 288 287 286 285 284 282 280 284 289 281 280 279 281
294 294 294 294 293 295 294 294 295 293 294 296 296 295 294 293 291 290 288 287 286 286 287 287 285 289 286 293 295 290 286 285 285 284 282 288 283 287 289 280 278 278 279
294 294 293 292 294 294 293 292 293 293 297 296 294 294 294 293 292 290 287 287 285 286 287 287 287 287 288 287 294 293 285 283 281 281 280 281 290 289 289 285 279 280 281
293 294 292 293 294 293 292 292 292 296 295 295 294 293 293 293 291 289 286 286 286 285 286 288 288 288 288 291 292 294 288 285 280 280 280 280 288 290 290 286 284 286 285
295 294 293 293 293 293 292 292 294 293 293 294 295 294 292 292 290 288 286 286 285 286 285 287 286 286 286 286 292 292 293 291 281 280 282 285 287 290 288 289 288 288 280
294 295 293 291 292 292 292 292 293 293 293 293 295 294 293 292 291 291 290 288 287 286 286 287 286 286 285 285 285 287 288 291 288 286 283 285 285 286 284 284 285 281 281
295 296 296 296 293 292 292 292 293 293 291 291 293 293 293 291 290 290 290 290 289 289 288 288 287 285 285 286 287 286 284 283 285 282 280 280 280 280 280 279 279 279 280
296 295 296 296 294 294 293 293 294 295 294 294 293 293 293 291 291 290 289 293 292 293 293 292 289 287 290 291 291 291 290 290 290 282 280 278 279 279 279 279 279 278 280

GFSMW_sfc_thetae_099.txt.gz
Theta_e
323 322 325 329 328 328 327 328 329 329 333 335 334 334 332 335 336 335 335 335 335 333 332 331 331 330 329 330 330 330 329 330 331 332 330 329 327 325 325 324 326 325 325
312 321 325 327 328 326 326 327 328 329 331 334 335 335 334 335 336 337 337 336 334 331 332 331 330 329 330 331 332 332 331 333 333 327 325 319 321 322 321 322 321 320 323
307 309 318 324 326 325 325 326 329 330 332 335 335 332 333 333 333 334 335 335 334 334 333 331 331 331 333 333 333 332 332 329 328 328 325 317 314 318 321 319 319 318 318
306 307 309 312 320 324 329 328 330 331 332 332 333 331 328 327 330 332 331 329 331 328 329 330 331 331 329 327 326 326 326 327 324 324 323 324 321 316 313 318 316 315 314
306 308 308 309 312 314 322 326 328 329 332 331 333 331 329 330 330 331 326 323 322 322 322 323 323 321 321 320 321 319 320 320 321 322 320 320 319 321 317 311 314 313 312
305 305 307 308 308 310 310 315 324 327 328 330 331 330 329 329 326 326 324 320 320 318 318 316 314 314 313 313 313 312 314 315 315 317 317 316 315 314 314 313 313 313 311
302 303 304 306 307 308 307 308 313 318 325 328 328 329 328 327 326 324 321 318 316 314 314 312 311 310 309 309 308 309 310 311 313 313 313 315 316 316 314 312 311 312 309
300 301 302 302 303 305 306 306 309 313 320 321 324 326 326 324 324 324 321 319 317 315 314 311 311 308 307 306 306 306 308 310 311 311 311 313 313 314 314 312 310 307 309
297 298 300 301 302 302 303 305 307 311 316 316 317 318 319 320 321 320 320 318 315 313 312 310 307 306 306 305 305 305 305 307 307 308 310 310 310 311 311 311 309 305 302
296 297 297 300 302 303 304 305 307 310 313 315 314 314 314 315 316 317 315 314 313 311 309 307 305 304 303 303 303 302 302 304 305 305 306 306 307 307 308 308 308 308 306
296 297 298 299 301 303 304 305 306 308 309 309 309 310 310 311 311 313 311 310 309 307 306 304 302 300 300 300 300 300 301 301 301 302 303 303 304 305 305 305 303 304 304
297 297 297 299 300 301 303 304 305 306 307 307 307 306 306 307 306 305 303 304 302 302 302 302 300 300 299 299 298 297 298 298 298 298 300 300 300 301 302 301 300 300 301
296 296 298 298 298 300 302 303 304 305 305 305 304 303 303 303 302 301 301 302 301 300 300 300 299 298 298 297 296 296 297 297 297 297 299 300 300 300 300 299 299 299 299
296 295 295 296 298 299 300 302 303 303 304 303 302 302 301 302 301 301 300 300 300 299 298 298 297 297 296 296 296 296 296 296 296 296 297 298 298 298 297 296 296 296 297
295 295 295 296 297 298 299 300 301 302 302 301 301 301 301 300 300 299 299 298 298 297 297 296 295 295 296 295 296 296 296 296 295 295 295 296 296 296 296 295 295 294 294
294 295 295 296 296 296 297 298 300 301 301 301 301 300 299 298 298 297 297 297 296 296 296 295 295 295 295 298 298 296 296 296 295 293 292 292 292 294 295 294 293 293 292
294 294 295 295 296 297 297 297 297 299 299 300 300 299 299 298 297 296 296 295 295 294 294 294 294 294 295 297 298 298 296 295 293 292 290 289 290 290 290 291 289 290 292
294 295 296 296 297 297 297 297 297 297 298 298 299 299 298 297 295 295 294 293 293 293 293 293 293 293 293 297 298 298 290 290 290 290 289 288 286 287 288 286 285 286 287
294 295 296 296 296 296 297 296 296 297 297 297 298 298 297 296 294 294 293 291 292 291 291 292 291 292 292 296 297 293 291 290 288 287 286 285 284 286 289 285 284 284 286
295 295 296 296 295 297 296 295 296 296 295 297 298 298 297 296 294 294 292 291 292 289 290 289 290 291 291 295 296 293 290 289 287 286 285 288 285 287 291 285 284 282 284
294 295 296 295 296 297 295 294 295 295 297 297 298 297 297 296 296 293 291 290 288 289 290 290 289 291 291 291 296 295 289 288 287 286 285 285 290 290 291 286 284 283 284
291 293 293 295 296 297 294 294 294 297 296 297 296 296 296 295 293 292 290 290 289 288 289 289 289 291 291 292 294 296 291 289 287 286 285 285 289 291 291 289 285 286 286
291 293 293 293 295 296 295 293 295 296 295 295 295 295 294 294 293 291 290 289 290 289 288 290 289 289 289 290 293 294 295 289 283 284 284 286 288 291 290 290 288 288 283
291 293 293 294 295 296 296 294 295 295 294 294 295 295 294 293 292 292 291 291 290 289 289 288 289 289 288 288 288 291 292 293 290 287 286 287 286 287 287 287 288 284 284
292 293 293 294 294 296 296 295 294 294 293 293 294 294 294 293 291 292 291 291 291 291 290 289 289 288 287 288 289 288 287 287 288 285 283 283 283 283 284 283 283 283 284
291 292 293 292 293 295 296 295 294 295 294 292 292 293 294 293 292 290 290 293 293 294 293 293 291 289 291 292 292 292 291 291 291 283 282 281 282 282 283 282 281 281 282

GFSMW_sfc_thetae_102.txt.gz
Theta_e
322 326 321 328 329 329 328 327 328 330 333 336 336 336 336 336 336 337 338 337 338 338 340 340 339 338 334 332 332 333 332 333 334 333 330 331 332 329 329 329 331 329 330
319 318 318 321 325 326 327 327 328 329 330 334 336 337 337 338 340 340 339 338 339 338 338 338 337 337 335 333 333 334 334 334 335 328 328 321 323 326 327 328 327 326 329
316 315 316 321 325 324 326 327 327 329 329 331 335 337 339 338 338 338 339 340 339 339 337 336 335 335 335 333 335 336 335 331 334 333 326 320 316 321 325 325 325 325 326
310 313 319 322 323 325 328 328 328 329 328 331 333 330 328 330 333 335 336 335 336 335 332 332 332 331 332 333 334 330 331 331 327 329 328 330 327 317 314 322 323 323 321
309 310 312 317 323 327 328 328 328 329 330 330 331 328 328 330 332 332 332 329 331 331 330 331 330 324 321 319 319 320 320 320 323 323 325 324 324 323 318 312 316 320 320
308 309 310 311 313 318 324 328 329 328 331 331 331 330 330 329 329 330 330 325 324 324 323 324 322 319 317 315 314 314 315 315 316 317 318 316 314 314 315 313 314 314 317
307 308 308 310 311 312 313 315 324 328 330 331 332 332 332 330 329 330 330 324 320 318 318 318 318 318 317 314 313 312 313 314 315 315 316 316 317 317 316 314 313 312 315
304 304 306 307 308 308 310 312 312 315 321 328 330 331 333 330 332 331 328 324 321 318 317 318 319 315 313 311 311 312 313 313 313 313 314 315 316 317 316 313 311 308 311
302 303 305 306 307 308 307 309 311 313 317 322 327 330 328 327 327 328 327 325 322 319 317 317 315 314 312 312 313 313 311 312 312 312 313 313 315 315 316 314 312 308 304
302 303 303 305 307 309 309 309 309 311 315 320 323 324 325 327 328 325 323 321 321 317 314 313 314 312 312 310 309 308 308 308 308 309 309 310 311 312 312 312 311 309 307
302 303 304 305 306 309 310 310 310 312 314 318 319 320 320 321 323 322 321 320 318 315 313 312 312 309 307 305 305 305 305 305 305 306 307 307 308 308 308 308 308 307 307
303 303 304 305 306 307 309 310 311 311 314 315 314 314 316 317 318 318 316 315 313 314 314 311 308 306 305 304 304 303 302 302 302 302 303 304 304 305 305 305 305 305 305
303 303 303 303 304 305 306 308 310 311 311 311 312 311 312 313 314 314 312 311 310 311 310 308 305 304 304 304 304 303 303 303 303 304 304 304 305 304 304 303 303 304 302
301 301 302 303 304 304 305 306 308 309 310 309 309 310 310 311 311 310 309 310 310 307 306 306 305 304 303 302 302 302 301 301 301 302 303 303 304 303 302 302 301 300 300
300 300 301 302 303 303 304 304 305 306 308 308 308 309 309 309 308 308 308 307 306 305 305 304 303 302 301 300 301 301 301 301 300 300 300 301 299 297 299 299 300 298 297
299 300 301 302 302 303 303 304 304 304 305 306 308 309 307 306 306 306 305 305 304 303 303 302 301 300 299 298 299 301 300 300 300 298 298 298 296 297 296 295 294 295 295
298 299 300 301 302 303 303 303 304 304 304 304 305 307 307 305 305 305 304 303 302 302 301 301 300 300 299 299 299 299 300 299 299 297 296 294 294 293 295 294 293 292 293
296 297 299 300 301 302 303 303 303 303 303 303 303 305 306 305 304 303 302 302 302 300 300 300 300 300 299 299 299 299 296 296 297 296 295 293 291 291 291 291 289 289 290
295 296 297 298 300 300 301 302 302 302 302 302 303 304 305 304 304 301 301 301 300 300 300 299 299 299 298 298 299 298 296 295 294 293 291 290 288 290 290 289 287 288 289
294 294 295 297 298 299 300 300 299 300 301 302 302 303 304 304 304 302 301 300 300 297 297 297 298 298 298 297 298 297 296 294 293 290 288 289 287 289 291 288 287 286 287
293 294 295 294 296 297 298 297 298 299 301 302 302 302 302 302 304 303 302 299 297 296 295 296 297 296 298 297 297 296 295 294 293 290 287 287 290 289 291 289 287 286 288
292 294 293 294 297 298 297 297 297 300 301 302 301 301 301 301 300 301 299 297 295 292 291 292 293 296 296 297 296 297 294 294 292 291 292 291 290 291 291 290 287 287 287
291 292 292 293 295 296 297 296 299 300 300 300 300 301 301 300 300 298 296 295 294 293 291 291 291 293 295 295 295 297 295 293 291 291 290 289 289 292 291 291 288 288 286
290 292 291 291 292 294 295 295 296 299 299 298 299 300 299 298 298 297 296 295 293 292 292 292 293 293 292 293 295 295 295 292 288 287 288 288 288 290 291 290 289 287 286
288 289 289 291 291 292 292 293 295 297 297 297 298 298 298 297 295 296 296 296 295 296 293 294 293 292 291 292 293 294 293 291 290 288 287 286 286 285 287 287 288 287 286
288 288 290 289 289 290 290 293 296 297 296 296 297 297 296 296 295 293 293 296 296 296 295 294 293 291 293 293 293 292 293 293 293 286 286 285 284 284 284 284 284 285 285

GFSMW_sfc_thetae_105.txt.gz
Theta_e
316 323 321 326 327 326 328 328 328 329 332 335 335 335 334 336 336 336 336 335 336 339 340 339 339 341 336 334 332 331 330 331 334 331 329 329 331 330 329 329 328 329 329
318 319 318 318 319 323 326 327 327 328 330 334 334 337 337 338 338 338 337 337 337 338 339 339 340 338 338 336 333 332 331 333 334 329 327 320 323 326 325 326 326 326 327
316 315 315 317 319 322 325 326 327 328 329 331 332 334 337 338 337 338 338 338 339 340 340 339 339 336 334 335 334 335 333 331 334 333 326 319 317 321 325 325 324 324 325
316 316 315 317 321 321 326 326 326 326 328 330 330 330 329 329 334 337 338 338 339 338 338 337 334 331 331 331 325 327 330 333 327 331 328 329 325 319 313 322 323 322 321
314 316 317 319 321 322 324 325 325 326 327 328 329 330 328 330 332 332 333 333 334 334 333 334 330 329 326 323 322 321 320 321 323 323 322 319 320 321 317 311 315 320 321
311 314 316 318 321 324 324 326 326 326 326 327 327 328 327 327 327 329 329 329 329 329 330 331 330 326 324 321 319 319 319 317 317 317 319 316 313 314 315 312 313 314 318
308 309 310 311 313 318 322 325 326 325 326 327 327 328 327 326 327 326 326 326 324 322 322 323 323 323 323 322 320 319 318 316 314 315 316 317 316 318 316 313 312 312 316
307 306 308 311 312 313 313 316 320 325 327 329 327 328 330 328 329 329 328 329 327 323 320 320 321 320 319 319 317 317 316 315 316 316 315 316 316 317 316 315 312 309 309
304 305 307 308 309 309 310 312 312 314 318 325 329 330 330 330 331 331 330 327 324 321 320 320 318 315 315 314 313 314 313 313 314 315 315 314 314 315 316 314 313 309 304
303 304 304 307 309 311 311 311 310 311 314 318 322 325 329 329 328 328 326 326 323 320 318 316 315 313 313 313 314 314 313 313 312 312 311 311 312 312 312 313 312 310 308
303 304 304 306 308 310 312 312 312 312 313 317 320 322 324 325 327 326 324 323 322 319 316 315 313 312 313 313 311 310 309 308 308 308 308 309 310 309 310 309 308 308 307
303 303 304 304 305 306 308 310 311 312 314 316 317 318 320 320 321 322 321 322 319 317 315 313 313 313 312 310 309 306 305 306 305 305 305 306 306 306 307 307 306 305 306
303 303 304 304 304 304 305 307 309 310 312 312 313 313 314 315 317 319 318 317 316 314 313 312 311 311 308 305 305 305 304 304 304 304 303 304 305 304 304 304 304 304 303
301 302 303 304 304 304 305 305 305 307 309 310 310 310 311 312 314 315 315 313 312 312 311 311 310 307 305 305 304 304 303 303 303 304 304 305 305 305 305 303 303 302 301
300 301 301 302 303 304 304 305 305 306 306 307 309 310 311 311 311 311 311 312 310 309 309 308 307 304 303 303 302 303 302 302 301 302 302 303 301 298 301 301 300 299 298
299 300 301 302 302 303 303 304 305 305 306 305 305 309 310 310 309 308 309 309 308 307 306 305 304 302 301 302 303 303 302 302 301 299 299 298 296 297 298 297 296 297 297
296 296 297 299 300 301 303 302 304 305 304 305 305 306 307 308 308 307 307 306 305 305 304 303 303 302 301 301 302 302 302 301 300 299 298 297 296 296 296 295 295 294 294
293 294 295 296 297 298 299 300 302 303 303 304 304 305 306 306 307 307 306 305 305 303 303 302 302 301 301 300 300 300 298 297 298 297 297 295 293 294 294 293 290 290 291
293 294 295 296 296 297 298 298 298 299 301 301 303 304 305 305 306 306 305 304 303 302 302 302 300 300 300 300 300 298 295 295 295 296 296 294 292 293 293 290 287 287 289
295 294 295 296 296 297 298 297 297 297 298 300 301 303 305 304 304 306 305 304 303 301 301 299 300 300 299 299 300 299 296 295 294 293 292 293 291 292 292 289 287 285 286
294 294 294 293 294 295 296 295 296 297 299 300 301 302 303 303 304 305 306 303 301 300 299 298 298 299 300 298 299 299 297 295 292 290 289 290 291 291 292 290 287 286 288
293 294 293 293 294 295 295 294 294 297 298 298 299 300 302 302 302 303 304 303 300 298 297 296 296 297 298 299 299 298 298 297 292 290 291 290 292 290 291 291 289 288 289
292 292 291 291 291 292 293 292 293 295 295 296 296 298 299 301 302 301 301 300 299 297 295 294 294 294 296 296 298 299 297 296 292 292 293 293 292 291 291 292 289 288 284
290 290 289 289 289 292 292 291 292 293 293 293 294 296 297 299 300 301 300 298 296 295 294 293 292 293 294 294 295 295 296 295 293 290 289 289 290 291 290 290 287 285 284
289 289 288 288 287 289 288 291 291 290 290 293 294 295 297 298 299 299 298 297 298 297 295 294 294 293 291 293 295 295 294 292 289 286 286 285 285 286 287 287 286 285 285
288 287 287 287 287 288 287 288 288 288 288 291 294 295 296 297 297 296 296 298 298 298 298 297 297 295 295 296 296 296 296 293 291 285 284 284 284 284 285 285 285 285 285

GFSMW_sfc_thetae_108.txt.gz
Theta_e
312 317 322 322 325 326 327 328 327 327 328 328 330 329 327 327 328 330 334 337 337 337 335 334 334 334 331 329 328 327 325 323 326 324 325 326 325 326 321 321 321 323 324
310 317 317 319 319 322 326 326 326 326 327 328 332 333 332 332 332 333 332 333 333 336 335 334 335 335 333 332 330 326 325 325 327 322 321 315 318 319 319 320 320 319 321
312 314 315 316 318 318 323 326 326 326 327 327 329 328 331 331 331 332 332 333 333 334 335 334 334 332 331 329 328 329 329 324 326 327 321 313 309 314 318 318 318 317 318
314 313 314 315 318 319 321 325 326 326 327 327 325 324 324 322 326 328 330 331 333 333 333 331 331 330 330 327 325 327 326 327 325 325 326 322 320 313 309 317 318 318 316
313 313 314 316 319 320 321 324 325 325 325 326 326 324 323 324 326 327 328 329 330 331 331 330 329 327 326 324 323 323 323 323 322 322 320 316 315 317 315 310 312 315 315
314 316 316 317 318 319 320 320 321 323 325 324 324 324 323 323 323 324 325 326 326 327 328 329 328 326 324 322 322 321 321 321 320 320 319 315 311 311 311 310 310 311 313
310 312 313 314 316 318 319 321 321 322 324 323 323 324 324 325 323 323 324 323 324 324 325 327 328 326 324 321 321 320 320 320 319 317 315 314 313 314 314 311 309 308 311
308 308 308 308 308 313 317 320 322 322 323 323 323 324 324 324 324 324 325 324 323 324 323 325 325 324 322 320 319 320 320 316 315 313 313 313 314 315 314 312 309 305 306
303 303 304 305 305 306 306 309 312 314 319 323 323 323 324 324 325 326 327 327 327 326 321 322 321 320 319 318 317 316 313 313 313 311 311 311 311 313 313 313 311 307 302
300 301 302 304 306 307 308 308 307 307 309 312 318 322 324 326 325 324 324 324 323 322 321 320 321 319 317 315 313 312 311 309 309 309 309 309 310 311 310 310 310 309 306
299 300 301 303 303 305 307 308 308 309 310 312 315 316 318 321 323 324 323 323 321 319 318 317 316 314 312 312 312 311 310 309 306 306 307 307 308 306 307 307 307 306 304
299 299 299 300 300 301 303 305 307 308 308 310 310 311 312 315 315 318 321 320 319 318 317 316 314 313 312 312 310 306 305 304 303 303 304 304 305 304 304 303 302 302 302
299 299 299 299 298 299 300 301 303 304 307 307 307 308 309 309 311 314 315 317 316 314 314 314 313 313 311 309 307 304 302 302 302 302 301 302 302 302 301 301 300 300 302
298 298 297 297 298 299 299 300 300 301 302 304 305 306 306 307 308 311 312 311 312 312 312 312 312 310 307 305 304 301 300 300 300 301 301 301 302 301 300 300 298 299 300
295 295 295 296 297 298 298 299 300 300 301 301 301 303 306 306 306 307 309 309 308 310 310 309 308 306 305 305 303 302 300 299 299 300 301 301 299 300 302 300 299 298 297
292 293 293 293 293 293 296 297 298 299 300 299 300 302 303 305 304 304 305 306 305 305 306 306 305 303 304 305 305 302 299 299 299 297 297 296 297 298 300 299 299 299 296
290 290 290 291 291 292 293 293 294 296 296 298 299 300 301 301 304 304 303 302 303 302 303 303 303 302 301 305 305 303 299 298 297 296 295 294 295 295 293 297 297 296 296
289 290 290 291 292 293 294 295 295 295 295 295 296 299 300 300 301 302 301 301 300 300 300 300 300 300 300 303 303 302 296 296 296 294 294 292 291 292 292 290 287 287 289
290 291 291 292 293 293 294 294 294 294 295 295 296 297 297 298 299 299 300 299 299 298 297 299 299 298 298 301 301 299 295 295 294 294 294 291 290 295 296 289 285 285 286
291 290 290 291 290 291 292 291 292 292 292 294 296 297 298 297 297 298 298 299 299 298 296 296 297 299 297 300 301 297 296 294 293 293 291 295 291 295 296 288 286 282 283
289 290 289 288 289 290 291 291 292 292 295 296 296 296 296 295 297 297 299 299 298 298 296 297 296 297 297 298 301 299 295 294 292 290 288 289 295 295 295 292 285 283 285
290 290 287 287 288 289 289 290 290 292 293 293 293 293 294 295 295 296 298 297 301 297 295 295 296 296 296 299 300 300 298 297 292 289 289 289 294 293 294 292 290 291 290
288 288 287 287 288 288 290 287 289 290 291 291 290 291 294 295 295 296 296 297 300 299 297 296 295 295 296 296 300 300 300 298 292 291 290 291 293 292 292 292 291 290 283
286 287 286 286 287 288 288 288 288 289 289 287 288 290 293 294 295 296 297 298 298 298 297 295 294 294 294 295 297 298 298 297 292 293 292 291 292 291 288 290 287 282 281
286 286 286 287 286 287 287 288 288 287 286 285 286 288 292 294 295 296 297 298 299 299 297 296 296 294 293 294 297 297 295 293 290 288 287 286 286 285 284 284 282 281 282
285 284 285 286 286 286 287 287 287 287 285 284 286 287 288 291 292 295 296 299 299 299 299 298 297 296 297 297 297 297 297 295 292 286 284 284 284 285 284 284 283 281 283

GFSMW_sfc_thetae_111.txt.gz
Theta_e
306 312 317 319 321 323 325 326 326 324 327 330 329 329 328 330 332 333 333 334 334 333 332 332 332 331 329 328 326 325 323 323 323 323 322 325 324 323 322 320 321 322 323
306 313 318 314 316 321 325 326 326 323 324 327 329 330 328 327 329 332 335 335 336 334 333 333 332 332 330 328 327 325 324 324 324 322 322 317 318 320 319 318 319 319 321
304 312 315 315 315 317 321 325 326 323 324 325 328 329 330 330 329 328 327 330 334 335 335 333 333 332 332 328 329 329 327 323 325 325 322 314 310 314 317 316 317 317 317
309 313 313 313 315 317 320 324 326 325 326 326 325 323 323 322 324 326 330 330 329 330 330 330 331 329 328 327 326 327 326 325 323 323 325 323 320 311 311 317 317 317 317
309 312 313 316 319 319 319 321 326 325 325 325 324 322 321 323 324 324 325 325 328 330 329 329 328 328 327 326 324 323 323 324 323 322 318 317 318 317 314 310 312 315 315
312 313 315 316 317 318 319 322 324 324 324 324 324 323 321 322 322 322 322 325 324 326 328 328 327 327 325 323 322 322 322 323 321 321 319 315 314 311 311 307 307 312 313
312 312 313 314 316 316 317 319 320 322 323 322 323 323 323 323 322 322 322 322 323 323 324 325 326 326 326 324 322 321 321 321 321 320 319 316 315 316 313 312 310 308 311
306 306 308 310 310 315 317 318 320 320 322 321 321 323 323 324 324 323 322 323 323 324 324 325 326 327 326 323 322 322 322 322 321 318 316 315 314 315 314 312 310 306 307
301 303 304 305 305 305 308 314 316 317 319 322 322 321 322 322 322 323 324 324 325 325 324 325 325 326 325 324 322 322 321 319 317 316 314 313 313 313 313 313 311 307 302
301 302 303 304 306 306 306 307 306 307 308 312 320 322 322 323 323 323 323 324 325 326 325 323 323 323 323 322 320 319 317 316 313 314 313 309 309 311 311 311 310 309 306
298 299 300 301 302 302 305 306 307 308 309 311 313 314 316 318 321 322 322 322 323 322 323 322 321 321 320 318 316 315 313 313 311 310 310 309 310 309 309 309 308 307 306
298 298 298 298 298 298 300 302 303 305 306 307 307 308 310 312 314 315 319 322 321 319 318 318 317 316 315 314 313 312 311 311 308 308 307 306 306 305 306 304 303 303 302
296 296 296 296 296 297 299 299 299 300 302 304 305 306 306 307 308 310 313 315 316 316 316 315 314 313 313 312 312 310 308 307 306 305 304 304 304 303 302 302 301 300 301
294 294 293 293 294 295 296 297 298 299 300 300 300 300 303 305 306 307 310 311 312 312 313 314 313 313 313 311 309 307 306 306 304 303 303 303 303 302 301 300 299 299 298
290 291 290 290 290 290 292 293 294 296 297 297 298 299 300 302 304 305 306 308 308 308 310 311 311 312 309 307 306 305 305 304 302 300 301 301 301 302 302 300 297 296 296
288 289 289 289 289 288 290 292 292 293 295 294 295 298 299 299 300 302 303 303 305 305 305 309 309 307 306 305 305 305 303 301 300 299 298 297 299 301 304 303 302 299 296
287 287 287 288 289 290 291 290 291 293 293 293 294 295 296 297 298 299 300 301 300 301 301 304 306 306 305 305 306 304 302 300 299 298 296 295 296 297 296 300 300 300 301
288 288 288 289 289 290 291 291 292 292 292 292 293 295 295 295 296 297 297 299 299 299 300 301 302 303 302 304 305 304 300 299 298 298 296 295 294 293 293 292 289 290 291
288 289 289 289 289 290 291 291 290 291 291 291 292 293 294 294 295 295 295 296 297 298 298 298 299 299 300 302 303 303 298 297 296 297 296 295 293 296 296 290 287 286 287
289 289 289 289 288 288 290 289 289 290 290 291 293 292 292 292 292 292 293 294 296 297 299 298 298 299 299 300 302 302 298 296 294 295 294 297 294 298 297 289 286 283 284
289 289 288 287 287 288 288 287 289 290 292 292 291 291 292 292 291 292 294 294 293 296 297 298 300 297 298 297 302 302 297 296 294 293 292 293 297 298 298 292 286 285 285
288 288 286 286 286 287 289 288 287 289 290 290 291 291 290 290 291 292 293 294 293 294 295 296 298 298 298 299 301 301 300 299 295 293 293 294 297 297 297 293 291 291 289
287 287 285 285 286 287 288 286 287 288 288 287 287 287 288 288 290 291 293 293 294 294 295 296 297 298 298 297 300 301 301 299 295 294 293 294 296 296 296 294 292 292 285
285 285 284 283 283 285 287 287 287 287 286 285 285 285 286 287 289 291 293 294 294 294 295 296 296 297 296 296 297 299 299 299 296 294 292 293 294 293 292 292 290 285 284
284 284 283 283 283 284 284 285 285 287 285 284 284 284 285 286 287 288 290 291 295 297 295 296 297 296 294 295 297 298 297 296 294 291 290 289 289 287 286 287 283 282 283
284 283 283 283 283 284 284 285 285 286 284 283 283 283 284 285 286 286 287 291 293 295 298 299 298 298 299 299 298 298 299 298 296 291 288 287 287 286 285 285 282 282 283

GFSMW_sfc_thetae_114.txt.gz
Theta_e
298 306 315 316 319 319 321 322 324 326 327 327 325 326 326 326 329 328 329 328 330 328 327 327 327 327 326 326 324 323 322 321 322 321 320 322 322 324 323 322 320 322 323
301 308 312 313 314 318 320 322 324 325 324 325 330 329 327 327 328 328 329 330 329 329 328 329 329 329 327 326 325 324 322 323 322 320 320 316 318 318 319 318 320 319 321
300 308 311 311 316 316 321 322 326 323 323 325 330 329 328 328 327 328 328 331 332 331 330 331 331 330 330 327 326 325 324 321 322 324 321 313 312 314 316 316 318 317 317
302 309 310 313 314 313 316 319 322 322 323 324 324 326 324 323 324 327 328 329 331 332 331 331 331 330 329 326 326 326 325 325 320 321 324 321 319 311 311 316 317 317 317
306 308 312 314 314 316 316 321 323 322 322 324 324 323 322 323 324 324 324 325 325 327 328 328 328 327 326 327 325 324 324 324 322 321 319 319 319 317 313 309 313 315 316
306 309 313 316 315 315 318 320 322 321 323 324 323 322 321 321 321 321 321 323 323 324 325 327 327 325 325 324 324 323 323 323 322 322 318 316 316 313 313 309 308 311 311
307 312 312 313 315 316 317 320 321 321 322 323 322 322 321 321 320 321 320 320 321 321 323 324 323 324 325 324 324 323 322 322 321 321 321 318 317 315 315 313 310 307 310
305 305 306 306 308 313 315 318 318 320 322 322 321 323 323 322 322 322 321 321 320 321 322 324 325 324 324 324 323 322 323 323 322 321 320 319 318 317 315 313 311 307 308
302 304 305 306 306 305 307 311 314 317 319 320 321 321 322 322 321 322 322 322 323 323 323 323 323 324 325 324 323 323 322 322 322 322 320 318 318 316 315 314 313 310 304
300 301 302 302 304 305 306 307 308 308 310 313 316 321 321 321 322 322 322 323 323 324 323 323 323 324 324 324 324 323 323 322 322 321 318 317 315 315 314 312 309 308 305
298 298 298 298 299 300 301 302 304 305 306 307 308 310 313 317 320 321 322 323 323 323 323 323 323 323 323 324 323 322 322 319 319 317 316 315 312 311 311 309 309 307 305
295 296 296 296 296 296 297 298 299 300 301 303 304 305 306 307 308 310 313 317 319 319 321 321 321 322 322 321 320 319 317 315 315 313 312 312 311 309 311 308 307 305 305
292 292 292 291 292 292 293 294 295 296 297 299 299 300 301 303 304 305 307 311 314 315 315 317 317 317 317 316 316 316 314 313 313 313 311 311 310 307 306 303 303 301 302
289 289 289 289 289 291 291 292 293 295 295 296 296 296 297 299 300 303 304 306 309 310 311 314 314 314 314 313 313 313 312 311 310 309 309 308 308 305 302 302 300 299 298
287 287 287 287 288 288 289 291 292 293 293 294 294 294 296 297 298 299 300 302 304 306 308 308 312 313 313 312 311 310 309 308 307 306 305 305 304 303 304 301 298 298 296
286 286 287 287 287 287 289 290 291 292 293 292 292 294 294 295 295 296 297 298 299 300 302 303 307 310 310 309 308 309 307 307 306 303 302 302 302 302 305 304 303 301 298
286 287 286 287 288 288 290 289 289 291 291 291 292 293 294 294 294 295 295 295 296 297 298 300 302 304 307 307 307 306 307 304 303 302 299 298 298 301 301 304 303 302 303
286 287 287 287 288 288 288 288 289 289 289 290 290 292 292 292 292 293 293 294 294 294 295 297 299 301 304 305 305 305 304 301 301 301 300 299 297 297 298 298 297 296 297
287 287 286 287 286 287 287 287 287 287 288 289 289 290 290 290 291 290 290 291 291 292 293 294 295 297 299 303 303 304 302 299 299 300 300 299 297 298 300 295 291 291 289
287 287 287 287 287 287 288 287 287 287 287 288 288 289 289 290 289 289 289 291 293 293 293 293 294 297 297 301 302 302 302 298 298 298 298 299 297 299 299 293 291 289 286
287 288 286 285 285 286 287 286 286 286 288 288 288 288 289 289 288 288 289 289 290 292 293 294 294 295 297 298 301 303 301 298 296 296 295 297 299 299 299 296 290 290 286
287 288 286 285 286 286 287 286 285 287 288 288 288 288 288 288 287 287 287 288 290 291 292 293 293 295 297 299 300 301 302 301 297 296 297 297 299 299 299 296 293 293 290
285 286 285 284 285 285 286 286 287 288 287 287 286 286 287 286 286 286 287 286 287 289 291 293 293 295 297 296 300 301 302 302 298 297 297 297 298 298 298 295 294 293 285
284 284 284 283 282 284 284 284 285 286 285 285 285 285 285 285 286 286 286 286 286 286 288 289 292 294 296 297 296 297 300 301 299 297 296 296 297 297 296 294 292 286 285
283 283 283 282 282 283 283 283 284 283 284 284 284 284 284 284 284 285 286 286 287 288 287 288 290 291 294 297 298 297 298 298 298 293 292 292 292 290 290 290 287 285 285
283 283 282 282 282 282 282 283 283 283 284 283 283 283 283 283 284 284 284 289 289 291 291 292 291 292 296 298 298 298 299 299 298 291 289 289 289 289 288 288 284 284 285

GFSMW_sfc_thetae_117.txt.gz
Theta_e
295 298 301 307 316 317 317 317 319 322 323 324 324 324 324 325 325 328 332 332 332 332 332 330 329 328 326 325 324 322 320 321 320 319 318 320 322 322 322 321 322 322 323
295 297 304 313 313 314 316 317 320 322 324 325 325 326 327 328 326 328 332 332 331 331 331 329 327 326 326 325 324 323 320 321 321 319 318 314 317 317 319 318 320 320 322
295 298 308 311 312 312 314 321 322 322 322 323 325 325 327 327 325 327 329 328 331 330 330 329 328 326 326 325 325 324 322 320 321 322 319 311 311 313 315 315 317 318 318
297 301 307 309 310 312 313 316 321 322 321 321 324 320 325 322 325 326 327 328 329 329 328 328 328 328 328 326 325 324 323 323 320 321 322 319 315 311 309 314 314 316 316
297 302 307 310 312 313 313 314 319 320 319 319 323 321 323 324 325 325 325 326 328 329 329 328 328 328 328 327 325 323 323 323 321 320 320 320 319 315 310 307 310 313 315
299 305 308 310 314 316 317 318 317 320 319 321 322 321 321 321 321 322 321 322 322 323 325 325 325 326 326 324 323 323 323 322 322 322 320 318 317 317 314 307 307 311 312
305 306 306 308 309 311 311 313 319 319 319 322 321 321 321 321 321 320 320 320 320 320 322 324 324 323 323 323 323 323 322 322 321 321 321 321 320 317 316 311 308 309 310
305 305 306 306 306 307 307 308 319 320 321 322 322 322 322 321 321 321 320 320 320 320 321 321 322 323 324 323 323 322 323 323 322 322 322 322 321 317 315 313 310 306 308
301 301 301 302 303 304 305 307 309 310 313 315 318 321 322 321 320 321 321 321 321 321 321 322 321 322 322 323 323 323 322 322 323 323 322 321 322 320 319 318 317 314 305
297 297 298 298 298 299 299 300 302 303 305 308 310 316 321 322 321 321 321 321 322 322 322 322 322 322 322 323 323 323 323 322 322 322 322 321 322 320 318 317 317 316 310
294 294 294 294 294 294 295 296 297 297 299 300 302 304 306 309 313 316 318 320 322 322 322 322 322 321 321 322 322 322 322 321 321 322 321 321 321 319 319 316 314 311 308
291 291 290 291 291 292 293 293 294 295 296 297 298 299 300 301 303 305 306 310 313 318 321 322 322 322 322 322 322 321 322 321 320 320 319 318 317 315 316 314 312 312 308
288 287 288 289 289 290 291 292 293 293 294 295 295 295 296 297 297 299 301 303 305 308 313 315 317 318 319 319 320 321 320 319 319 319 318 316 316 313 312 311 310 309 305
287 287 287 287 287 289 290 290 291 292 293 293 293 293 294 295 296 297 297 298 300 302 304 307 311 313 315 315 315 315 315 315 315 315 315 314 313 313 310 308 307 305 304
286 286 286 286 286 287 288 289 290 291 292 291 291 292 293 294 294 294 295 296 297 298 299 301 303 307 310 311 312 312 312 312 311 311 311 311 310 308 309 307 304 303 302
286 286 287 286 286 285 287 288 288 289 290 290 290 292 293 292 292 292 292 293 294 294 295 296 298 300 303 306 308 309 311 309 309 308 307 307 305 306 307 307 305 304 300
285 285 286 286 286 286 287 287 287 289 288 289 290 291 291 290 290 291 291 291 291 292 292 293 294 295 297 303 305 307 307 308 307 306 305 303 303 304 305 306 305 304 304
285 285 285 285 286 287 286 287 287 287 287 288 288 289 288 288 290 290 290 290 291 290 290 291 292 293 295 299 302 304 303 304 305 304 303 303 301 302 302 302 299 298 300
285 286 286 286 285 285 285 285 285 285 286 286 286 287 287 287 288 288 288 288 289 289 290 291 291 291 292 297 299 300 300 302 301 301 301 301 300 301 303 299 296 294 293
286 285 286 286 284 284 284 284 284 284 285 286 286 287 287 286 287 287 287 287 288 288 289 290 292 294 293 296 298 299 298 299 300 300 299 301 300 300 302 298 296 293 291
285 285 283 283 283 284 284 284 284 284 286 286 286 286 286 286 286 286 287 286 286 287 287 288 291 293 295 294 297 298 297 298 299 298 297 298 301 301 301 299 296 295 290
285 285 284 283 284 284 285 284 284 286 287 286 286 285 286 286 286 285 286 286 286 285 285 286 288 292 295 297 298 299 300 300 299 297 298 298 300 299 300 298 297 296 293
284 285 283 283 284 284 284 283 284 285 285 285 284 285 286 285 285 285 284 284 284 284 284 284 285 287 290 293 298 300 300 301 299 300 299 298 298 298 299 298 297 295 287
283 283 283 282 282 283 283 283 283 285 283 282 284 284 284 284 283 284 284 284 284 284 284 284 284 286 288 289 291 297 297 300 299 300 298 298 297 298 298 295 295 288 287
282 282 282 282 282 282 282 282 283 283 281 282 283 283 283 283 283 284 284 284 285 286 285 286 286 286 286 288 291 293 294 297 298 298 293 292 293 293 292 290 290 286 286
282 282 282 282 281 281 281 282 282 282 280 282 282 283 283 283 283 283 283 287 287 288 289 290 289 289 291 292 293 294 295 297 299 292 290 290 291 291 290 288 287 286 286